     2              OBSERVATION DATA    GPS                 RINEX VERSION / TYPE
ASHTORIN USGS 23 - OCT - 92 14:00                           PGM / RUN BY / DATE
                                                            COMMENT
Original Marker Name: whec Whitaker_Ecc_Ca_Div_Hwys         COMMENT
Campaign Name: USGS-So. Cal. Monit                          COMMENT
4-Character Station Name: WHEC                              COMMENT
6-Character Antenna Code: ASHL12                            COMMENT
Vertical Measurement Point: BBE                             COMMENT
Vertical Offset to Rinex Ref. Point: 0.0595                 COMMENT
Radial Measurement Point: EGP                               COMMENT
Radial Offset to Rinex Ref. Point: 0.1424                   COMMENT
Antenna Height from Field Measurement: 1.2760 m             COMMENT
Additional Antenna Identification Info.:                    COMMENT
Original Ashtech L1/L2                                      COMMENT
Original XYZ: -2610614.4100 -4466246.9800 3719221.8000      COMMENT
New XYZ position is based on association with SCEC monument COMMENT
E1E9L2T1+0031. Position of that monument is believed to be  COMMENT
valid to within 1 m horizontally; vertical accuracy         COMMENT
should be no worse than 3-times this value.                 COMMENT
                                                            COMMENT
Revised Rinex header created by UCSD GPS archive for        COMMENT
GSAC on 12-Nov-1999 (1999:316) 16:37:26 GMT                 COMMENT
For assistance contact dagnew@ucsd.edu or hjohnson@ucsd.edu COMMENT
                                                            COMMENT
WHEC WHITAKER_ECC_CA_DIV_HWYS                               MARKER NAME
                                                            MARKER NUMBER
JMS US GEOLOGICAL SURVEY                                    OBSERVER / AGENCY
749 ASHTECH L-XII 6M24                                      REC # / TYPE / VERS
598 ASHTECH GEODETIC L                                      ANT # / TYPE
 -2528851.0000 -4610849.0000  3599156.0000                  APPROX POSITION XYZ
        1.2085        0.0000        0.0000                  ANTENNA: DELTA H/E/N
     1     2     0                                          WAVELENGTH FACT L1/2
     4    L1    L2    C1    D1                              # / TYPES OF OBSERV
    30                                                      INTERVAL
  1992    10    20    16    17   30.000000                  TIME OF FIRST OBS
  1992    10    21     1    21   30.000000                  TIME OF LAST OBS
    14                                                      # OF SATELLITES
           3   613   613   613   613                        PRN / # OF OBS
          11   510   510   510   510                        PRN / # OF OBS
          12   230   230   230   230                        PRN / # OF OBS
          14   111   111   111   111                        PRN / # OF OBS
          15   294   294   294   294                        PRN / # OF OBS
          16   300   300   300   300                        PRN / # OF OBS
          17   773   773   773   773                        PRN / # OF OBS
          20   315   315   315   315                        PRN / # OF OBS
          21   792   792   792   792                        PRN / # OF OBS
          23   745   745   745   745                        PRN / # OF OBS
          24    93    93    93    93                        PRN / # OF OBS
          25   361   361   361   361                        PRN / # OF OBS
          26   428   428   428   428                        PRN / # OF OBS
                                                            END OF HEADER
 92 10 20 16 17 30.0000000  0  3  3 16 17                            0.000959350
    -55314.50517    -95379.05212  31560507.087       -1902.452
    -11191.02817     -9425.79214  29914809.099        -239.278
   7036472.59415   -138984.74711  32138098.795       -2801.885
 92 10 20 16 18  0.0000000  0  3  3 16 17                            0.000902740
     -1481.55116   -140354.34311  21656367.758       -1938.151
      -824.32117    -15273.25513  20020226.444        -256.814
     -1370.33615   -204962.92312  22228835.798       -2831.663
 92 10 20 16 18 30.0000000  0  5 20  3 24 16 17                      0.000293890
  11285005.79618      -295.85614  20233777.818         -11.686
    -59859.857 6   -185842.913 1  22544636.054       -1951.732
    143261.09316    149911.42012  22976000.166        2727.139
     -8503.254 7    -21256.955 5  20918142.470        -252.522
    -86461.730 5   -271267.880 5  23112020.920       -2838.936
 92 10 20 16 18 59.9990000  0  5 20  3 24 16 17                     -0.000706410
  11284916.368 8      -365.468 6  20233760.659           7.226
   -118431.980 6   -231492.554 1  22533489.912       -1951.871
    225062.472 6    213652.645 5  22991566.490        2727.745
    -15832.574 7    -26968.129 6  20916747.516        -234.641
   -171562.048 5   -337579.815 5  23095827.395       -2833.105
 92 10 20 16 19 29.9990000  0  5 20  3 24 16 17                     -0.000706660
  11285528.858 8       111.777 7  20233877.048          34.047
   -176875.072 6   -277026.254 2  22522368.430       -1944.091
    307006.194 6    277504.844 5  23007160.053        2735.577
    -22491.460 7    -32156.857 7  20915480.285        -208.720
   -256351.832 5   -403649.746 5  23079692.543       -2819.076
 92 10 20 16 19 59.9990000  0  5 20  3 24 16 17                     -0.000706740
  11287019.491 8      1273.262 9  20234160.611          65.160
   -235011.024 6   -322327.015 5  22511305.758       -1931.999
    389254.837 6    341594.569 5  23022811.312        2747.462
    -28284.483 7    -36670.918 7  20914377.538        -177.575
   -340641.439 5   -469329.955 5  23063652.677       -2800.362
 92 10 20 16 20 29.9990000  0  5 20  3 24 16 17                     -0.000706590
  11289481.852 8      3191.954 9  20234629.207          99.526
   -292746.420 6   -367315.652 5  22500319.304       -1916.759
    471896.025 6    405990.209 5  23038537.251        2762.446
    -33101.062 7    -40424.092 8  20913461.090        -142.984
   -424327.453 5   -534539.795 5  23047727.061       -2778.422
 92 10 20 16 20 59.9990000  0  5 20  3 24 16 17                     -0.000706180
  11292972.248 8      5911.719 9  20235293.377         133.456
   -350025.448 6   -411948.665 5  22489419.379       -1901.819
    554983.054 6    470733.231 5  23054347.865        2776.907
    -36883.312 7    -43371.301 8  20912741.352        -108.974
   -507369.987 5   -599248.264 5  23031924.178       -2757.502
 92 10 20 16 21 29.9990000  0  5 20  3 24 16 17                     -0.000705520
  11297483.796 8      9427.183 9  20236151.964         167.305
   -406855.075 6   -456231.507 5  22478605.065       -1887.014
    638507.892 6    535817.440 5  23070242.203        2791.543
    -39646.258 7    -45524.259 8  20912215.634         -75.191
   -589778.062 5   -663462.337 5  23016242.096       -2736.339
 92 10 20 16 21 59.9990000  0  5 20  3 24 16 17                     -0.000704600
  11303016.405 8     13738.279 9  20237204.695         201.151
   -463235.521 6   -500164.325 5  22467875.955       -1872.246
    722480.554 6    601250.600 5  23086221.752        2806.246
    -41384.764 7    -46878.949 8  20911884.832         -41.110
   -671536.581 5   -727170.255 5  23000683.667       -2714.639
 92 10 20 16 22 29.9990000  0  5 20  3 24 16 17                     -0.000703400
  11309571.735 8     18846.280 9  20238452.309         235.850
   -519164.758 6   -543745.532 5  22457232.822       -1856.576
    806907.752 6    667037.904 5  23102288.370        2822.208
    -42100.329 7    -47436.539 8  20911748.658          -6.625
   -752641.057 5   -790368.545 5  22985250.289       -2692.395
 92 10 20 16 22 59.9990000  0  5 20  3 24 16 17                     -0.000701930
  11317148.467 8     24750.210 9  20239894.022         269.338
   -574644.583 6   -586976.563 5  22446675.299       -1842.200
    891791.466 6    733180.974 5  23118441.356        2836.800
    -41803.045 7    -47204.908 8  20911805.418          26.492
   -833093.189 5   -853058.508 5  22969941.102       -2670.687
 92 10 20 16 23 29.9990000  0  5 20  3 24 16 17                     -0.000700170
  11325739.300 8     31444.341 9  20241528.960         303.097
   -629682.301 6   -629863.090 5  22436201.491       -1827.509
    977119.449 6    799670.245 5  23134679.122        2851.337
    -40498.582 7    -46188.454 8  20912053.756          60.190
   -912868.158 5   -915220.799 5  22954760.572       -2647.960
 92 10 20 16 23 59.9990000  0  5 20  3 24 16 17                     -0.000698140
  11335333.508 8     38920.317 9  20243354.737         336.351
   -684288.279 6   -672413.181 5  22425810.473       -1813.284
   1062873.305 6    866491.342 5  23150997.445        2865.411
    -38190.697 7    -44390.098 8  20912492.722          93.375
   -991979.233 5   -976865.760 5  22939706.033       -2626.369
 92 10 20 16 24 29.9990000  0  5 20  3 24 16 17                     -0.000695850
  11345926.319 8     47174.415 9  20245370.493         370.276
   -738467.736 6   -714630.956 5  22415500.553       -1798.429
   1149048.045 6    933640.373 5  23167395.507        2879.974
    -34900.393 7    -41826.257 8  20913118.670         126.299
  -1070458.906 5  -1038018.766 5  22924772.110       -2605.182
 92 10 20 16 24 59.9990000  0  5 20  3 24 16 17                     -0.000693310
  11357525.351 8     56212.590 9  20247577.693         403.579
   -792212.889 6   -756510.279 5  22405273.302       -1784.189
   1235644.110 6   1001117.745 5  23183874.140        2893.700
    -30636.900 7    -38504.090 9  20913929.976         158.436
  -1148309.707 5  -1098681.739 5  22909957.778       -2584.392
 92 10 20 16 25 29.9990000  0  5 20  3 24 16 17                     -0.000690520
  11370149.500 8     66049.551 9  20249980.211         438.087
   -845504.468 6   -798036.198 5  22395132.401       -1768.724
   1322684.671 6   1068941.475 5  23200438.150        2908.982
    -25384.889 7    -34411.641 9  20914929.285         191.736
  -1225527.642 5  -1158851.505 5  22895263.876       -2563.595
 92 10 20 16 25 59.9990000  0  5 20  3 24 16 17                     -0.000687500
  11383818.315 8     76700.560 9  20252581.480         472.918
   -898322.652 6   -839193.208 5  22385081.423       -1752.934
   1410200.171 6   1137135.299 5  23217091.973        2925.132
    -19121.889 7    -29531.380 9  20916121.050         225.499
  -1302127.296 5  -1218539.531 5  22880687.367       -2543.196
 92 10 20 16 26 29.9990000  0  5 20  3 24 16 17                     -0.000684220
  11398536.029 8     88168.875 9  20255382.171         508.303
   -950663.114 6   -879977.980 5  22375121.135       -1736.631
   1498198.269 6   1205705.131 5  23233837.531        2941.411
    -11843.073 7    -23859.585 9  20917506.322         259.920
  -1378100.294 5  -1277739.211 5  22866230.261       -2521.366
 92 10 20 16 26 59.9990000  0  5 20  3 24 16 17                     -0.000680660
  11414326.136 8    100472.833 9  20258387.031         544.699
  -1002502.314 6   -920372.172 5  22365256.445       -1719.206
   1586691.272 6   1274660.661 5  23250677.322        2958.438
     -3510.810 7    -17366.941 9  20919091.875         295.997
  -1453395.929 5  -1336411.116 5  22851901.348       -2497.933
 92 10 20 16 27 29.9990000  0  5 20  3 24 16 17                     -0.000676810
  11431194.051 8    113616.614 9  20261596.719         580.264
  -1053834.610 6   -960371.355 5  22355488.077       -1702.688
   1675681.918 6   1344003.924 5  23267611.669        2974.637
      5894.312 7    -10038.287 9  20920881.786         331.502
  -1528001.347 6  -1394545.204 5  22837704.508       -2475.004
 92 10 20 16 27 59.9990000  0  5 20  3 24 16 17                     -0.000672660
  11449140.129 8    127600.568 9  20265011.706         616.121
  -1104659.519 6   -999975.173 5  22345816.372       -1685.819
   1765166.184 6   1413731.843 5  23284639.797        2990.969
     16377.085 7     -1869.890 9  20922876.745         367.296
  -1601889.955 6  -1452120.745 5  22823643.992       -2450.693
 92 10 20 16 28 29.9990000  0  6 20  3 24 25 16 17                  -0.000668170
  11468159.427 8    142420.764 9  20268630.809         651.843
  -1154981.125 6  -1039186.795 5  22336240.631       -1669.086
   1855132.292 6   1483835.221 5  23301760.116        3006.812
 -18448898.28415     55564.97411  24394307.901         883.285
     27929.113 7      7131.692 9  20925075.152         402.884
  -1675039.110 6  -1509120.054 5  22809724.217       -2426.034
 92 10 20 16 28 59.9990000  0  6 20  3 24 25 16 17                  -0.000663370
  11488245.632 8    158072.319 9  20272452.873         687.378
  -1204805.833 6  -1078011.252 5  22326759.475       -1652.555
   1945575.390 6   1554310.247 5  23318971.213        3022.933
 -18421936.427 5     76574.039 2  24399438.693         914.060
     40541.618 7     16959.608 9  20927475.180         438.140
  -1747463.263 5  -1565554.468 5  22795942.356       -2402.169
 92 10 20 16 29 29.9990000  0  5 20  3 24 16 17                     -0.000658320
  11509403.295 8    174558.778 9  20276479.037         722.912
  -1254128.309 6  -1116444.356 5  22317373.703       -1635.985
   2036512.971 6   1625170.616 5  23336276.012        3039.406
     54222.946 7     27620.379 9  20930078.578         473.732
  -1819164.888 6  -1621425.865 5  22782298.234       -2378.153
 92 10 20 16 29 59.9990000  0  5 20  3 24 16 17                     -0.000652910
  11531617.694 8    191868.665 9  20280706.430         757.960
  -1302962.535 6  -1154496.985 5  22308080.906       -1619.912
   2127933.411 6   1696407.218 5  23353671.977        3055.248
     68960.879 7     39104.496 9  20932882.807         508.656
  -1890158.302 6  -1676745.397 5  22768788.765       -2354.910
 92 10 20 16 30 29.9990000  0  5 20  3 24 16 17                     -0.000647230
  11554877.059 8    209992.811 9  20285132.685         792.592
  -1351320.727 6  -1192178.693 5  22298878.798       -1604.217
   2219821.777 6   1768008.461 5  23371158.123        3070.434
     84738.162 7     51398.484 9  20935885.068         543.099
  -1960473.075 5  -1731536.105 5  22755408.211       -2332.787
 92 10 20 16 30 59.9990000  0  5 20  3 24 16 17                     -0.000641260
  11579179.817 8    228930.003 9  20289757.422         827.412
  -1399203.519 6  -1229489.959 5  22289766.767       -1588.306
   2312172.137 6   1839969.654 5  23388732.176        3086.026
    101548.062 7     64497.119 9  20939084.095         577.502
  -2030116.614 6  -1785803.756 5  22742155.344       -2310.167
 92 10 20 16 31 29.9990000  0  5 20  3 24 16 17                     -0.000635020
  11604513.341 8    248670.387 9  20294578.246         861.374
  -1446622.855 6  -1266440.084 5  22280743.233       -1573.254
   2404973.842 6   1912282.599 5  23406392.010        3100.634
    119376.616 7     78389.512 9  20942476.835         610.809
  -2099095.158 6  -1839553.215 5  22729028.830       -2288.539
 92 10 20 16 31 59.9990000  0  5 20  3 24 16 17                     -0.000628520
  11630860.000 8    269200.190 9  20299591.826         894.958
  -1493596.081 6  -1303042.624 5  22271804.550       -1558.601
   2498211.849 6   1984935.455 5  23424134.399        3115.144
    138185.970 7     93046.166 9  20946056.086         643.077
  -2167431.322 6  -1892802.170 5  22716024.464       -2267.417
 92 10 20 16 32 29.9990000  0  5 20  3 24 16 17                     -0.000621750
  11658220.006 8    290519.661 9  20304798.510         928.508
  -1540122.208 6  -1339296.723 5  22262951.061       -1543.914
   2591885.354 5   2057927.679 5  23441959.960        3129.231
    157974.394 7    108465.720 9  20949821.520         675.652
  -2235125.391 6  -1945550.778 5  22703143.559       -2246.031
 92 10 20 16 32 59.9990000  0  5 20  3 24 16 17                     -0.000614720
  11686584.199 8    312621.606 9  20310196.083         962.065
  -1586209.846 6  -1375209.171 5  22254180.782       -1529.146
   2685985.634 5   2131252.459 5  23459866.484        3143.706
    178744.054 7    124649.887 9  20953773.933         708.669
  -2302175.044 6  -1997797.228 5  22690384.743       -2224.407
 92 10 20 16 33 29.9990000  0  5 20  3 24 16 17                     -0.000607440
  11715937.411 8    335494.189 9  20315781.827         994.800
  -1631873.153 6  -1410790.975 5  22245491.300       -1515.308
   2780495.342 5   2204896.260 5  23477850.831        3156.794
    200494.704 7    141598.423 9  20957912.938         741.278
  -2368597.586 6  -2049555.070 5  22677745.014       -2203.748
 92 10 20 16 33 59.9990000  0  5 20  3 24 16 17                     -0.000599920
  11746263.823 8    359125.149 9  20321552.551        1026.945
  -1677127.883 6  -1446054.407 5  22236879.697       -1501.886
   2875380.425 5   2278832.587 5  23495907.343        3168.778
    223218.025 7    159304.901 9  20962237.216         773.774
  -2434400.791 6  -2100830.262 5  22665222.824       -2183.174
 92 10 20 16 34 29.9990000  0  5 20  3 24 16 17                     -0.000592160
  11777556.476 8    383509.000 9  20327507.299        1059.136
  -1721979.380 6  -1481003.622 5  22228344.518       -1488.476
   2970619.902 5   2353045.039 5  23514031.224        3180.452
    246922.777 7    177776.140 9  20966748.072         806.455
  -2499581.659 6  -2151620.511 5  22652819.220       -2162.281
 92 10 20 16 34 59.9990000  0  5 20  3 24 16 17                     -0.000584200
  11809802.599 8    408635.799 9  20333643.372        1090.684
  -1766439.858 6  -1515648.142 5  22219884.104       -1475.643
   3066197.334 5   2427520.859 5  23532218.718        3191.446
    271592.133 7    196998.997 9  20971442.651         838.123
  -2564156.907 6  -2201938.853 5  22640530.356       -2142.641
 92 10 20 16 35 29.9990000  0  5 20  3 24 16 17                     -0.000576030
  11842996.005 8    434500.762 9  20339959.879        1122.021
  -1810514.929 6  -1549992.352 5  22211496.921       -1463.039
   3162104.262 5   2502253.365 5  23550468.969        3202.129
    297203.176 7    216955.648 9  20976316.209         868.999
  -2628137.447 6  -2251793.794 5  22628355.526       -2122.991
 92 10 20 16 35 59.9990000  0  5 20  3 24 16 17                     -0.000567660
  11877127.861 8    461096.976 9  20346455.412        1153.447
  -1854212.018 6  -1584042.058 5  22203181.677       -1450.289
   3258336.777 5   2577239.624 5  23568781.233        3213.440
    323731.496 7    237627.047 9  20981364.363         899.437
  -2691535.424 6  -2301194.805 5  22616291.010       -2103.540
 92 10 20 16 36 29.9990000  0  5 20  3 24 16 17                     -0.000559070
  11912198.815 8    488424.951 9  20353129.431        1184.675
  -1897529.953 6  -1617796.298 6  22194938.542       -1437.699
   3354902.211 5   2652485.309 5  23587157.170        3224.258
    351159.264 7    258999.320 9  20986583.531         929.200
  -2754352.913 6  -2350143.481 5  22604337.681       -2084.360
 92 10 20 16 36 59.9990000  0  5 20  3 24 16 17                     -0.000550290
  11948197.062 8    516475.496 9  20359979.950        1215.244
  -1940479.412 6  -1651263.405 6  22186765.471       -1425.760
   3451783.177 5   2727976.854 5  23605593.685        3234.656
    379471.352 7    281060.682 9  20991971.081         958.252
  -2816610.186 6  -2398655.592 5  22592491.237       -2066.051
 92 10 20 16 37 29.9990000  0  5 20  3 24 16 17                     -0.000541330
  11985104.430 8    545234.460 9  20367003.147        1245.373
  -1983077.734 6  -1684456.891 6  22178659.114       -1414.180
   3548971.445 5   2803707.880 5  23624088.316        3244.832
    408648.036 7    303795.733 9  20997523.397         987.160
  -2878323.608 6  -2446743.958 5  22580747.284       -2048.010
 92 10 20 16 37 59.9990000  0  5 20  3 24 16 17                     -0.000532170
  12022919.352 8    574700.584 9  20374199.045        1275.601
  -2025325.404 6  -1717377.178 6  22170620.059       -1402.538
   3646474.697 5   2879684.302 5  23642642.218        3255.375
    438701.475 7    327214.009 9  21003242.358        1016.438
  -2939492.956 6  -2494408.351 5  22569107.100       -2029.859
 92 10 20 16 38 29.9990000  0  5 20  3 24 16 17                     -0.000522820
  12061635.909 8    604869.298 9  20381566.275        1305.480
  -2067227.615 6  -1750028.238 6  22162646.120       -1391.178
   3744286.254 5   2955900.982 5  23661255.296        3265.471
    469640.888 7    351322.621 9  21009129.633        1046.381
  -3000115.082 6  -2541646.358 5  22557570.810       -2011.759
 92 10 20 16 38 59.9990000  0  5 20  3 24 16 17                     -0.000513280
  12101244.235 7    635732.902 9  20389103.408        1335.046
  -2108792.808 6  -1782416.718 6  22154736.634       -1380.054
   3842412.834 5   3032363.108 5  23679927.779        3276.267
    501484.971 7    376136.177 9  21015189.486        1076.478
  -3060205.816 6  -2588470.293 5  22546135.547       -1994.192
 92 10 20 16 39 29.9990000  0  5 20  3 24 16 17                     -0.000503550
  12141740.651 8    667288.512 9  20396809.742        1364.447
  -2150023.541 6  -1814544.573 6  22146890.616       -1369.092
   3940855.880 6   3109071.910 5  23698661.465        3286.293
    534229.047 7    401651.023 9  21021420.514        1106.200
  -3119764.169 6  -2634879.367 5  22534801.824       -1976.618
 92 10 20 16 39 59.9990000  0  5 20  3 24 16 17                     -0.000493640
  12183114.832 8    699528.106 9  20404682.881        1393.679
  -2190928.882 6  -1846418.865 6  22139106.692       -1358.234
   4039593.226 5   3186009.948 5  23717451.120        3295.985
    567857.822 7    427855.249 9  21027820.043        1135.483
  -3178793.175 6  -2680875.947 5  22523568.838       -1958.820
 92 10 20 16 40 29.9990000  0  5 20  3 24 16 17                     -0.000483550
  12225363.070 7    732448.772 9  20412722.487        1422.793
  -2231511.504 6  -1878041.704 6  22131383.990       -1347.546
   4138616.086 6   3263170.524 5  23736294.746        3305.568
    602360.088 7    454740.122 9  21034385.737        1164.521
  -3237294.205 6  -2726461.153 5  22512436.312       -1941.326
 92 10 20 16 40 59.9990000  0  5 20  3 24 16 17                     -0.000473270
  12268476.115 7    766043.330 9  20420926.826        1451.418
  -2271779.700 6  -1909419.523 6  22123721.276       -1337.188
   4237919.529 6   3340549.717 5  23755191.553        3314.480
    637714.351 7    482288.880 9  21041113.359        1192.305
  -3295278.861 6  -2771643.945 6  22501402.354       -1924.300
 92 10 20 16 41 29.9990000  0  5 20  3 24 16 17                     -0.000462820
  12312450.289 8    800308.893 9  20429295.065        1480.191
  -2311735.303 6  -1940553.765 6  22116118.010       -1326.701
   4337491.441 5   3418138.113 5  23774139.265        3323.700
    673895.792 7    510482.199 9  21047998.373        1219.802
  -3352743.009 6  -2816421.208 6  22490467.873       -1906.745
 92 10 20 16 41 59.9990000  0  5 20  3 24 16 17                     -0.000452170
  12357280.049 7    835241.142 9  20437825.858        1508.294
  -2351382.779 6  -1971447.914 6  22108573.064       -1316.780
   4437339.884 5   3495941.970 5  23793140.210        3332.622
    710902.212 7    539318.350 8  21055040.528        1247.130
  -3409685.551 6  -2860791.986 6  22479632.453       -1889.589
 92 10 20 16 42 29.9990000  0  5 20  3 24 16 17                     -0.000441340
  12402958.409 7    870834.638 9  20446518.071        1536.509
  -2390727.819 6  -2002106.393 6  22101085.886       -1306.778
   4537456.258 6   3573954.568 5  23812191.782        3341.401
    748739.047 7    568801.579 8  21062240.663        1274.896
  -3466110.173 6  -2904759.179 6  22468895.240       -1872.414
 92 10 20 16 42 59.9990000  0  5 20  3 24 16 17                     -0.000430350
  12449473.659 8    907080.267 9  20455369.583        1564.640
  -2429780.893 6  -2032537.363 6  22093654.483       -1296.766
   4637820.118 5   3652160.044 5  23831290.351        3349.599
    787399.929 7    598926.920 8  21069597.661        1302.683
  -3522030.072 6  -2948333.094 6  22458253.562       -1855.345
 92 10 20 16 43 29.9990000  0  5 20  3 24 16 17                     -0.000419190
  12496825.150 7    943977.505 9  20464380.305        1592.144
  -2468540.928 6  -2062739.978 6  22086278.747       -1287.395
   4738419.533 6   3730549.084 5  23850433.619        3356.998
    826892.926 7    629700.683 8  21077112.818        1330.301
  -3577439.195 6  -2991509.024 6  22447709.097       -1838.555
 92 10 20 16 43 59.9990000  0  5 20  3 24 16 17                     -0.000407880
  12544991.394 7    981509.616 9  20473546.138        1619.298
  -2507028.303 6  -2092730.146 6  22078955.035       -1278.300
   4839223.796 5   3809097.701 5  23869616.012        3363.525
    867208.037 7    661115.033 8  21084784.628        1357.697
  -3632353.402 6  -3034299.280 5  22437259.176       -1822.037
 92 10 20 16 44 29.9990000  0  5 20  3 24 16 17                     -0.000396440
  12593983.853 7   1019685.536 9  20482869.345        1646.756
  -2545229.505 6  -2122497.301 6  22071685.512       -1268.776
   4940230.391 5   3887804.020 5  23888836.984        3370.313
    908356.353 7    693178.647 8  21092614.989        1385.398
  -3686768.366 6  -3076700.522 5  22426904.637       -1805.763
 92 10 20 16 44 59.9990000  0  5 20  3 24 16 17                     -0.000384870
  12643792.429 7   1058497.384 9  20492347.552        1673.911
  -2583153.087 6  -2152048.144 6  22064468.965       -1259.606
   5041440.154 5   3966668.649 5  23908096.948        3377.255
    950322.375 7    725879.422 8  21100600.790        1412.456
  -3740701.680 6  -3118726.491 5  22416641.451       -1789.737
 92 10 20 16 45 29.9990000  0  5 20  3 24 16 17                     -0.000373170
  12694412.075 7   1097941.218 9  20501980.044        1700.551
  -2620802.789 6  -2181385.564 6  22057304.298       -1250.801
   5142861.133 5   4045697.816 5  23927396.857        3383.941
    993095.130 7    759208.820 8  21108740.253        1438.759
  -3794160.172 6  -3160382.458 6  22406468.425       -1774.353
 92 10 20 16 45 59.9990000  0  5 20  3 24 16 17                     -0.000361330
  12745829.861 7   1138007.005 9  20511764.362        1727.362
  -2658189.805 6  -2210518.288 6  22050189.583       -1241.842
   5244480.622 5   4124881.695 5  23946734.361        3390.771
   1036648.209 7    793146.269 8  21117028.065        1464.675
  -3847160.787 6  -3201681.595 6  22396383.275       -1758.990
 92 10 20 16 46 29.9990000  0  5 20  3 24 16 17                     -0.000349380
  12798040.662 7   1178690.721 9  20521699.614        1753.807
  -2695317.853 6  -2239449.240 6  22043124.295       -1233.102
   5346300.763 5   4204221.941 5  23966109.897        3397.606
   1080964.621 7    827678.519 8  21125461.038        1490.126
  -3899721.518 6  -3242637.992 6  22386381.091       -1744.532
 92 10 20 16 46 59.9990000  0  5 20  3 24 16 17                     -0.000337290
  12851047.974 7   1219995.090 9  20531786.890        1780.060
  -2732181.896 6  -2268174.445 6  22036109.379       -1224.596
   5448324.969 5   4283721.166 5  23985524.426        3403.828
   1126042.606 7    862804.194 8  21134039.489        1515.090
  -3951833.857 6  -3283245.001 6  22376464.328       -1729.529
 92 10 20 16 47 29.9990000  0  5 20  3 24 16 17                     -0.000325080
  12904847.132 7   1261916.477 9  20542024.402        1806.482
  -2768784.941 6  -2296696.311 6  22029144.208       -1215.907
   5550527.918 5   4363359.687 5  24004972.895        3409.509
   1171877.469 7    898519.629 8  21142761.612        1540.581
  -4003488.430 6  -3323495.281 6  22366634.559       -1714.107
 92 10 20 16 47 59.9990000  0  5 20  3 24 16 17                     -0.000312740
  12959434.349 7   1304451.943 9  20552412.161        1832.720
  -2805128.507 6  -2325015.971 6  22022228.329       -1207.242
   5652897.423 5   4443127.978 5  24024453.188        3415.370
   1218480.808 7    934833.905 8  21151629.762        1566.361
  -4054678.137 6  -3363383.328 6  22356893.685       -1698.531
 92 10 20 16 48 29.9990000  0  5 20  3 24 16 17                     -0.000300280
  13014806.445 7   1347598.999 9  20562949.386        1858.926
  -2841214.368 6  -2353134.820 6  22015361.372       -1198.563
   5755450.009 5   4523038.929 5  24043968.047        3421.489
   1265863.055 7    971755.106 8  21160646.430        1592.689
  -4105402.286 6  -3402908.629 6  22347241.417       -1682.730
 92 10 20 16 48 59.9990000  0  5 20  3 24 16 17                     -0.000287700
  13070960.966 7   1391355.725 9  20573635.160        1884.738
  -2877043.146 6  -2381053.372 6  22008543.303       -1190.236
   5858182.218 5   4603089.839 5  24063516.665        3427.368
   1314036.001 7   1009292.433 8  21169813.194        1618.877
  -4155646.632 6  -3442060.075 6  22337679.666       -1666.930
 92 10 20 16 49 29.9990000  0  5 20  3 24 16 17                     -0.000274980
  13127891.895 7   1435717.451 9  20584468.760        1910.642
  -2912619.036 6  -2408774.847 6  22001773.299       -1181.731
   5961101.265 5   4683286.336 5  24083101.466        3434.066
   1362998.599 7   1047445.071 8  21179130.512        1645.283
  -4205423.451 6  -3480847.204 6  22328207.395       -1651.523
 92 10 20 16 49 59.9990000  0  5 20  3 24 16 17                     -0.000262100
  13185601.221 7   1480685.724 9  20595450.328        1936.547
  -2947938.277 6  -2436296.342 6  21995052.092       -1173.200
   6064240.343 5   4763654.325 5  24102728.880        3441.756
   1412751.272 7   1086213.372 8  21188598.169        1671.221
  -4254737.026 6  -3519273.326 6  22318823.192       -1636.172
 92 10 20 16 50 29.9990000  0  5 20  3 24 16 17                     -0.000249080
  13244084.547 7   1526257.097 9  20606579.452        1962.260
  -2983003.254 6  -2463619.706 6  21988379.341       -1164.741
   6167598.118 5   4844192.677 5  24122397.792        3448.472
   1463269.424 7   1125578.114 8  21198211.593        1696.554
  -4303595.385 6  -3557344.771 6  22309526.004       -1621.112
 92 10 20 16 50 59.9990000  0  5 20  3 24 16 17                     -0.000235920
  13303338.181 7   1572428.725 9  20617855.235        1987.684
  -3017815.322 6  -2490746.024 6  21981755.148       -1156.546
   6271149.219 5   4924881.698 5  24142103.349        3454.648
   1514539.496 7   1165528.783 8  21207968.139        1721.035
  -4352007.944 6  -3595068.828 6  22300313.521       -1606.673
 92 10 20 16 51 29.9990000  0  5 20  3 24 16 17                     -0.000222630
  13363351.926 7   1619192.641 9  20629275.301        2013.205
  -3052382.900 6  -2517681.788 6  21975177.352       -1148.161
   6374882.107 5   5005712.339 5  24161843.232        3460.878
   1566536.921 7   1206046.238 8  21217862.869        1745.429
  -4399983.743 6  -3632452.548 6  22291184.056       -1591.560
 92 10 20 16 51 59.9990000  0  5 20  3 24 16 17                     -0.000209200
  13424125.217 7   1666548.429 9  20640839.844        2038.126
  -3086704.541 6  -2544425.935 6  21968646.133       -1140.376
   6478788.004 5   5086677.837 5  24181616.244        3465.695
   1619255.472 7   1247125.609 8  21227894.935        1768.896
  -4447504.894 6  -3669481.956 6  22282140.918       -1576.803
 92 10 20 16 52 29.9990000  0  5 20  3 24 16 17                     -0.000195660
  13485648.440 7   1714488.554 9  20652547.579        2063.300
  -3120788.115 6  -2570984.571 6  21962160.363       -1132.234
   6582827.635 5   5167747.548 5  24201415.097        3470.082
   1672683.756 7   1288757.982 8  21238061.757        1792.941
  -4494588.772 6  -3706170.670 6  22273181.219       -1562.209
 92 10 20 16 52 59.9990000  0  5 20  3 24 16 17                     -0.000182020
  13547921.270 7   1763012.792 9  20664397.924        2088.314
  -3154631.913 6  -2597356.385 6  21955720.111       -1124.146
   6687000.839 5   5248921.303 5  24221238.260        3474.962
   1726828.575 7   1330948.725 8  21248365.242        1816.888
  -4541237.850 6  -3742520.613 6  22264303.900       -1547.558
 92 10 20 16 53 29.9990000  0  5 20  3 24 16 17                     -0.000168270
  13610946.286 7   1812123.164 9  20676391.253        2113.305
  -3188230.738 7  -2623537.285 6  21949326.467       -1116.027
   6791320.698 5   5330209.339 5  24241090.105        3479.677
   1781698.684 7   1373704.626 8  21258806.883        1841.083
  -4587442.128 6  -3778523.929 6  22255511.692       -1532.999
 92 10 20 16 53 59.9990000  0  5 20  3 24 16 17                     -0.000154420
  13674721.307 7   1861817.994 9  20688527.261        2138.126
  -3221584.400 7  -2649527.148 6  21942979.780       -1107.916
   6895782.001 5   5411607.645 5  24260968.093        3484.066
   1837293.471 7   1417025.204 8  21269386.309        1865.105
  -4633223.357 6  -3814197.599 6  22246799.472       -1519.459
 92 10 20 16 54 29.9990000  0  5 20  3 24 16 17                     -0.000140490
  13739237.543 7   1912090.289 9  20700804.470        2162.780
  -3254699.842 7  -2675331.412 6  21936678.094       -1100.063
   7000377.836 5   5493110.718 5  24280872.312        3488.985
   1893611.709 7   1460909.524 8  21280103.451        1889.333
  -4678605.516 6  -3849560.330 6  22238163.410       -1506.089
 92 10 20 16 54 59.9990000  0  5 20  3 24 16 17                     -0.000126460
  13804503.011 7   1962946.465 9  20713223.784        2188.113
  -3287567.168 7  -2700942.287 6  21930423.486       -1091.408
   7105136.109 5   5574740.451 5  24300807.499        3494.880
   1950674.046 7   1505373.645 8  21290961.773        1914.770
  -4723568.519 6  -3884596.395 6  22229607.277       -1491.449
 92 10 20 16 55 29.9990000  0  5 20  3 24 16 17                     -0.000112310
  13870518.689 7   2014387.225 9  20725786.477        2213.000
  -3320182.764 7  -2726357.062 6  21924216.899       -1083.070
   7210069.075 5   5656506.244 5  24320775.964        3500.883
   2008494.552 7   1550428.594 8  21301964.566        1940.058
  -4768092.513 6  -3919290.402 6  22221134.729       -1476.683
 92 10 20 16 55 59.9990000  0  5 20  3 24 16 17                     -0.000098020
  13937293.925 7   2066419.831 9  20738493.339        2238.443
  -3352534.944 7  -2751566.549 6  21918060.463       -1074.182
   7315198.834 5   5738425.451 5  24340781.868        3507.704
   2067089.154 7   1596086.674 8  21313114.528        1966.250
  -4812154.326 6  -3953624.272 6  22212750.043       -1460.746
 92 10 20 16 56 29.9990000  0  5 20  3 24 16 17                     -0.000083580
  14004821.301 7   2119038.516 9  20751343.633        2263.594
  -3384628.669 7  -2776574.643 6  21911953.493       -1065.420
   7420534.879 5   5820505.278 5  24360826.113        3514.759
   2126464.893 7   1642353.454 8  21324413.456        1992.231
  -4855735.299 6  -3987583.449 6  22204456.966       -1444.330
 92 10 20 16 56 59.9990000  0  5 20  3 24 16 17                     -0.000068980
  14073097.193 7   2172240.490 9  20764335.771        2288.100
  -3416465.613 7  -2801382.631 6  21905895.045       -1057.291
   7526075.240 5   5902744.394 5  24380909.379        3521.175
   2186610.788 7   1689220.373 8  21335859.162        2017.323
  -4898821.737 6  -4021157.266 6  22196258.100       -1428.233
 92 10 20 16 57 29.9990000  0  5 20  3 24 16 17                     -0.000054220
  14142112.552 7   2226018.652 9  20777469.077        2312.496
  -3448052.238 7  -2825995.600 6  21899884.336       -1049.061
   7631806.100 5   5985131.908 5  24401030.018        3527.141
   2247507.021 7   1736671.950 8  21347447.539        2041.945
  -4941429.626 6  -4054358.192 6  22188150.391       -1412.884
 92 10 20 16 57 59.9990000  0  5 20  3 24 16 17                     -0.000039340
  14211858.202 8   2280365.882 9  20790741.480        2337.002
  -3479395.063 7  -2850418.584 6  21893919.923       -1040.807
   7737699.970 5   6067646.474 5  24421181.209        3532.159
   2309132.722 7   1784691.950 8  21359174.282        2066.192
  -4983589.546 6  -4087210.054 6  22180127.706       -1398.187
 92 10 20 16 58 29.9990000  0  5 20  3 24 16 17                     -0.000024360
  14282328.682 7   2335277.898 9  20804151.276        2361.184
  -3510497.298 7  -2874654.087 6  21888001.324       -1032.735
   7843726.411 5   6150264.329 5  24441357.591        3536.318
   2371468.033 7   1833264.899 8  21371036.449        2089.544
  -5025331.422 6  -4119736.175 6  22172184.367       -1384.389
 92 10 20 16 58 59.9990000  0  5 20  3 24 16 17                     -0.000009320
  14353516.249 7   2390748.681 9  20817697.678        2384.910
  -3541364.038 7  -2898706.096 6  21882127.529       -1024.999
   7949862.913 5   6232967.928 5  24461554.026        3539.620
   2434499.597 7   1882380.377 8  21383031.095        2112.805
  -5066671.173 6  -4151948.924 6  22164317.694       -1371.331
 92 10 20 16 59 30.0000000  0  5 20  3 24 16 17                      0.000005800
  14425422.674 7   2446779.634 9  20831381.305        2408.602
  -3571994.768 7  -2922574.185 6  21876298.624       -1017.198
   8056105.319 5   6315754.076 5  24481771.574        3542.834
   2498235.382 7   1932044.606 8  21395159.520        2136.036
  -5107615.072 6  -4183853.236 6  22156525.988       -1358.039
 92 10 20 17  0  0.0000000  0  5 20  3 24 16 17                      0.000020990
  14498037.350 8   2503362.451 9  20845199.468        2432.407
  -3602390.262 7  -2946259.006 6  21870514.567       -1009.335
   8162441.474 5   6398613.303 5  24502007.056        3546.337
   2562661.234 7   1982246.540 8  21407419.242        2159.139
  -5148146.314 6  -4215435.997 6  22148812.596       -1343.927
 92 10 20 17  0 30.0000000  0  5 20  3 24 16 17                      0.000036270
  14571369.793 8   2560504.589 9  20859154.387        2456.407
  -3632542.098 7  -2969753.930 6  21864776.829       -1001.074
   8268897.834 5   6481566.134 5  24522265.050        3550.911
   2627790.742 7   2032996.798 8  21419813.051        2182.798
  -5188242.003 6  -4246679.361 6  22141182.959       -1328.844
 92 10 20 17  1  0.0000000  0  5 20  3 24 16 17                      0.000051680
  14645419.334 7   2618205.499 9  20873245.383        2480.213
  -3662448.157 7  -2993057.357 6  21859085.999        -992.905
   8375497.804 5   6564630.910 5  24542549.878        3555.879
   2693625.831 7   2084296.851 8  21432341.039        2206.082
  -5227877.952 6  -4277564.466 6  22133640.629       -1313.627
 92 10 20 17  1 30.0000000  0  5 20  3 24 16 17                      0.000067240
  14720185.481 7   2676464.790 9  20887472.914        2504.019
  -3692106.255 7  -3016167.570 6  21853441.938        -984.668
   8482252.200 5   6647816.012 5  24562864.731        3561.088
   2760155.722 7   2136138.301 8  21445001.323        2229.156
  -5267054.618 6  -4308091.706 6  22126185.471       -1298.347
 92 10 20 17  2  0.0000000  0  5 20  3 24 16 17                      0.000082920
  14795654.236 7   2735271.579 9  20901834.151        2527.303
  -3721527.791 7  -3039093.436 6  21847843.313        -976.845
   8589156.480 5   6731117.898 5  24583208.131        3565.855
   2827369.717 7   2188512.824 8  21457792.019        2251.946
  -5305789.079 6  -4338274.358 6  22118814.392       -1284.071
 92 10 20 17  2 30.0000000  0  5 20  3 24 16 17                      0.000098730
  14871820.302 7   2794621.712 9  20916328.196        2550.506
  -3750715.248 7  -3061836.911 6  21842289.367        -969.067
   8696200.852 5   6814528.907 5  24603578.698        3570.487
   2895269.395 7   2241421.660 8  21470713.015        2274.690
  -5344100.601 6  -4368127.468 6  22111523.953       -1269.900
 92 10 20 17  3  0.0000000  0  5 20  3 24 16 17                      0.000114640
  14948679.848 7   2854512.238 9  20930953.922        2573.855
  -3779669.552 7  -3084398.715 6  21836779.412        -961.043
   8803380.181 5   6898045.148 5  24623974.522        3575.090
   2963848.291 7   2294859.747 8  21483763.161        2297.616
  -5381992.925 6  -4397653.918 6  22104313.545       -1255.991
 92 10 20 17  3 30.0000000  0  5 20  3 24 16 17                      0.000130650
  15026244.830 7   2914952.447 9  20945713.974        2597.353
  -3808376.310 7  -3106767.640 6  21831317.014        -952.727
   8910690.091 5   6981663.033 5  24644394.315        3579.082
   3033123.071 7   2348840.080 8  21496945.474        2320.922
  -5419457.293 6  -4426846.920 6  22097184.387       -1241.374
 92 10 20 17  4  0.0000000  0  5 20  3 24 16 17                      0.000146760
  15104506.136 7   2975935.243 9  20960606.913        2620.220
  -3836841.283 7  -3128948.113 6  21825900.363        -944.983
   9018112.839 5   7065368.938 5  24664836.428        3582.514
   3103089.910 7   2403359.683 8  21510259.697        2343.588
  -5456490.555 6  -4455703.989 6  22090137.327       -1227.285
 92 10 20 17  4 30.0000000  0  5 20  3 24 16 17                      0.000162970
  15183453.940 7   3037452.970 9  20975630.284        2642.781
  -3865071.916 7  -3150946.037 6  21820528.132        -937.401
   9125641.742 5   7149157.486 5  24685298.411        3585.984
   3173729.404 7   2458403.429 8  21523701.882        2365.507
  -5493093.363 6  -4484225.648 6  22083172.107       -1213.115
 92 10 20 17  5  0.0000000  0  4 20  3 16 17                         0.000179950
  15263080.793 7   3099499.835 9  20990782.503        2665.362
  -3893072.667 7  -3172764.802 6  21815199.602        -929.797
   3245034.669 7   2513965.958 8  21537270.878        2387.823
  -5529272.633 6  -4512417.280 6  22076287.615       -1199.174
 92 10 20 17  5 30.0000000  0  4 20  3 16 17                         0.000196590
  15343380.429 7   3162070.949 9  21006062.925        2687.566
  -3920846.692 7  -3194406.893 6  21809914.110        -922.345
   3317006.159 7   2570047.613 8  21550966.706        2409.878
  -5565035.481 6  -4540284.430 6  22069482.108       -1185.467
 92 10 20 17  6  0.0000000  0  4 20  3 16 17                         0.000213310
  15424347.072 7   3225161.806 9  21021470.599        2710.092
  -3948397.038 7  -3215874.693 6  21804671.740        -914.595
   3389638.077 7   2626643.897 8  21564788.007        2432.094
  -5600399.217 6  -4567840.560 6  22062752.313       -1172.284
 92 10 20 17  6 30.0000000  0  4 20  3 16 17                         0.000230040
  15505979.659 7   3288771.572 9  21037004.926        2732.015
  -3975721.548 7  -3237166.511 6  21799472.131        -907.282
   3462922.205 7   2683748.390 8  21578733.594        2453.561
  -5635383.616 6  -4595101.106 6  22056094.665       -1160.192
 92 10 20 17  7  0.0000000  0  4 20  3 16 17                         0.000246740
  15588266.819 7   3352891.388 9  21052663.647        2753.999
  -4002828.974 7  -3258289.185 6  21794313.632        -899.859
   3536854.459 7   2741357.898 8  21592802.083        2475.403
  -5670008.153 6  -4622081.256 6  22049505.845       -1147.928
 92 10 20 17  7 30.0000000  0  4 20  3 16 17                         0.000263400
  15671227.972 7   3417536.402 9  21068450.455        2776.406
  -4029696.518 7  -3279224.930 6  21789201.011        -891.830
   3611447.695 7   2799482.459 8  21606996.688        2497.151
  -5704250.602 6  -4648763.671 6  22042989.507       -1135.219
 92 10 20 17  8  0.0000000  0  4 20  3 16 17                         0.000280000
  15754854.638 7   3482699.985 9  21084364.449        2798.615
  -4056329.496 7  -3299977.891 6  21784132.690        -883.941
   3686687.859 7   2858111.131 8  21621314.286        2518.846
  -5738116.587 6  -4675152.735 6  22036545.017       -1122.439
 92 10 20 17  8 30.0000000  0  4 20  3 16 17                         0.000296650
  15839136.787 7   3548374.349 9  21100402.785        2820.360
  -4082735.305 7  -3320553.825 6  21779108.087        -876.458
   3762576.392 7   2917245.016 8  21635755.508        2540.615
  -5771591.442 6  -4701237.035 6  22030174.838       -1109.134
 92 10 20 17  9  0.0000000  0  4 20  3 16 17                         0.000313420
  15924070.223 7   3614556.209 9  21116564.906        2841.918
  -4108914.521 7  -3340953.205 6  21774126.295        -869.002
   3839119.431 7   2976888.905 8  21650321.254        2562.174
  -5804661.558 6  -4727005.947 6  22023881.716       -1095.537
 92 10 20 17  9 30.0000000  0  5 20  3 26 16 17                      0.000330410
  16009654.772 7   3681245.419 9  21132851.401        2863.628
  -4134864.238 7  -3361173.758 6  21769188.115        -861.254
   -106021.10915    -80070.53411  24352887.000       -1537.092
   3916311.234 7   3037038.312 8  21665010.296        2583.979
  -5837317.512 6  -4752452.126 6  22017667.686       -1081.530
 92 10 20 17 10  0.0000000  0  5 20  3 26 16 17                      0.000347620
  16095891.932 7   3748443.166 9  21149261.891        2885.446
  -4160580.124 7  -3381212.105 6  21764294.513        -853.398
   -152026.752 5   -115918.947 3  24344131.846       -1529.774
   3994162.593 7   3097701.679 8  21679825.198        2606.008
  -5869545.110 6  -4777564.512 6  22011534.930       -1067.052
 92 10 20 17 10 30.0000000  0  5 20  3 26 16 17                      0.000364930
  16182786.276 7   3816152.990 9  21165797.363        2907.183
  -4186053.866 7  -3401061.763 7  21759446.908        -845.371
   -197803.606 5   -151589.223 4  24335420.756       -1522.270
   4072673.192 7   3158878.717 8  21694765.327        2627.564
  -5901336.970 6  -4802337.380 6  22005485.092       -1052.927
 92 10 20 17 11  0.0000000  0  5 20  3 26 16 17                      0.000382330
  16270334.245 7   3884372.148 9  21182457.060        2929.127
  -4211285.928 7  -3420723.093 7  21754645.362        -837.122
   -243345.546 5   -187076.459 4  24326754.633       -1513.897
   4151823.603 7   3220554.330 8  21709827.080        2648.919
  -5932713.096 6  -4826786.275 6  21999514.493       -1038.890
 92 10 20 17 11 30.0000000  0  5 20  3 26 16 17                      0.000399840
  16358529.435 7   3953095.633 9  21199240.141        2950.475
  -4236279.474 7  -3440198.578 7  21749889.324        -829.321
   -288637.126 5   -222368.478 5  24318135.764       -1505.529
   4231611.055 7   3282726.328 8  21725010.388        2670.283
  -5963675.321 6  -4850912.651 7  21993622.959       -1025.213
 92 10 20 17 12  0.0000000  0  5 20  3 26 16 17                      0.000417450
  16447363.149 7   4022316.659 9  21216144.959        2971.773
  -4261039.833 7  -3459492.364 7  21745177.516        -821.467
   -333687.104 5   -257472.309 5  24309563.029       -1497.735
   4312034.309 7   3345393.766 8  21740314.603        2691.170
  -5994229.982 6  -4874721.467 7  21987808.665       -1011.786
 92 10 20 17 12 30.0000000  0  5 20  3 26 16 17                      0.000435140
  16536832.605 7   4092033.064 9  21233170.093        2992.569
  -4285566.436 7  -3478604.018 7  21740510.427        -814.024
   -378498.320 5   -292390.014 5  24301034.787       -1490.076
   4393080.509 7   3408546.601 8  21755737.235        2711.652
  -6024388.451 6  -4898221.570 7  21982069.459        -999.137
 92 10 20 17 13  0.0000000  0  4 20  3 16 17                         0.000452800
  16626931.399 7   4162239.857 9  21250315.422        3013.773
  -4309861.736 7  -3497535.412 7  21735887.389        -806.115
   4474747.237 7   3472182.979 8  21771277.939        2732.673
  -6054160.192 6  -4921420.290 7  21976404.074        -985.820
 92 10 20 17 13 30.0000000  0  4 20  3 16 17                         0.000470640
  16717659.682 7   4232937.178 9  21267580.671        3034.524
  -4333923.021 7  -3516284.459 7  21731308.749        -798.421
   4557041.042 7   3536307.987 8  21786937.798        2753.282
  -6083536.806 6  -4944311.117 7  21970814.192        -972.873
 92 10 20 17 14  0.0000000  0  4 20  3 16 17                         0.000488510
  16809006.321 7   4304116.344 9  21284963.267        3055.329
  -4357757.754 7  -3534856.983 7  21726773.049        -790.618
   4639940.797 7   3600905.166 8  21802713.217        2773.382
  -6112529.663 6  -4966902.938 7  21965296.702        -959.874
 92 10 20 17 14 30.0000000  0  4 20  3 16 17                         0.000506410
  16900977.901 7   4375782.446 9  21302464.702        3076.036
  -4381355.959 7  -3553245.192 7  21722282.346        -782.859
   4723448.947 7   3665976.415 8  21818603.993        2793.842
  -6141130.020 6  -4989188.928 7  21959854.091        -946.709
 92 10 20 17 15  0.0000000  0  4 20  3 16 17                         0.000524460
  16993571.363 7   4447933.151 9  21320084.613        3096.506
  -4404716.915 7  -3571448.526 7  21717836.806        -775.158
   4807572.211 7   3731526.985 8  21834612.123        2814.134
  -6169319.755 6  -5011154.931 7  21954489.833        -932.912
 92 10 20 17 15 30.0000000  0  4 20  3 16 17                         0.000542740
  17086778.312 7   4520561.898 9  21337821.474        3117.300
  -4427845.815 7  -3589471.059 7  21713435.503        -767.011
   4892310.799 7   3797557.020 7  21850737.498        2834.993
  -6197089.313 6  -5032793.544 7  21949205.210        -918.385
 92 10 20 17 16  0.0000000  0  4 20  3 16 17                         0.000561290
  17180592.829 7   4593664.070 9  21355673.845        3137.232
  -4450744.976 7  -3607314.561 7  21709077.968        -759.617
   4977657.001 7   3864060.513 7  21866978.266        2854.993
  -6224435.081 6  -5054101.935 7  21944001.502        -904.603
 92 10 20 17 16 30.0000000  0  5 20  3 26 16 17                      0.000579750
  17275015.227 7   4667239.902 9  21373641.956        3157.454
  -4473410.614 7  -3624976.089 7  21704765.044        -751.731
      -699.35215     -7767.88511  24234453.800       -1422.531
   5063616.918 7   3931042.250 7  21883335.853        2875.631
  -6251366.499 6  -5075087.426 7  21938876.752        -890.970
 92 10 20 17 17  0.0000000  0  5 20  3 26 16 17                      0.000598300
  17370042.545 7   4741287.116 9  21391725.236        3177.548
  -4495841.928 7  -3642455.034 7  21700496.501        -743.966
    -43238.511 5    -40916.478 1  24226358.161       -1413.671
   5150194.470 7   3998505.262 7  21899811.116        2896.058
  -6277893.626 6  -5095757.901 7  21933828.818        -877.875
 92 10 20 17 17 30.0000000  0  5 20  3 26 16 17                      0.000616930
  17465673.267 7   4815804.508 9  21409923.149        3197.753
  -4518037.025 7  -3659749.915 7  21696272.633        -735.901
    -85519.915 5    -73862.886 2  24218312.429       -1405.145
   5237380.280 7   4066442.206 7  21916401.950        2916.114
  -6304043.610 6  -5116134.516 7  21928852.532        -865.648
 92 10 20 17 18  0.0000000  0  5 20  3 26 16 17                      0.000635610
  17561905.264 7   4890790.433 9  21428235.431        3217.712
  -4539993.792 7  -3676859.076 7  21692094.414        -728.003
   -127548.864 5   -106612.527 4  24210314.756       -1396.715
   5325158.619 7   4134840.908 7  21933105.668        2935.810
  -6329841.978 6  -5136237.122 7  21923943.278        -854.364
 92 10 20 17 18 30.0000000  0  5 20  3 26 16 17                      0.000654330
  17658737.771 7   4966244.277 9  21446662.105        3237.693
  -4561709.685 7  -3693780.544 7  21687962.155        -719.998
   -169322.176 5   -139162.963 4  24202365.440       -1388.503
   5413528.874 7   4203700.801 7  21949921.983        2955.402
  -6355304.555 6  -5156078.077 7  21919097.735        -842.995
 92 10 20 17 19  0.0000000  0  5 20  3 26 16 17                      0.000673090
  17756162.034 7   5042159.240 9  21465201.639        3257.028
  -4583189.531 7  -3710518.066 7  21683874.926        -712.444
   -210857.136 5   -171527.743 5  24194461.663       -1380.689
   5502475.963 7   4273010.220 7  21966848.189        2974.041
  -6380418.708 6  -5175647.545 7  21914318.701        -831.477
 92 10 20 17 19 30.0000000  0  5 20  3 26 16 17                      0.000691910
  17854174.626 7   5118532.629 9  21483852.558        3276.874
  -4604432.984 7  -3727071.402 7  21679832.395        -704.187
   -252144.098 5   -203699.259 5  24186605.033       -1371.959
   5591987.798 7   4342759.681 7  21983881.815        2993.215
  -6405171.390 6  -5194935.343 7  21909608.454        -818.828
 92 10 20 17 20  0.0000000  0  5 20  3 26 16 17                      0.000710790
  17952774.266 7   5195363.455 9  21502615.417        3296.375
  -4625438.132 7  -3743439.045 7  21675835.112        -696.343
   -293173.430 5   -235670.015 5  24178796.835       -1363.358
   5682077.397 7   4412959.335 7  22001025.168        3012.692
  -6429546.589 6  -5213928.967 7  21904969.966        -806.124
 92 10 20 17 20 30.0000000  0  5 20  3 26 16 17                      0.000729730
  18051960.929 7   5272651.722 9  21521490.043        3316.131
  -4646200.882 7  -3759617.801 7  21671883.816        -687.967
   -333946.663 5   -267441.206 5  24171038.024       -1354.637
   5772757.124 7   4483618.836 7  22018281.141        3032.608
  -6453525.444 6  -5232613.787 7  21900407.174        -792.265
 92 10 20 17 21  0.0000000  0  5 20  3 26 16 17                      0.000748750
  18151735.490 7   5350398.071 9  21540476.598        3335.696
  -4666716.625 7  -3775604.083 7  21667979.700        -679.716
   -374446.939 5   -298999.739 5  24163330.809       -1345.027
   5864035.315 7   4554744.681 7  22035650.927        3052.811
  -6477093.130 6  -5250978.186 7  21895922.258        -778.780
 92 10 20 17 21 30.0000000  0  5 20  3 26 16 17                      0.000767860
  18252090.510 7   5428596.714 8  21559573.778        3354.769
  -4686988.955 7  -3791400.698 7  21664122.030        -671.804
   -414658.912 5   -330333.622 5  24155679.101       -1335.574
   5955915.229 7   4626339.400 7  22053135.152        3072.779
  -6500268.583 6  -5269036.988 7  21891512.302        -766.153
 92 10 20 17 22  0.0000000  0  6 20  3 26 16 17 23                   0.000787200
  18353022.558 7   5507245.018 8  21578780.629        3373.938
  -4707017.539 7  -3807007.378 7  21660310.769        -663.717
   -454574.354 5   -361436.427 5  24148083.608       -1325.448
   6048396.240 7   4698402.498 7  22070733.808        3092.387
  -6523059.500 6  -5286796.085 7  21887175.703        -753.236
  -1319332.49015   -216855.38313  24028830.325       -2477.577
 92 10 20 17 22 30.0000000  0  6 20  3 26 16 17 23                   0.000806580
  18454529.651 7   5586341.396 8  21598096.880        3392.889
  -4726800.212 7  -3822422.433 7  21656546.057        -655.666
   -494179.446 5   -392297.410 5  24140546.917       -1315.127
   6141452.882 7   4770914.133 7  22088441.900        3111.127
  -6545453.695 6  -5304246.091 7  21882914.254        -739.988
  -1393507.553 5   -274654.004 5  24014714.896       -2467.762
 92 10 20 17 23  0.0000000  0  6 20  3 26 16 17 23                   0.000826080
  18556603.655 7   5665879.517 8  21617520.801        3411.754
  -4746341.363 7  -3837649.308 7  21652827.639        -647.606
   -533474.341 5   -422916.733 5  24133069.434       -1304.910
   6235066.077 7   4843859.429 7  22106256.037        3129.488
  -6567449.962 6  -5321386.027 7  21878728.361        -726.801
  -1467396.066 5   -332229.345 5  24000654.292       -2458.527
 92 10 20 17 23 30.0000000  0  6 20  3 26 16 17 23                   0.000845660
  18659239.865 7   5745855.738 8  21637051.952        3430.618
  -4765641.704 7  -3852688.507 7  21649154.993        -639.342
   -572467.882 5   -453301.207 5  24125649.391       -1294.732
   6329221.135 7   4917226.970 7  22124173.062        3147.457
  -6589054.233 6  -5338220.496 7  21874617.109        -713.499
  -1541022.217 5   -389600.260 5  23986643.711       -2450.143
 92 10 20 17 24  0.0000000  0  6 20  3 26 16 17 23                   0.000865320
  18762437.880 7   5826269.701 8  21656689.865        3449.370
  -4784697.756 7  -3867537.384 7  21645528.810        -631.134
   -611162.667 5   -483452.926 5  24118285.359       -1284.791
   6423908.539 7   4991009.307 7  22142191.411        3165.176
  -6610260.035 6  -5354744.479 7  21870581.502        -700.191
  -1614400.979 5   -446778.434 5  23972680.252       -2441.582
 92 10 20 17 24 30.0000000  0  6 20  3 26 16 17 23                   0.000885050
  18866196.184 7   5907120.269 8  21676434.696        3467.803
  -4803506.630 7  -3882193.643 7  21641949.821        -623.047
   -649559.898 5   -513372.748 5  24110978.226       -1275.099
   6519133.444 7   5065210.480 7  22160312.124        3183.270
  -6631079.607 6  -5370967.491 7  21866619.533        -687.827
  -1687521.259 5   -503755.176 5  23958765.640       -2433.073
 92 10 20 17 25  0.0000000  0  6 20  3 26 16 17 23                   0.000904840
  18970508.106 7   5988402.232 8  21696284.633        3486.345
  -4822071.434 7  -3896659.720 7  21638417.036        -614.753
   -687666.506 5   -543066.148 5  24103726.568       -1265.155
   6614908.188 7   5139840.098 7  22178537.459        3201.730
  -6651538.192 7  -5386909.236 7  21862726.468        -676.122
  -1760387.787 5   -560534.166 5  23944899.696       -2424.527
 92 10 20 17 25 30.0000000  0  6 20  3 26 16 17 23                   0.000924700
  19075382.986 7   6070122.851 8  21716241.409        3505.098
  -4840378.547 7  -3910924.993 7  21634933.008        -606.084
   -725456.407 5   -572512.704 5  24096535.308       -1254.466
   6711249.441 7   5214911.151 7  22196870.657        3220.699
  -6671640.274 7  -5402573.157 7  21858901.337        -664.254
  -1832982.817 5   -617101.631 5  23931084.874       -2415.240
 92 10 20 17 26  0.0000000  0  6 20  3 26 16 17 23                   0.000944630
  19180821.655 7   6152282.796 8  21736305.828        3523.919
  -4858423.356 7  -3924985.882 7  21631499.055        -597.281
   -762931.822 5   -601714.270 5  24089403.792       -1244.049
   6808154.652 7   5290421.635 7  22215310.851        3239.519
  -6691386.425 7  -5417959.755 7  21855143.669        -652.402
  -1905291.032 5   -673445.616 5  23917325.500       -2405.234
 92 10 20 17 26 30.0000000  0  6 20  3 26 16 17 23                   0.000964640
  19286816.396 7   6234876.043 8  21756476.064        3542.492
  -4876209.221 7  -3938844.995 7  21628114.348        -588.466
   -800103.557 5   -630679.139 5  24082330.376       -1233.960
   6905618.543 7   5366367.470 7  22233857.781        3258.191
  -6710772.508 7  -5433065.754 7  21851454.603        -639.688
  -1977302.285 5   -729558.181 5  23903622.086       -2395.362
 92 10 20 17 27  0.0000000  0  6 20  3 26 16 17 23                   0.000984740
  19393374.171 7   6317907.997 8  21776753.157        3561.068
  -4893725.035 7  -3952493.682 7  21624781.128        -579.649
   -836966.495 5   -659403.436 5  24075315.900       -1223.812
   7003642.587 7   5442749.740 7  22252511.357        3276.522
  -6729761.609 7  -5447862.439 7  21847841.184        -626.421
  -2049011.130 5   -785435.122 5  23889976.424       -2385.469
 92 10 20 17 27 30.0010000  0  6 20  3 26 16 17 23                   0.001004910
  19500488.692 7   6401373.821 8  21797136.367        3579.616
  -4910977.140 7  -3965936.872 7  21621498.259        -570.688
   -873532.786 5   -687896.529 5  24068357.805       -1213.927
   7102219.405 7   5519562.787 7  22271270.000        3294.935
  -6748342.723 7  -5462341.186 7  21844305.042        -612.359
  -2120425.904 5   -841082.898 5  23876386.904       -2375.604
 92 10 20 17 28  0.0010000  0  6 20  3 26 16 17 23                   0.001025150
  19608146.413 7   6485262.883 8  21817623.264        3597.859
  -4927966.917 7  -3979175.683 7  21618265.505        -561.900
   -909810.282 5   -716164.602 5  24061454.312       -1203.931
   7201339.924 7   5596799.476 7  22290131.673        3313.497
  -6766502.896 7  -5476491.961 7  21840848.965        -597.985
  -2191557.331 5   -896509.915 5  23862851.123       -2366.203
 92 10 20 17 28 30.0010000  0  6 20  3 26 16 17 23                   0.001045470
  19716350.716 7   6569577.853 8  21838213.760        3615.840
  -4944690.644 7  -3992207.152 7  21615083.250        -553.147
   -945771.292 5   -744186.027 5  24054611.229       -1193.338
   7301024.861 7   5674475.977 7  22309101.172        3332.205
  -6784224.452 7  -5490300.944 7  21837476.858        -583.503
  -2262413.990 5   -951722.839 5  23849367.298       -2357.532
 92 10 20 17 29  0.0010000  0  6 20  3 26 16 17 23                   0.001065850
  19825093.505 7   6654312.446 8  21858907.282        3633.840
  -4961152.461 7  -4005034.528 7  21611950.888        -544.335
   -981409.030 5   -771955.546 5  24047829.893       -1182.275
   7401270.248 7   5752589.198 7  22328177.464        3350.900
  -6801528.957 7  -5503784.961 7  21834183.937        -570.125
  -2333009.962 5  -1006732.620 5  23835933.496       -2348.643
 92 10 20 17 29 30.0010000  0  6 20  3 26 16 17 23                   0.001086280
  19934368.350 7   6739461.612 8  21879701.498        3651.256
  -4977354.475 7  -4017659.478 7  21608867.473        -535.883
  -1016716.215 5   -799467.517 5  24041111.249       -1171.415
   7502066.853 7   5831131.919 7  22347358.843        3368.902
  -6818446.315 7  -5516967.298 7  21830964.677        -557.679
  -2403340.982 5  -1061535.961 5  23822549.846       -2339.793
 92 10 20 17 30  0.0010000  0  6 20  3 26 16 17 23                   0.001106770
  20044159.598 7   6825013.176 8  21900593.913        3668.587
  -4993308.065 7  -4030090.839 7  21605831.755        -527.414
  -1051701.231 5   -826728.378 5  24034453.074       -1160.430
   7603385.439 7   5910081.411 7  22366639.297        3386.122
  -6835001.113 7  -5529867.116 7  21827813.821        -545.619
  -2473397.887 5  -1116125.650 5  23809218.643       -2330.075
 92 10 20 17 30 30.0010000  0  6 20  3 26 16 17 23                   0.001127340
  20154473.693 7   6910972.135 8  21921585.891        3686.150
  -5009002.453 7  -4042320.246 7  21602845.171        -518.560
  -1086355.148 5   -853731.256 5  24027858.128       -1149.529
   7705221.104 6   5989433.794 7  22386017.635        3403.274
  -6851195.970 7  -5542486.464 7  21824732.269        -533.571
  -2543146.484 5  -1170475.138 5  23795945.299       -2319.282
 92 10 20 17 31  0.0010000  0  6 20  3 26 16 17 23                   0.001148010
  20265319.751 7   6997345.613 8  21942679.360        3703.516
  -5024424.128 7  -4054337.145 7  21599910.493        -509.810
  -1120684.979 5   -880481.634 5  24021325.073       -1139.112
   7807566.798 6   6069183.604 7  22405493.229        3419.724
  -6867031.430 7  -5554825.766 7  21821718.990        -521.920
  -2612555.033 5  -1224559.672 5  23782736.797       -2307.851
 92 10 20 17 31 30.0010000  0  6 20  3 26 16 17 23                   0.001168780
  20376684.986 7   7084123.654 8  21963871.607        3720.683
  -5039581.842 7  -4066148.323 7  21597026.239        -501.066
  -1154703.392 5   -906989.328 5  24014851.274       -1129.036
   7910406.460 7   6149318.355 7  22425063.020        3436.176
  -6882498.686 7  -5566878.174 7  21818775.625        -509.306
  -2681617.127 5  -1278374.244 5  23769594.553       -2296.363
 92 10 20 17 32  0.0010000  0  6 20  3 26 16 17 23                   0.001189670
  20488550.644 7   7171291.643 8  21985159.140        3736.904
  -5054490.013 7  -4077765.092 7  21594189.364        -493.135
  -1188429.884 5   -933269.535 5  24008433.587       -1119.508
   8013731.995 7   6229831.709 7  22444725.320        3452.226
  -6897596.859 6  -5578642.965 7  21815902.513        -497.338
  -2750350.809 5  -1331932.902 5  23756514.827       -2286.070
 92 10 20 17 32 30.0010000  0  6 20  3 26 16 17 23                   0.001210630
  20600910.760 7   7258844.906 8  22006540.339        3753.447
  -5069150.227 7  -4089188.648 7  21591399.185        -484.781
  -1221860.152 5   -959318.897 5  24002071.980       -1109.496
   8117554.275 7   6310732.120 7  22464482.174        3468.950
  -6912330.571 7  -5590123.778 7  21813099.060        -485.156
  -2818780.147 5  -1385254.403 5  23743493.443       -2276.061
 92 10 20 17 33  0.0010000  0  6 20  3 26 16 17 23                   0.001231670
  20713764.228 7   7346782.594 8  22028016.032        3769.786
  -5083559.429 7  -4100416.594 7  21588656.884        -476.339
  -1254981.023 5   -985127.198 5  23995769.815       -1098.731
   8221878.127 7   6392023.382 7  22484334.558        3485.763
  -6926701.740 7  -5601322.064 7  21810364.647        -473.167
  -2886904.680 6  -1438338.434 5  23730529.986       -2266.020
 92 10 20 17 33 30.0010000  0  6 20  3 26 16 17 23                   0.001252790
  20827115.563 7   7435108.245 8  22049586.139        3787.303
  -5097708.719 7  -4111442.000 7  21585964.459        -466.703
  -1287760.144 5  -1010669.221 5  23989531.514       -1086.151
   8326724.340 6   6473721.682 7  22504286.267        3504.327
  -6940705.307 7  -5612233.936 7  21807699.701        -460.241
  -2954729.829 5  -1491189.121 5  23717623.484       -2255.329
 92 10 20 17 34  0.0010000  0  6 20  3 26 16 17 23                   0.001273980
  20940984.899 7   7523837.525 7  22071254.729        3804.074
  -5111573.312 7  -4122245.578 7  21583326.205        -457.651
  -1320152.775 5  -1035910.104 5  23983366.873       -1073.166
   8432117.298 6   6555846.015 7  22524341.611        3521.986
  -6954343.609 7  -5622861.161 7  21805104.232        -448.945
  -3022247.656 5  -1543800.377 5  23704775.135       -2245.614
 92 10 20 17 34 30.0010000  0  6 20  3 26 16 17 23                   0.001295230
  21055355.891 7   7612957.707 7  22093018.551        3820.434
  -5125165.055 7  -4132836.532 7  21580739.703        -448.918
  -1352156.884 5  -1060848.214 5  23977276.277       -1060.743
   8538034.694 6   6638379.000 7  22544497.229        3538.871
  -6967641.753 7  -5633223.358 8  21802573.730        -437.761
  -3089467.081 5  -1596179.100 5  23691983.519       -2235.802
 92 10 20 17 35  0.0010000  0  6 20  3 26 16 17 23                   0.001316540
  21170209.383 7   7702453.854 7  22114874.682        3836.296
  -5138498.622 7  -4143226.336 7  21578202.271        -440.388
  -1383787.661 5  -1085495.420 5  23971256.943       -1048.126
   8644457.137 6   6721305.547 7  22564748.899        3555.676
  -6980607.764 7  -5643326.725 7  21800106.739        -426.822
  -3156394.737 5  -1648330.464 5  23679247.630       -2226.414
 92 10 20 17 35 30.0010000  0  6 20  3 26 16 17 23                   0.001337910
  21285545.622 7   7792326.182 7  22136822.376        3852.541
  -5151569.311 7  -4153411.268 7  21575715.023        -431.460
  -1415043.073 5  -1109850.159 5  23965309.472       -1036.013
   8751388.380 6   6804628.561 7  22585097.203        3572.663
  -6993233.714 7  -5653165.103 8  21797704.204        -415.270
  -3223037.629 5  -1700259.920 5  23666565.737       -2216.669
 92 10 20 17 36  0.0010000  0  6 20  3 26 16 17 23                   0.001359320
  21401355.986 7   7882567.935 7  22158860.500        3867.926
  -5164381.681 7  -4163394.950 7  21573277.550        -423.144
  -1445951.492 5  -1133934.516 5  23959427.503       -1024.959
   8858809.943 6   6888333.621 7  22605538.851        3588.513
  -7005521.355 7  -5662739.894 8  21795365.144        -403.981
  -3289385.689 6  -1751959.659 5  23653940.158       -2206.695
 92 10 20 17 36 30.0010000  0  6 20  3 26 16 17 23                   0.001380810
  21517626.087 7   7973167.965 7  22180985.911        3883.347
  -5176945.310 7  -4173184.787 7  21570886.477        -414.673
  -1476544.013 5  -1157772.700 5  23953605.757       -1014.714
   8966705.260 6   6972407.867 7  22626070.369        3604.460
  -7017455.673 7  -5672039.345 8  21793094.075        -391.737
  -3355436.762 6  -1803427.963 5  23641371.111       -2196.731
 92 10 20 17 37  0.0010000  0  6 20  3 26 16 17 23                   0.001402340
  21634347.795 7   8064119.865 7  22203197.428        3898.314
  -5189263.876 7  -4182783.661 7  21568542.488        -406.552
  -1506833.043 5  -1181374.424 5  23947842.495       -1004.497
   9075064.748 6   7056843.787 7  22646690.743        3619.622
  -7029040.037 7  -5681066.117 8  21790889.762        -380.362
  -3421199.284 6  -1854671.410 5  23628856.753       -2187.243
 92 10 20 17 37 30.0010000  0  6 20  3 26 16 17 23                   0.001423910
  21751515.516 7   8155419.316 7  22225493.858        3913.315
  -5201338.629 7  -4192192.564 7  21566244.609        -398.151
  -1536828.257 5  -1204747.227 5  23942134.371        -994.707
   9183870.479 7   7141627.417 7  22667396.158        3634.493
  -7040280.686 7  -5689825.065 8  21788750.370        -368.522
  -3486680.710 5  -1905695.834 5  23616395.895       -2177.597
 92 10 20 17 38  0.0010000  0  6 20  3 26 16 17 23                   0.001445550
  21869140.322 7   8247074.918 7  22247877.336        3928.457
  -5213153.656 7  -4201399.074 7  21563996.266        -389.587
  -1566509.708 5  -1227875.497 5  23936486.020        -983.913
   9293121.375 6   7226757.942 7  22688185.687        3648.953
  -7051154.058 7  -5698297.802 8  21786681.575        -356.306
  -3551856.478 5  -1956482.052 5  23603993.226       -2167.448
 92 10 20 17 38 30.0010000  0  6 20  3 26 16 17 23                   0.001467240
  21987224.909 7   8339088.816 7  22270347.858        3943.727
  -5224701.495 7  -4210397.400 7  21561798.507        -380.610
  -1595856.281 5  -1250742.849 5  23930901.187        -972.581
   9402811.708 6   7312230.873 7  22709058.848        3663.537
  -7061659.170 7  -5706483.596 8  21784682.788        -344.247
  -3616724.611 5  -2007028.582 5  23591649.228       -2157.156
 92 10 20 17 39  0.0010000  0  6 20  3 26 16 17 23                   0.001489000
  22105762.314 7   8431455.548 7  22292904.983        3958.674
  -5235984.537 7  -4219189.371 7  21559651.304        -371.848
  -1624859.664 5  -1273342.789 5  23925382.002        -961.136
   9512934.310 6   7398040.651 7  22730014.546        3677.896
  -7071808.951 7  -5714392.496 8  21782751.386        -332.480
  -3681279.608 6  -2057331.109 5  23579364.886       -2146.507
 92 10 20 17 39 30.0010000  0  6 20  3 26 16 17 23                   0.001510830
  22224743.216 6   8524167.849 7  22315546.100        3973.388
  -5247007.764 7  -4227778.903 8  21557553.737        -363.235
  -1653520.734 5  -1295676.017 5  23919928.056        -949.445
   9623489.685 6   7484187.624 7  22751052.594        3692.492
  -7081605.901 7  -5722026.492 8  21780886.958        -320.598
  -3745515.592 6  -2107385.064 5  23567141.356       -2135.826
 92 10 20 17 40  0.0010000  0  6 20  3 26 16 17 23                   0.001532750
  22344154.658 7   8617215.668 7  22338269.558        3987.511
  -5257779.910 7  -4236172.779 8  21555503.825        -354.990
  -1681834.505 5  -1317738.623 5  23914540.318        -938.034
   9734470.802 6   7570666.357 7  22772171.952        3706.475
  -7091061.387 7  -5729394.368 8  21779087.522        -309.745
  -3809431.737 6  -2157189.750 5  23554978.210       -2125.134
 92 10 20 17 40 30.0010000  0  6 20  3 26 16 17 23                   0.001554740
  22463997.716 6   8710599.791 7  22361075.029        4001.936
  -5268294.445 7  -4244365.910 8  21553503.022        -346.298
  -1709803.126 5  -1339532.272 5  23909217.672        -926.556
   9845893.580 6   7657489.253 6  22793374.984        3721.674
  -7100184.921 7  -5736503.595 8  21777351.322        -298.650
  -3873029.443 6  -2206746.327 5  23542875.967       -2114.747
 92 10 20 17 41  0.0010000  0  6 20  3 26 16 17 23                   0.001576770
  22584258.725 6   8804309.573 7  22383959.698        4015.656
  -5278560.764 7  -4252365.661 8  21551549.433        -338.126
  -1737438.327 5  -1361066.150 5  23903958.231        -915.581
   9957764.349 6   7744661.184 6  22814663.219        3736.423
  -7108990.502 7  -5743365.088 8  21775675.792        -288.386
  -3936336.729 6  -2256076.598 5  23530828.656       -2105.654
 92 10 20 17 41 30.0010000  0  6 20  3 26 16 17 23                   0.001598810
  22704931.617 6   8898340.334 7  22406923.059        4029.219
  -5288580.181 7  -4260172.983 8  21549642.753        -329.949
  -1764738.829 6  -1382339.214 5  23898762.760        -904.293
  10070075.598 6   7832176.390 6  22836035.381        3750.895
  -7117491.344 7  -5749989.091 8  21774058.174        -278.321
  -3999377.831 6  -2305199.441 5  23518832.122       -2097.056
 92 10 20 17 42  0.0010000  0  6 20  3 26 16 17 23                   0.001620830
  22826020.135 6   8992694.951 7  22429965.447        4043.421
  -5298344.192 7  -4267781.311 8  21547784.969        -321.121
  -1791686.279 5  -1403337.176 5  23893635.243        -892.187
  10182823.651 6   7920031.940 6  22857490.640        3765.804
  -7125687.100 7  -5756375.382 8  21772498.574        -267.934
  -4062151.102 5  -2354113.612 5  23506886.891       -2087.793
 92 10 20 17 42 30.0010000  0  6 20  3 26 16 17 23                   0.001642810
  22947528.007 6   9087376.329 7  22453087.841        4057.240
  -5307844.445 7  -4275184.107 8  21545977.051        -312.373
  -1818268.975 5  -1424050.882 5  23888576.981        -879.843
  10296022.486 6   8008238.739 6  22879031.798        3780.891
  -7133570.173 7  -5762518.028 8  21770998.272        -257.508
  -4124661.232 6  -2402822.721 6  23494991.395       -2079.260
 92 10 20 17 43  0.0010000  0  6 20  3 26 16 17 23                   0.001664780
  23069452.203 6   9182382.117 7  22476289.320        4071.133
  -5317079.552 7  -4282380.282 8  21544219.927        -303.408
  -1844471.002 6  -1444468.022 5  23883590.676        -866.789
  10409668.888 6   8096794.308 6  22900658.285        3795.566
  -7141133.735 7  -5768411.698 8  21769558.871        -246.566
  -4186900.237 6  -2451320.541 6  23483147.896       -2069.676
 92 10 20 17 43 30.0010000  0  6 20  3 26 16 17 23                   0.001686790
  23191793.168 6   9277712.668 7  22499569.893        4085.072
  -5326044.026 7  -4289365.594 8  21542513.908        -294.275
  -1870276.069 6  -1464575.836 5  23878680.251        -853.315
  10523752.745 6   8185690.759 6  22922367.647        3810.218
  -7148363.900 7  -5774045.576 8  21768182.969        -235.205
  -4248837.239 6  -2499583.100 5  23471361.983       -2059.050
 92 10 20 17 44  0.0010000  0  6 20  3 26 16 17 23                   0.001708890
  23314568.293 6   9373381.518 7  22522933.227        4100.204
  -5334715.834 7  -4296122.839 8  21540863.812        -283.762
  -1895662.659 6  -1484357.551 5  23873849.337        -838.907
  10638293.090 6   8274942.893 6  22944164.036        3826.083
  -7155234.047 7  -5779398.907 8  21766875.867        -222.414
  -4310425.729 6  -2547574.088 5  23459642.108       -2046.667
 92 10 20 17 44 30.0010000  0  6 20  3 26 16 17 23                   0.001731090
  23437785.076 6   9469394.521 7  22546380.945        4114.180
  -5343082.664 7  -4302642.435 8  21539271.541        -274.269
  -1920626.581 6  -1503809.910 5  23869098.965        -825.420
  10753303.024 6   8364560.948 6  22966049.874        3841.031
  -7161729.846 7  -5784460.566 8  21765639.822        -210.734
  -4371653.808 6  -2595284.229 5  23447990.745       -2035.061
 92 10 20 17 45  0.0010000  0  6 20  3 26 16 17 23                   0.001753410
  23561425.770 6   9565737.834 7  22569909.168        4127.712
  -5351157.514 7  -4308934.524 8  21537735.057        -264.971
  -1945187.725 5  -1522948.404 5  23864424.977        -812.752
  10868752.712 6   8454521.700 6  22988019.465        3854.870
  -7167872.503 7  -5789247.033 8  21764470.831        -199.577
  -4432510.568 6  -2642705.018 5  23436409.721       -2022.875
 92 10 20 17 45 30.0010000  0  6 20  3 26 16 17 23                   0.001775860
  23685454.423 6   9662383.436 7  22593510.899        4140.701
  -5358971.389 7  -4315023.269 8  21536247.958        -256.260
  -1969391.140 5  -1541808.194 5  23859819.177        -800.898
  10984602.461 6   8544794.156 6  23010065.184        3868.288
  -7173699.777 7  -5793787.764 8  21763361.839        -189.174
  -4493019.604 6  -2689854.879 6  23424894.592       -2011.170
 92 10 20 17 46  0.0010000  0  6 20  3 26 16 17 23                   0.001798400
  23809846.347 6   9759312.130 7  22617181.791        4152.483
  -5366544.150 7  -4320924.121 8  21534806.984        -248.412
  -1993259.471 5  -1560406.868 5  23855276.998        -789.963
  11100834.320 6   8635364.352 6  23032183.192        3880.804
  -7179242.138 7  -5798106.484 8  21762307.187        -180.003
  -4553203.033 6  -2736751.000 6  23413442.314       -2000.857
 92 10 20 17 46 30.0010000  0  6 20  3 26 16 17 23                   0.001821030
  23934595.345 6   9856519.072 7  22640920.866        4164.141
  -5373877.021 7  -4326638.029 8  21533411.330        -240.600
  -2016801.708 5  -1578751.414 5  23850797.078        -779.540
  11217442.793 6   8726228.057 6  23054372.813        3893.027
  -7184505.071 7  -5802207.451 8  21761305.834        -170.987
  -4613071.737 6  -2783401.878 6  23402050.178       -1990.289
 92 10 20 17 47  0.0010000  0  6 20  3 26 16 17 23                   0.001843720
  24059680.817 6   9953988.196 7  22664723.918        4175.676
  -5380986.086 7  -4332177.559 8  21532058.578        -232.779
  -2040043.825 5  -1596862.107 5  23846374.259        -769.009
  11334392.122 6   8817357.312 6  23076627.775        3904.367
  -7189508.104 7  -5806105.906 8  21760353.702        -161.777
  -4672634.109 6  -2829814.059 6  23390715.995       -1980.038
 92 10 20 17 47 30.0010000  0  6 20  3 26 16 17 23                   0.001866430
  24185114.760 6  10051728.846 7  22688593.223        4186.744
  -5387854.689 7  -4337529.702 8  21530751.350        -225.170
  -2062960.320 5  -1614719.077 5  23842013.459        -758.439
  11451689.054 6   8908757.479 6  23098948.700        3915.430
  -7194223.137 7  -5809779.962 8  21759456.252        -152.353
  -4731897.564 6  -2875993.319 6  23379438.670       -1970.734
 92 10 20 17 48  0.0010000  0  6 20  3 26 16 17 23                   0.001889140
  24310898.916 6  10149742.409 7  22712529.333        4198.965
  -5394475.610 7  -4342688.842 8  21529491.803        -216.255
  -2085537.707 5  -1632311.786 5  23837716.545        -746.596
  11569329.180 6   9000425.031 6  23121334.792        3927.283
  -7198634.285 7  -5813217.199 8  21758616.673        -141.516
  -4790861.996 6  -2921939.564 6  23368217.770       -1960.351
 92 10 20 17 48 30.0010000  0  6 20  3 26 16 17 23                   0.001911840
  24437055.243 6  10248045.926 6  22736535.903        4211.039
  -5400822.358 7  -4347634.381 8  21528284.072        -207.383
  -2107757.735 5  -1649626.063 5  23833488.548        -734.957
  11687326.679 6   9092371.049 6  23143789.000        3938.832
  -7202711.914 7  -5816394.581 8  21757840.920        -130.776
  -4849517.253 6  -2967644.945 6  23357055.797       -1950.326
 92 10 20 17 49  0.0010000  0  6 20  3 26 16 17 23                   0.001934500
  24563573.361 6  10346631.377 6  22760611.915        4223.644
  -5406900.462 7  -4352370.569 8  21527127.391        -197.830
  -2129602.376 5  -1666647.816 5  23829331.965        -721.228
  11805675.995 6   9184591.221 6  23166310.057        3951.401
  -7206461.160 7  -5819316.075 8  21757127.205        -119.051
  -4907877.560 6  -3013120.469 6  23345950.132       -1940.247
 92 10 20 17 49 30.0010000  0  6 20  3 26 16 17 23                   0.001957160
  24690459.368 6  10445503.530 6  22784757.610        4235.591
  -5412698.939 7  -4356888.857 8  21526024.064        -188.694
  -2151043.448 5  -1683355.112 5  23825251.728        -708.037
  11924406.558 6   9277108.480 6  23188903.698        3964.268
  -7209867.816 7  -5821970.614 8  21756478.972        -107.992
  -4965939.975 6  -3058363.850 6  23334901.313       -1930.189
 92 10 20 17 50  0.0010000  0  6 20  3 26 16 17 23                   0.001979850
  24817698.163 6  10544650.568 6  22808970.088        4247.153
  -5418228.215 7  -4361197.381 8  21524971.842        -179.864
  -2172093.052 5  -1699757.365 5  23821246.163        -695.112
  12043524.213 6   9369927.348 6  23211571.133        3977.172
  -7212954.497 7  -5824375.816 8  21755891.588         -97.583
  -5023700.827 6  -3103372.248 6  23323909.663       -1920.406
 92 10 20 17 50 30.0020000  0  6 20  3 26 16 17 23                   0.002002600
  24945291.591 6  10644073.941 6  22833250.329        4258.748
  -5423485.757 7  -4365294.162 8  21523971.434        -170.817
  -2192749.180 5  -1715853.000 5  23817315.380        -681.878
  12163039.938 6   9463056.403 6  23234314.460        3990.248
  -7215726.894 7  -5826536.116 8  21755364.157         -87.274
  -5081166.423 6  -3148150.575 6  23312974.434       -1910.252
 92 10 20 17 51  0.0020000  0  6 20  3 26 16 17 23                   0.002025410
  25073227.916 6  10743764.501 6  22857595.875        4270.129
  -5428469.289 7  -4369177.429 8  21523023.071        -161.796
  -2212999.697 5  -1731632.569 5  23813461.753        -668.639
  12282944.452 6   9556488.436 6  23257131.761        4003.111
  -7218187.158 7  -5828453.199 8  21754895.980         -77.061
  -5138306.739 6  -3192675.400 6  23302100.822       -1899.213
 92 10 20 17 51 30.0020000  0  6 20  3 26 16 17 23                   0.002048320
  25201495.644 6  10843713.288 6  22882004.608        4280.964
  -5433189.773 7  -4372855.754 8  21522124.931        -153.142
  -2232880.016 5  -1747123.706 5  23809678.473        -656.703
  12403217.721 6   9650207.755 6  23280018.869        4014.966
  -7220354.043 7  -5830141.700 8  21754483.545         -67.457
  -5195118.428 6  -3236944.194 6  23291290.045       -1888.250
 92 10 20 17 52  0.0020000  0  6 20  3 26 16 17 23                   0.002071270
  25330100.560 6  10943924.816 6  22906477.226        4292.485
  -5437636.627 7  -4376320.828 8  21521278.899        -143.703
  -2252383.601 5  -1762321.235 5  23805966.850        -643.823
  12523843.112 6   9744201.517 6  23302973.108        4026.521
  -7222224.384 7  -5831599.094 8  21754127.599         -57.452
  -5251595.390 6  -3280952.142 6  23280543.058       -1877.109
 92 10 20 17 52 30.0020000  0  6 20  3 26 16 17 23                   0.002094210
  25459032.383 6  11044391.098 6  22931012.300        4303.239
  -5441815.016 7  -4379576.714 8  21520483.809        -134.778
  -2271516.869 5  -1777230.226 5  23802326.002        -631.385
  12644797.692 6   9838451.762 6  23325990.015        4037.434
  -7223814.860 7  -5832838.438 8  21753824.871         -48.268
  -5307754.262 6  -3324712.219 6  23269856.306       -1866.387
 92 10 20 17 53  0.0020000  0  6 20  3 26 16 17 23                   0.002117150
  25588301.867 6  11145120.473 6  22955611.331        4314.835
  -5445709.088 7  -4382611.072 8  21519742.742        -124.949
  -2290253.870 5  -1791830.476 5  23798760.730        -617.704
  12766091.097 6   9932966.010 6  23349071.655        4049.049
  -7225113.726 7  -5833850.540 8  21753577.702         -38.150
  -5363579.023 6  -3368211.999 6  23259232.630       -1855.376
 92 10 20 17 53 30.0020000  0  6 20  3 26 16 17 23                   0.002140090
  25717921.297 6  11246122.542 6  22980277.135        4326.287
  -5449301.991 7  -4385410.741 8  21519058.754        -114.946
  -2308574.611 6  -1806106.307 5  23795274.624        -603.875
  12887745.346 6  10027761.455 6  23372221.966        4061.011
  -7226098.995 7  -5834618.262 9  21753390.432         -27.654
  -5419080.098 6  -3411459.494 6  23248670.916       -1844.834
 92 10 20 17 54  0.0020000  0  6 20  3 26 16 17 23                   0.002163060
  25847886.416 6  11347393.955 6  23005009.003        4337.885
  -5452592.987 7  -4387975.174 8  21518432.510        -104.749
  -2326474.087 5  -1820053.939 5  23791868.463        -589.581
  13009768.693 6  10122844.464 6  23395442.171        4073.924
  -7226766.259 7  -5835138.212 9  21753263.330         -16.891
  -5474252.218 6  -3454450.703 6  23238172.059       -1833.356
 92 10 20 17 54 30.0020000  0  6 20  3 26 16 17 23                   0.002186140
  25978194.593 6  11448932.726 6  23029805.879        4348.903
  -5455579.729 7  -4390302.497 8  21517864.262         -94.920
  -2343948.308 5  -1833670.150 5  23788542.863        -575.707
  13132183.146 6  10218232.277 6  23418736.806        4086.566
  -7227102.326 7  -5835400.080 9  21753199.693          -5.874
  -5529070.767 6  -3497166.363 6  23227740.222       -1821.483
 92 10 20 17 55  0.0020000  0  6 20  3 26 16 17 23                   0.002209330
  26108828.837 6  11550725.544 6  23054664.759        4360.016
  -5458273.990 7  -4392401.926 8  21517351.437         -84.853
  -2361010.589 5  -1846965.404 5  23785296.386        -561.899
  13254970.355 6  10313910.531 6  23442102.479        4099.212
  -7227110.247 7  -5835406.242 9  21753198.275           5.412
  -5583524.175 6  -3539597.552 6  23217377.992       -1808.762
 92 10 20 17 55 30.0020000  0  6 20  3 26 16 17 23                   0.002232640
  26239778.038 6  11652763.795 6  23079583.656        4370.328
  -5460681.991 7  -4394278.290 8  21516893.095         -75.447
  -2377685.521 5  -1859958.769 5  23782122.870        -549.324
  13378113.010 6  10409865.760 6  23465535.788        4110.528
  -7226800.894 7  -5835165.172 9  21753257.464          15.623
  -5637607.249 6  -3581740.114 6  23207086.519       -1796.205
 92 10 20 17 56  0.0020000  0  6 20  3 26 16 17 23                   0.002256020
  26371032.409 6  11755039.828 6  23104560.774        4380.353
  -5462808.293 7  -4395935.147 8  21516488.686         -66.131
  -2393983.784 5  -1872658.677 5  23779021.436        -536.566
  13501581.114 6  10506074.570 6  23489031.322        4120.989
  -7226193.749 7  -5834692.068 9  21753372.446          25.305
  -5691314.056 6  -3623589.517 6  23196866.222       -1784.055
 92 10 20 17 56 30.0020000  0  6 20  3 26 16 17 23                   0.002279390
  26502592.799 6  11857554.337 6  23129595.934        4390.562
  -5464647.262 7  -4397368.127 8  21516138.716         -56.458
  -2409884.179 5  -1885048.533 5  23775996.021        -523.138
  13625357.296 6  10602523.465 6  23512585.488        4130.916
  -7225288.622 7  -5833986.765 9  21753544.644          35.014
  -5744668.269 6  -3665164.154 6  23186713.251       -1772.766
 92 10 20 17 57  0.0020000  0  6 20  3 26 16 17 23                   0.002302740
  26634462.530 6  11960309.878 6  23154689.752        4400.565
  -5466190.392 7  -4398570.570 8  21515845.201         -46.764
  -2425376.204 5  -1897120.179 5  23773047.762        -509.886
  13749435.254 6  10699207.475 6  23536196.988        4140.803
  -7224103.303 7  -5833063.129 9  21753769.857          43.971
  -5797688.918 6  -3706478.878 6  23176624.087       -1762.270
 92 10 20 17 57 30.0020000  0  6 20  3 26 16 17 23                   0.002326050
  26766637.209 6  12063303.038 6  23179842.058        4410.990
  -5467437.097 7  -4399542.025 8  21515607.624         -36.556
  -2440456.104 6  -1908870.679 5  23770178.151        -495.481
  13873819.123 6  10796129.886 6  23559866.825        4151.418
  -7222634.054 7  -5831918.261 9  21754049.384          53.940
  -5850395.745 6  -3747549.102 6  23166593.921       -1751.547
 92 10 20 17 58  0.0020000  0  6 20  3 26 16 17 23                   0.002349350
  26899105.823 6  12166525.247 6  23205049.941        4420.383
  -5468393.001 7  -4400286.877 8  21515425.521         -27.218
  -2455108.252 6  -1920287.806 5  23767389.578        -481.195
  13998514.057 6  10893294.686 6  23583595.208        4161.767
  -7220882.970 7  -5830553.757 9  21754382.733          62.993
  -5902796.840 6  -3788381.075 6  23156622.066       -1741.584
 92 10 20 17 58 30.0020000  0  6 20  3 26 16 17 23                   0.002372660
  27031855.854 6  12269966.747 6  23230311.506        4429.654
  -5469065.806 7  -4400811.150 8  21515297.690         -17.818
  -2469332.911 6  -1931371.867 5  23764682.464        -467.167
  14123525.075 6  10990705.775 6  23607384.071        4172.323
  -7218858.715 7  -5828976.438 9  21754768.016          71.932
  -5954887.123 6  -3828970.870 6  23146709.767       -1730.897
 92 10 20 17 59  0.0020000  0  6 20  3 26 16 17 23                   0.002396010
  27164879.708 6  12373621.588 6  23255625.355        4438.576
  -5469458.129 7  -4401116.856 8  21515223.750          -8.595
  -2483140.965 6  -1942131.308 5  23762054.593        -453.487
  14248850.198 6  11088361.613 6  23631232.397        4182.618
  -7216562.823 7  -5827187.416 9  21755204.815          81.257
  -6006641.545 6  -3869298.951 6  23136861.099       -1719.428
 92 10 20 17 59 30.0020000  0  6 20  3 26 16 17 23                   0.002419410
  27298175.034 6  12477487.972 6  23280990.933        4447.856
  -5469567.170 7  -4401201.815 8  21515202.846           1.172
  -2496525.232 6  -1952560.492 5  23759507.207        -438.733
  14374487.829 6  11186260.962 6  23655140.199        4193.223
  -7213980.342 7  -5825175.087 9  21755696.445          90.779
  -6058042.938 6  -3909351.929 6  23127079.674       -1707.277
 92 10 20 18  0  0.0020000  0  6 20  3 26 16 17 23                   0.002442850
  27431747.617 6  12581570.415 6  23306408.987        4457.102
  -5469381.538 7  -4401057.189 8  21515237.912          11.065
  -2509471.934 6  -1962648.724 5  23757043.957        -424.326
  14500438.986 6  11284404.639 6  23679107.775        4203.607
  -7211122.291 7  -5822948.033 9  21756240.397          99.897
  -6109079.048 6  -3949120.280 6  23117367.819       -1695.121
 92 10 20 18  0 30.0020000  0  6 20  3 26 16 17 23                   0.002466320
  27565595.113 6  12685867.074 6  23331879.186        4466.155
  -5468898.846 7  -4400681.060 8  21515330.149          20.947
  -2521996.200 6  -1972407.790 5  23754660.919        -410.537
  14626698.961 6  11382788.972 6  23703133.882        4213.781
  -7207985.791 7  -5820504.010 9  21756837.154         109.337
  -6159761.984 6  -3988613.428 6  23107723.345       -1683.700
 92 10 20 18  1  0.0020000  0  6 20  3 26 16 17 23                   0.002489860
  27699713.516 6  12790374.815 6  23357401.236        4474.827
  -5468118.303 7  -4400072.840 8  21515478.146          30.552
  -2534102.330 6  -1981841.006 5  23752357.218        -396.973
  14753272.187 6  11481417.358 6  23727219.890        4224.207
  -7204557.484 7  -5817832.595 9  21757489.472         118.879
  -6210106.481 6  -4027842.853 6  23098143.391       -1672.906
 92 10 20 18  1 30.0020000  0  6 20  3 26 16 17 23                   0.002513450
  27834097.856 6  12895089.783 6  23382973.523        4484.020
  -5467039.404 7  -4399232.139 8  21515683.364          41.000
  -2545795.197 6  -1990952.224 5  23750131.906        -382.859
  14880163.132 6  11580293.321 6  23751366.483        4235.068
  -7200839.936 7  -5814935.811 9  21758196.864         128.818
  -6260122.770 6  -4066816.533 6  23088625.128       -1661.542
 92 10 20 18  2  0.0020000  0  6 20  3 26 16 17 23                   0.002537110
  27968753.941 6  13000016.509 6  23408597.866        4493.069
  -5465651.039 7  -4398150.297 8  21515947.633          51.402
  -2557079.720 6  -1999745.279 5  23747984.199        -369.298
  15007369.792 6  11679415.292 6  23775573.213        4245.482
  -7196825.809 7  -5811807.899 9  21758960.606         138.966
  -6309793.607 6  -4105521.030 6  23079172.943       -1649.786
 92 10 20 18  2 30.0020000  0  6 20  3 26 16 17 23                   0.002560810
  28103671.007 6  13105146.573 6  23434272.011        4501.551
  -5463958.986 7  -4396831.837 8  21516269.556          61.327
  -2567950.768 6  -2008216.123 5  23745915.482        -355.301
  15134872.579 6  11778768.046 6  23799836.388        4254.800
  -7192509.673 7  -5808444.680 9  21759782.018         148.929
  -6359119.524 6  -4143956.762 6  23069786.591       -1638.293
 92 10 20 18  3  0.0020000  0  6 20  3 26 16 17 23                   0.002584530
  28238843.784 6  13210475.924 6  23459994.345        4510.060
  -5461963.980 7  -4395277.269 8  21516649.014          71.570
  -2578391.629 6  -2016351.753 5  23743928.483        -340.745
  15262651.238 6  11878335.753 6  23824152.002        4263.810
  -7187897.052 7  -5804850.411 9  21760659.839         158.622
  -6408082.815 6  -4182109.927 6  23060469.116       -1625.859
 92 10 20 18  3 30.0020000  0  6 20  3 26 16 17 23                   0.002608250
  28374276.155 6  13316007.523 6  23485766.622        4518.830
  -5459656.529 7  -4393479.271 8  21517088.192          82.221
  -2588391.075 6  -2024143.441 5  23742025.897        -325.786
  15390695.474 6  11978110.380 6  23848518.174        4272.613
  -7182994.395 7  -5801030.157 9  21761592.623         168.373
  -6456671.581 6  -4219971.261 6  23051223.048       -1613.254
 92 10 20 18  4  0.0020000  0  6 20  3 26 16 17 23                   0.002631960
  28509965.253 6  13421739.191 6  23511587.407        4526.830
  -5457034.190 7  -4391435.905 8  21517587.023          92.246
  -2597944.908 6  -2031587.891 5  23740207.417        -311.169
  15519002.600 6  12078089.867 6  23872934.502        4281.016
  -7177807.115 7  -5796988.124 9  21762579.858         177.308
  -6504894.505 6  -4257547.495 6  23042046.654       -1601.954
 92 10 20 18  4 30.0020000  0  6 20  3 26 16 17 23                   0.002655660
  28645890.020 6  13527654.471 6  23537453.262        4534.751
  -5454113.177 7  -4389159.760 8  21518142.590         102.370
  -2607060.434 6  -2038690.823 5  23738472.726        -296.715
  15647560.769 6  12178264.987 6  23897398.604        4289.718
  -7172350.115 7  -5792735.889 9  21763618.531         186.458
  -6552783.302 6  -4294863.378 6  23032933.921       -1590.635
 92 10 20 18  5  0.0020000  0  6 20  3 26 16 17 23                   0.002679380
  28782052.684 6  13633755.130 6  23563364.272        4543.055
  -5450885.925 7  -4386645.033 8  21518756.774         112.957
  -2615753.181 6  -2045464.328 5  23736818.563        -282.632
  15776387.858 6  12278649.619 6  23921913.723        4299.126
  -7166623.407 7  -5788273.503 9  21764708.285         195.568
  -6600332.400 6  -4331914.584 6  23023885.435       -1579.126
 92 10 20 18  5 30.0020000  0  6 20  3 26 16 17 23                   0.002703140
  28918463.900 6  13740049.456 6  23589322.291        4551.119
  -5447336.749 7  -4383879.444 8  21519432.258         123.631
  -2624021.113 6  -2051906.810 5  23735244.881        -268.380
  15905502.091 6  12379258.031 6  23946483.285        4308.556
  -7160623.067 7  -5783597.907 9  21765849.976         204.518
  -6647539.374 6  -4368699.188 6  23014902.174       -1567.763
 92 10 20 18  6  0.0020000  0  6 20  3 26 16 17 23                   0.002726950
  29055110.479 6  13846527.182 6  23615325.549        4558.608
  -5443473.948 7  -4380869.463 8  21520167.220         133.743
  -2631856.297 6  -2058012.093 5  23733754.256        -253.922
  16034891.173 6  12480080.591 6  23971105.528        4317.279
  -7154363.007 7  -5778719.927 9  21767041.241         212.905
  -6694402.353 6  -4405215.758 6  23005984.477       -1556.351
 92 10 20 18  6 30.0020000  0  6 20  3 26 16 17 23                   0.002750770
  29191980.319 6  13953178.895 6  23641370.918        4566.147
  -5439304.113 7  -4377620.235 8  21520960.868         144.141
  -2639246.400 6  -2063770.540 5  23732347.878        -238.710
  16164539.098 6  12581104.859 6  23995776.946        4326.109
  -7147840.725 7  -5773637.604 9  21768282.304         221.883
  -6740912.601 6  -4441457.445 6  22997133.715       -1544.220
 92 10 20 18  7  0.0020000  0  6 20  3 26 16 17 23                   0.002774610
  29329077.229 6  14060007.556 6  23667460.031        4573.668
  -5434818.033 7  -4374124.579 8  21521814.549         154.772
  -2646174.288 6  -2069168.817 5  23731029.460        -223.034
  16294450.188 6  12682334.179 6  24020498.476        4334.654
  -7141048.088 7  -5768344.617 9  21769574.966         231.095
  -6787053.020 6  -4477410.975 6  22988353.584       -1531.793
 92 10 20 18  7 30.0020000  0  6 20  3 26 16 17 23                   0.002798470
  29466405.052 6  14167016.126 6  23693592.486        4581.417
  -5430007.258 7  -4370375.915 8  21522730.203         165.656
  -2652620.891 6  -2074192.126 5  23729802.760        -206.751
  16424624.385 6  12783768.511 5  24045270.054        4343.562
  -7133966.918 7  -5762826.815 9  21770922.473         241.041
  -6832812.398 6  -4513067.583 6  22979645.650       -1518.835
 92 10 20 18  8  0.0020000  0  6 20  3 26 16 17 23                   0.002822340
  29603960.758 6  14274202.268 6  23719768.164        4588.857
  -5424869.206 7  -4366372.244 8  21523707.948         176.528
  -2658582.649 6  -2078837.611 5  23728668.154        -191.045
  16555064.388 6  12885409.988 5  24070091.783        4352.303
  -7126580.912 7  -5757071.474 9  21772328.250         251.379
  -6878181.661 6  -4548420.231 6  22971012.191       -1505.890
 92 10 20 18  8 30.0020000  0  6 20  3 26 16 17 23                   0.002846250
  29741722.710 6  14381549.142 6  23745983.827        4595.786
  -5419420.408 7  -4362126.427 8  21524744.800         187.050
  -2664096.761 6  -2083134.290 5  23727618.832        -176.232
  16685756.624 6  12987247.976 5  24094961.648        4361.004
  -7118897.553 7  -5751084.435 9  21773790.069         261.169
  -6923179.047 6  -4583483.081 6  22962449.058       -1493.552
 92 10 20 18  9  0.0020000  0  6 20  3 26 16 17 23                   0.002870210
  29879700.012 6  14489063.784 6  23772240.547        4602.971
  -5413646.559 7  -4357627.334 8  21525843.628         197.949
  -2669169.634 6  -2087087.135 5  23726653.341        -161.781
  16816715.905 6  13089294.080 5  24119882.017        4369.798
  -7110919.823 7  -5744868.023 9  21775308.097         270.889
  -6967798.854 6  -4618251.728 6  22953958.066       -1480.907
 92 10 20 18  9 30.0020000  0  6 20  3 26 16 17 23                   0.002894220
  30017891.860 6  14596745.601 6  23798537.765        4609.924
  -5407543.281 7  -4352871.529 8  21527005.064         208.790
  -2673809.271 6  -2090702.396 5  23725770.380        -147.490
  16947939.617 6  13191546.209 5  24144852.697        4378.323
  -7102659.325 7  -5738431.270 9  21776879.931         279.835
  -7012041.055 6  -4652726.135 6  22945539.005       -1468.472
 92 10 20 18 10  0.0020000  0  6 20  3 26 16 17 23                   0.002918260
  30156285.229 6  14704584.457 6  23824873.281        4616.570
  -5401118.805 7  -4347865.442 8  21528227.549         219.608
  -2678021.267 6  -2093984.443 5  23724969.313        -133.155
  17079402.876 6  13293985.027 5  24169869.258        4386.123
  -7094141.885 7  -5731794.281 9  21778500.757         288.190
  -7055917.945 6  -4686915.883 6  22937189.455       -1456.412
 92 10 20 18 10 30.0020000  0  6 20  3 26 16 17 23                   0.002942320
  30294883.571 6  14812583.037 6  23851247.986        4623.176
  -5394364.419 7  -4342602.272 8  21529512.750         230.492
  -2681790.913 6  -2096921.810 5  23724252.203        -118.253
  17211105.330 6  13396610.210 5  24194931.411        4393.817
  -7085370.457 7  -5724959.398 9  21780169.981         296.452
  -7099433.179 6  -4720823.803 6  22928908.785       -1444.700
 92 10 20 18 11  0.0020000  0  6 20  3 26 16 17 23                   0.002966390
  30433677.240 6  14920733.824 6  23877659.303        4629.366
  -5387284.255 7  -4337085.268 8  21530860.015         241.021
  -2685116.775 6  -2099513.355 5  23723619.621        -103.667
  17343028.317 6  13499407.241 5  24220035.776        4400.661
  -7076348.753 7  -5717929.479 9  21781886.784         304.784
  -7142594.919 6  -4754456.272 6  22920695.344       -1432.971
 92 10 20 18 11 30.0020000  0  6 20  3 26 16 17 23                   0.002990460
  30572645.583 6  15029020.732 6  23904104.332        4635.231
  -5379894.212 7  -4331326.786 8  21532266.342         251.532
  -2688000.229 6  -2101760.172 5  23723070.712         -88.534
  17475152.538 6  13602361.103 5  24245178.401        4407.710
  -7067080.565 7  -5710707.506 9  21783650.394         313.286
  -7185407.123 6  -4787816.376 6  22912548.632       -1421.090
 92 10 20 18 12  0.0030000  0  6 20  3 26 16 17 23                   0.003014530
  30711809.668 6  15137460.143 5  23930586.183        4641.735
  -5372172.203 7  -4325309.655 8  21533735.836         262.798
  -2690410.332 6  -2103638.161 5  23722612.206         -72.403
  17607510.022 6  13705496.677 5  24270365.335        4415.678
  -7057531.947 7  -5703267.026 9  21785467.433         323.090
  -7227842.480 6  -4820882.861 6  22904473.544       -1408.012
 92 10 20 18 12 30.0030000  0  6 20  3 26 16 17 23                   0.003038630
  30851151.464 6  15246038.009 5  23957102.017        4647.576
  -5364122.456 7  -4319037.131 8  21535267.534         273.576
  -2692342.373 6  -2105143.608 5  23722244.311         -56.509
  17740093.102 6  13808808.080 5  24295595.189        4422.954
  -7047699.929 7  -5695605.703 9  21787338.378         332.141
  -7269891.271 6  -4853648.118 6  22896471.862       -1395.215
 92 10 20 18 13  0.0030000  0  6 20  3 26 16 17 23                   0.003062740
  30990673.601 6  15354756.445 5  23983652.104        4653.852
  -5355741.164 7  -4312506.243 8  21536862.440         284.964
  -2693792.200 6  -2106273.335 6  23721968.122         -40.109
  17872900.783 6  13912294.499 6  24320867.702        4430.742
  -7037596.332 7  -5687732.765 9  21789260.967         341.319
  -7311544.695 6  -4886105.282 6  22888545.198       -1381.623
 92 10 20 18 13 30.0030000  0  6 20  3 26 16 17 23                   0.003086870
  31130382.418 6  15463620.320 5  24010238.161        4660.338
  -5347017.023 7  -4305708.223 8  21538522.720         296.666
  -2694751.344 6  -2107020.702 5  23721785.461         -23.678
  18005938.323 6  14015960.032 6  24346183.987        4438.523
  -7027223.615 7  -5679650.105 9  21791234.813         350.329
  -7352799.362 6  -4918251.721 7  22880694.755       -1368.564
 92 10 20 18 14  0.0030000  0  6 20  3 26 16 17 23                   0.003111020
  31270273.035 6  15572625.860 5  24036858.458        4665.764
  -5337949.616 7  -4298642.696 8  21540247.837         307.681
  -2695231.982 6  -2107395.186 5  23721694.113          -8.298
  18139195.786 6  14119796.916 6  24371542.150        4445.288
  -7016591.127 7  -5671365.039 9  21793258.072         358.415
  -7393673.289 6  -4950101.494 7  22872916.938       -1356.529
 92 10 20 18 14 30.0030000  0  6 20  3 26 16 17 23                   0.003135170
  31410333.400 6  15681763.690 5  24063511.188        4671.695
  -5328546.292 7  -4291315.418 9  21542037.298         319.266
  -2695246.295 6  -2107406.326 6  23721691.825           7.441
  18272656.593 6  14223792.264 6  24396939.212        4452.327
  -7005721.354 7  -5662895.068 9  21795326.470         366.379
  -7434195.669 6  -4981677.320 7  22865205.288       -1344.868
 92 10 20 18 15  0.0030000  0  6 20  3 26 16 17 23                   0.003159330
  31550548.134 6  15791021.798 5  24090193.652        4676.387
  -5318817.127 7  -4283734.265 8  21543888.936         329.617
  -2694819.527 6  -2107073.732 6  23721772.671          21.426
  18406305.504 6  14327934.160 6  24422371.914        4458.125
  -6994625.126 7  -5654248.639 9  21797437.868         373.924
  -7474391.346 6  -5012998.592 7  22857556.425       -1334.388
 92 10 20 18 15 30.0030000  0  6 20  3 26 16 17 23                   0.003183510
  31690919.597 6  15900401.983 5  24116905.383        4681.710
  -5308754.308 7  -4275893.095 9  21545804.111         340.967
  -2693952.772 6  -2106398.320 6  23721937.463          36.369
  18540158.515 6  14432235.127 6  24447843.551        4465.388
  -6983278.661 7  -5645407.241 9  21799597.182         382.354
  -7514254.688 6  -5044060.891 7  22849970.903       -1323.169
 92 10 20 18 16  0.0030000  0  6 20  3 26 16 17 23                   0.003207730
  31831450.468 6  16009906.417 5  24143647.681        4686.843
  -5298350.183 7  -4267785.998 9  21547783.939         352.314
  -2692632.308 6  -2105369.360 6  23722188.594          51.508
  18674230.510 6  14536706.705 6  24473356.680        4472.612
  -6971678.235 7  -5636367.939 9  21801804.735         390.807
  -7553772.527 6  -5074853.978 7  22842450.607       -1311.425
 92 10 20 18 16 30.0030000  0  6 20  3 26 16 17 23                   0.003231980
  31972130.582 5  16119527.145 5  24170417.579        4691.539
  -5287609.905 7  -4259416.940 9  21549827.675         363.328
  -2690857.788 6  -2103986.581 6  23722525.878          66.509
  18808509.356 6  14641339.469 6  24498908.889        4479.019
  -6959828.257 7  -5627134.162 9  21804059.654         399.049
  -7592934.855 6  -5105370.020 7  22834998.270       -1299.382
 92 10 20 18 17  0.0030000  0  6 20  3 26 16 17 23                   0.003256250
  32112958.889 6  16229263.332 5  24197216.293        4696.853
  -5276528.829 7  -4250782.321 9  21551936.454         375.055
  -2688629.489 6  -2102250.201 6  23722949.974          81.926
  18942992.672 6  14746131.584 6  24524500.263        4486.375
  -6947716.019 7  -5617696.053 9  21806364.470         408.176
  -7631714.185 6  -5135587.627 7  22827618.930       -1286.040
 92 10 20 18 17 30.0030000  0  6 20  3 26 16 17 23                   0.003280570
  32253940.918 6  16339119.330 5  24224044.262        4701.896
  -5265096.698 7  -4241874.180 9  21554111.959         386.821
  -2685930.683 6  -2100147.210 6  23723463.539          98.022
  19077700.060 6  14851098.268 6  24550134.295        4493.920
  -6935341.505 7  -5608053.549 9  21808719.297         416.689
  -7670097.235 6  -5165496.460 7  22820314.856       -1272.864
 92 10 20 18 18  0.0030000  0  6 20  3 26 16 17 23                   0.003304920
  32395076.300 5  16449094.808 5  24250901.639        4706.850
  -5253308.537 7  -4232688.602 9  21556354.766         398.592
  -2682742.658 6  -2097663.014 6  23724070.421         114.250
  19212621.262 5  14956231.555 6  24575809.083        4500.454
  -6922707.288 7  -5598208.699 9  21811123.705         425.543
  -7708079.771 6  -5195093.209 7  22813087.038       -1259.542
 92 10 20 18 18 30.0030000  0  6 20  3 26 16 17 23                   0.003329290
  32536361.777 6  16559187.217 5  24277788.138        4712.191
  -5241162.708 7  -4223224.322 9  21558666.226         411.051
  -2679062.252 6  -2094795.106 6  23724770.617         131.238
  19347744.145 5  15061522.023 6  24601521.862        4507.850
  -6909802.086 7  -5588152.679 9  21813579.272         434.828
  -7745661.210 6  -5224377.383 7  22805935.690       -1245.843
 92 10 20 18 19  0.0030000  0  6 20  3 26 16 17 23                   0.003353700
  32677810.372 6  16669406.760 5  24304704.774        4717.712
  -5228640.787 7  -4213466.992 9  21561048.897         423.672
  -2674860.232 6  -2091520.770 6  23725569.910         149.033
  19483092.461 5  15166988.126 5  24627277.520        4515.414
  -6896610.994 7  -5577873.889 9  21816089.656         444.585
  -7782834.810 6  -5253343.786 7  22798861.978       -1232.357
 92 10 20 18 19 30.0030000  0  6 20  3 26 16 17 23                   0.003378130
  32819427.521 6  16779757.641 5  24331653.867        4723.327
  -5215732.043 7  -4203408.211 9  21563505.235         436.655
  -2670110.083 6  -2087819.315 6  23726473.815         167.504
  19618664.761 5  15272628.751 5  24653076.060        4522.686
  -6883125.502 7  -5567365.707 9  21818655.759         454.527
  -7819599.203 6  -5281991.306 7  22791865.490       -1218.553
 92 10 20 18 20  0.0030000  0  6 20  3 26 16 17 23                   0.003402580
  32961199.345 6  16890229.030 5  24358632.350        4728.111
  -5202445.206 7  -4193054.832 9  21566033.865         448.965
  -2664823.488 6  -2083699.823 6  23727480.128         184.834
  19754432.373 5  15378421.599 5  24678911.809        4528.620
  -6869349.689 7  -5556631.295 9  21821276.874         464.003
  -7855955.804 6  -5310321.098 7  22784947.049       -1205.123
 92 10 20 18 20 30.0030000  0  6 20  3 26 16 17 23                   0.003427040
  33103109.021 6  17000807.833 5  24385636.914        4732.627
  -5188792.169 7  -4182416.084 9  21568631.775         461.084
  -2659025.580 6  -2079181.937 6  23728583.603         201.746
  19890381.913 5  15484356.168 5  24704782.345        4534.788
  -6855297.838 7  -5545681.782 9  21823951.064         472.880
  -7891907.043 6  -5338334.987 7  22778105.726       -1191.466
 92 10 20 18 21  0.0030000  0  6 20  3 26 16 17 23                   0.003451510
  33245143.021 5  17111483.508 5  24412665.182        4736.353
  -5174781.150 7  -4171498.401 9  21571298.349         472.738
  -2652740.193 6  -2074284.176 6  23729779.797         217.295
  20026500.433 5  15590422.421 5  24730684.771        4539.699
  -6840983.330 7  -5534527.598 9  21826674.758         481.253
  -7927454.915 6  -5366034.579 7  22771341.089       -1178.420
 92 10 20 18 21 30.0030000  0  6 20  3 26 16 17 23                   0.003475990
  33387303.943 5  17222258.088 5  24439717.966        4740.558
  -5160404.711 7  -4160295.994 9  21574034.427         485.043
  -2645979.763 6  -2069016.258 6  23731065.578         232.944
  20162780.630 5  15696614.692 5  24756618.170        4545.217
  -6826409.168 7  -5523171.073 9  21829447.968         489.897
  -7962596.084 6  -5393417.266 7  22764653.829       -1164.803
 92 10 20 18 22  0.0030000  0  6 20  3 26 16 17 23                   0.003500490
  33529589.420 5  17333129.694 5  24466794.101        4744.994
  -5145660.236 7  -4148806.782 9  21576840.052         497.673
  -2638752.980 6  -2063384.942 6  23732440.894         248.817
  20299224.272 5  15802934.300 5  24782582.503        4550.830
  -6811574.204 7  -5511611.370 9  21832270.835         498.975
  -7997329.012 6  -5420481.827 7  22758044.175       -1150.921
 92 10 20 18 22 30.0030000  0  6 20  3 26 16 17 23                   0.003525000
  33671997.129 6  17444096.575 5  24493893.410        4748.699
  -5130544.293 7  -4137028.118 8  21579716.501         509.765
  -2631051.837 6  -2057384.020 6  23733906.549         264.554
  20435827.435 5  15909378.222 5  24808578.040        4555.920
  -6796482.173 7  -5499851.311 9  21835142.508         507.017
  -8031655.832 6  -5447229.946 7  22751512.167       -1137.698
 92 10 20 18 23  0.0030000  0  6 20  3 26 16 17 23                   0.003549530
  33814524.717 6  17555156.880 5  24521015.703        4752.964
  -5115054.637 7  -4124958.238 8  21582663.803         522.537
  -2622856.721 6  -2050998.175 6  23735465.909         281.739
  20572592.460 5  16015948.268 5  24834603.713        4561.734
  -6781135.577 7  -5487892.906 9  21838062.992         515.823
  -8065587.581 6  -5473670.191 7  22745054.978       -1124.620
 92 10 20 18 23 30.0030000  0  6 20  3 26 16 17 23                   0.003574070
  33957175.631 5  17666313.261 5  24548161.311        4757.186
  -5099182.157 7  -4112590.072 8  21585684.072         535.472
  -2614139.644 6  -2044205.607 6  23737124.620         299.480
  20709544.167 5  16122663.778 5  24860664.690        4568.568
  -6765529.833 7  -5475732.575 9  21841032.899         524.691
  -8099129.645 6  -5499806.830 7  22738672.234       -1111.302
 92 10 20 18 24  0.0030000  0  6 20  3 26 16 17 23                   0.003598650
  34099936.972 5  17777555.699 5  24575327.655        4760.478
  -5082935.212 7  -4099930.109 8  21588775.662         547.687
  -2604900.909 6  -2037006.548 6  23738882.853         316.726
  20846684.725 5  16229526.474 5  24886761.706        4574.408
  -6749672.839 7  -5463376.471 9  21844050.549         532.562
  -8132277.372 6  -5525636.160 7  22732364.402       -1098.414
 92 10 20 18 24 30.0030000  0  6 20  3 26 16 17 23                   0.003623250
  34242801.962 5  17888878.899 5  24602513.595        4763.832
  -5066315.345 7  -4086979.558 9  21591938.401         560.135
  -2595137.525 6  -2029398.685 6  23740740.648         334.197
  20984015.988 6  16336537.729 5  24912895.260        4580.997
  -6733584.289 7  -5450839.900 9  21847111.820         540.104
  -8165036.027 6  -5551162.331 7  22726130.556       -1085.585
 92 10 20 18 25  0.0030000  0  6 20  3 26 16 17 23                   0.003647890
  34385765.321 5  18000278.717 5  24629718.917        4767.165
  -5049322.692 7  -4073738.526 9  21595171.985         572.645
  -2584851.596 6  -2021383.659 6  23742698.110         351.484
  21121542.446 6  16443701.123 5  24939065.744        4587.521
  -6717266.459 7  -5438124.719 9  21850216.928         547.895
  -8197419.714 6  -5576396.322 7  22719968.112       -1073.165
 92 10 20 18 25 30.0030000  0  6 20  3 26 16 17 23                   0.003672560
  34528825.812 5  18111754.255 5  24656942.954        4770.348
  -5031953.677 7  -4060204.220 9  21598477.085         585.283
  -2574063.558 6  -2012977.332 6  23744751.131         367.818
  21259253.508 6  16551008.356 5  24965271.645        4593.136
  -6700717.436 7  -5425229.370 9  21853366.441         555.596
  -8229421.949 6  -5601333.083 7  22713878.498       -1060.165
 92 10 20 18 26  0.0030000  0  6 20  3 26 16 17 23                   0.003697250
  34671987.428 5  18223308.568 5  24684185.825        4773.924
  -5014199.243 7  -4046369.609 9  21601855.607         598.301
  -2562775.334 6  -2004181.298 6  23746898.936         384.926
  21397119.456 6  16658436.291 5  24991506.952        4597.998
  -6683926.316 7  -5412145.374 9  21856561.897         564.014
  -8261028.580 6  -5625961.569 7  22707863.644       -1046.925
 92 10 20 18 26 30.0030000  0  6 20  3 26 16 17 23                   0.003721950
  34815253.612 5  18334944.381 5  24711448.148        4777.238
  -4996050.581 7  -4032227.785 9  21605309.245         611.528
  -2550974.700 6  -1994985.950 6  23749144.649         401.867
  21535132.085 6  16765978.500 5  25017770.048        4602.810
  -6666871.538 7  -5398855.935 9  21859807.340         573.281
  -8292243.906 6  -5650285.153 7  22701923.446       -1033.927
 92 10 20 18 27  0.0030000  0  6 20  3 26 16 17 23                   0.003746670
  34958620.267 5  18446658.468 5  24738729.768        4780.652
  -4977506.792 7  -4017778.076 9  21608838.174         624.755
  -2538671.224 6  -1985398.826 6  23751486.429         418.537
  21673278.861 6  16873625.211 5  25044058.579        4607.046
  -6649530.935 7  -5385343.783 9  21863107.136         582.970
  -8323065.654 6  -5674302.061 7  22696058.316       -1020.538
 92 10 20 18 27 30.0030000  0  6 20  3 26 16 17 23                   0.003771380
  35102078.312 5  18558443.783 5  24766029.503        4783.362
  -4958571.913 7  -4003023.610 9  21612441.199         637.612
  -2525875.283 6  -1975427.931 6  23753921.512         434.935
  21811541.353 6  16981362.152 5  25070369.235        4610.556
  -6631904.328 7  -5371608.749 9  21866461.534         592.444
  -8353483.269 6  -5698004.043 7  22690270.202       -1007.067
 92 10 20 18 28  0.0030000  0  6 20  3 26 16 17 23                   0.003796100
  35245621.081 5  18670295.097 5  24793345.471        4786.162
  -4939247.343 7  -3987965.500 9  21616118.452         650.594
  -2512565.900 6  -1965056.975 6  23756453.911         452.272
  21949911.065 6  17089182.611 5  25096700.164        4614.336
  -6613993.874 7  -5357652.548 9  21869869.925         601.620
  -8383493.407 6  -5721388.521 7  22684559.376        -993.453
 92 10 20 18 28 30.0030000  0  6 20  3 26 16 17 23                   0.003820820
  35389251.780 5  18782214.968 5  24820677.740        4789.110
  -4919525.082 7  -3972597.504 9  21619871.792         664.003
  -2498739.474 6  -1954283.088 6  23759085.190         469.519
  22088415.404 6  17197107.968 5  25123056.610        4619.156
  -6595803.694 7  -5343478.371 9  21873331.437         610.909
  -8413083.762 6  -5744445.883 7  22678928.305        -979.220
 92 10 20 18 29  0.0030000  0  6 20  3 26 16 17 23                   0.003845560
  35532964.473 5  18894198.689 5  24848025.208        4791.645
  -4899406.052 7  -3956920.335 9  21623700.562         677.043
  -2484399.419 6  -1943109.000 6  23761813.620         486.640
  22227052.661 6  17305136.891 5  25149438.767        4623.336
  -6577359.280 7  -5329106.101 9  21876841.428         618.621
  -8442245.084 6  -5767168.959 7  22673379.164        -964.952
 92 10 20 18 29 30.0030000  0  6 20  3 26 16 17 23                   0.003870310
  35676762.580 5  19006248.981 5  24875389.318        4795.076
  -4878881.929 7  -3940927.523 9  21627606.249         691.271
  -2469525.285 6  -1931518.762 6  23764643.547         505.343
  22365834.100 5  17413278.162 5  25175848.014        4629.066
  -6558675.233 7  -5314547.104 9  21880396.856         627.135
  -8470968.895 6  -5789551.095 7  22667913.152        -949.765
 92 10 20 18 30  0.0030000  0  6 20  3 26 16 17 23                   0.003895090
  35820654.927 5  19118372.687 5  24902770.927        4797.761
  -4857938.719 7  -3924608.131 9  21631591.442         704.842
  -2454092.981 6  -1919493.542 6  23767580.268         523.205
  22504788.490 5  17521554.186 5  25202289.860        4634.853
  -6539754.412 7  -5299803.595 9  21883997.454         634.297
  -8499245.728 6  -5811584.954 7  22662531.937        -935.325
 92 10 20 18 30 30.0030000  0  6 20  3 26 16 17 23                   0.003919920
  35964633.214 5  19230563.389 5  24930169.389        4800.334
  -4836579.498 7  -3907964.595 9  21635655.829         718.527
  -2438125.899 6  -1907051.650 6  23770619.073         541.062
  22643929.513 5  17629975.671 5  25228767.606        4640.731
  -6520605.686 7  -5284882.506 9  21887641.623         641.866
  -8527086.415 6  -5833278.945 7  22657233.845        -921.246
 92 10 20 18 31  0.0030000  0  6 20  3 26 16 17 23                   0.003944770
  36108676.548 5  19342804.745 5  24957579.767        4802.402
  -4814820.328 7  -3891009.398 9  21639796.540         731.866
  -2421623.888 6  -1894192.932 6  23773758.999         559.022
  22783229.137 5  17738520.703 5  25255275.316        4645.902
  -6501241.360 7  -5269793.425 9  21891326.459         649.172
  -8554512.760 7  -5854650.094 7  22652014.797        -907.375
 92 10 20 18 31 30.0030000  0  6 20  3 26 16 17 23                   0.003969650
  36252778.804 5  19455092.011 5  24985001.641        4804.295
  -4792662.347 7  -3873743.431 9  21644013.221         745.151
  -2404584.867 6  -1880915.740 6  23777001.475         576.937
  22922687.716 5  17847189.589 5  25281813.353        4651.404
  -6481649.384 7  -5254526.941 9  21895054.697         656.979
  -8581534.739 7  -5875706.133 8  22646872.576        -894.082
 92 10 20 18 32  0.0030000  0  6 20  3 26 16 17 23                   0.003994570
  36396938.220 5  19567423.823 5  25012435.081        4806.387
  -4770102.419 7  -3856164.256 9  21648306.328         758.724
  -2387011.712 6  -1867222.338 6  23780345.179         594.686
  23062304.742 5  17955981.996 5  25308381.734        4656.369
  -6461817.382 7  -5239073.436 9  21898828.667         665.257
  -8608151.045 7  -5896446.066 8  22641807.651        -880.407
 92 10 20 18 32 30.0040000  0  6 20  3 26 16 17 23                   0.004019500
  36541165.358 5  19679808.403 5  25039880.752        4808.125
  -4747129.544 7  -3838263.324 9  21652677.644         772.284
  -2368896.857 6  -1853106.835 6  23783792.763         612.892
  23202066.755 5  18064887.309 5  25334977.750        4660.209
  -6441722.340 7  -5223414.953 9  21902652.471         674.075
  -8634356.954 7  -5916866.207 8  22636820.754        -866.823
 92 10 20 18 33  0.0040000  0  6 20  3 26 16 17 23                   0.004044440
  36685438.090 5  19792228.521 5  25067335.026        4809.841
  -4723752.152 7  -3820047.169 9  21657126.074         785.906
  -2350237.030 6  -1838566.711 6  23787343.506         630.782
  23341931.887 5  18173872.987 5  25361593.309        4663.991
  -6421368.521 7  -5207554.814 9  21906525.527         682.822
  -8660148.447 7  -5936963.442 8  22631912.783        -852.739
 92 10 20 18 33 30.0040000  0  6 20  3 26 16 17 23                   0.004069390
  36829755.053 5  19904683.096 5  25094797.506        4811.075
  -4699970.617 7  -3801516.091 9  21661651.711         799.211
  -2331054.816 6  -1823619.485 6  23790993.568         647.939
  23481902.896 5  18282941.158 5  25388228.537        4667.206
  -6400751.780 7  -5191489.812 9  21910448.664         691.437
  -8685531.854 7  -5956742.684 8  22627082.685        -839.420
 92 10 20 18 34  0.0040000  0  6 20  3 26 16 17 23                   0.004094340
  36974115.114 5  20017171.255 5  25122268.624        4812.752
  -4675781.515 7  -3782667.439 9  21666254.984         813.043
  -2311356.450 6  -1808270.069 6  23794741.642         665.177
  23621967.352 5  18392082.163 5  25414882.023        4670.147
  -6379873.942 7  -5175221.355 9  21914421.441         700.312
  -8710502.181 7  -5976200.026 8  22622331.108        -825.431
 92 10 20 18 34 30.0040000  0  6 20  3 26 16 17 23                   0.004119300
  37118516.443 5  20129691.582 5  25149747.651        4813.921
  -4651181.504 7  -3763498.593 9  21670936.152         826.728
  -2291150.246 6  -1792524.943 6  23798586.842         681.928
  23762121.859 5  18501293.337 5  25441552.921        4673.505
  -6358734.805 7  -5158749.276 9  21918443.898         708.990
  -8735057.150 7  -5995333.726 8  22617658.510        -811.602
 92 10 20 18 35  0.0040000  0  6 20  3 26 16 17 23                   0.004144280
  37262953.546 5  20242239.778 5  25177233.385        4815.187
  -4626171.692 7  -3744010.444 9  21675695.218         840.467
  -2270450.401 6  -1776395.164 6  23802525.773         698.044
  23902378.856 5  18610584.362 5  25468242.942        4677.224
  -6337340.640 7  -5142078.500 9  21922514.978         717.422
  -8759203.766 7  -6014149.217 8  22613063.619        -798.141
 92 10 20 18 35 30.0040000  0  6 20  3 26 16 17 23                   0.004169290
  37407421.046 5  20354811.685 5  25204724.192        4816.149
  -4600752.008 7  -3724202.885 9  21680532.520         854.138
  -2249263.721 6  -1759886.029 6  23806557.435         714.710
  24042741.284 5  18719957.532 5  25494952.950        4680.351
  -6315693.389 7  -5125210.489 9  21926634.306         725.778
  -8782956.438 7  -6032657.758 8  22608543.576        -785.005
 92 10 20 18 36  0.0040000  0  6 20  3 26 16 17 23                   0.004194300
  37551922.354 5  20467409.887 5  25232221.863        4817.309
  -4574914.291 7  -3704069.612 9  21685449.117         868.195
  -2227565.087 6  -1742977.983 6  23810686.827         732.029
  24183202.161 5  18829407.442 5  25521681.825        4683.672
  -6293794.086 7  -5108146.086 9  21930801.700         734.205
  -8806298.075 7  -6050845.998 8  22604101.644        -771.074
 92 10 20 18 36 30.0040000  0  6 20  3 26 16 17 23                   0.004219340
  37696457.329 5  20580034.358 5  25259726.266        4818.735
  -4548653.841 7  -3683606.925 9  21690446.525         882.633
  -2205325.762 6  -1725648.607 5  23814918.794         750.963
  24323766.674 5  18938938.096 5  25548430.581        4687.526
  -6271640.352 7  -5090883.429 9  21935017.344         743.015
  -8829215.000 7  -6068703.318 8  22599740.885        -756.419
 92 10 20 18 37  0.0040000  0  6 20  3 26 16 17 23                   0.004244370
  37841026.046 5  20692685.119 5  25287236.839        4819.516
  -4521965.760 7  -3662811.025 9  21695525.001         896.696
  -2182514.501 6  -1707873.567 6  23819259.519         770.142
  24464429.391 5  19048545.235 5  25575198.049        4690.410
  -6249230.153 7  -5073420.928 9  21939281.612         751.387
  -8851699.076 7  -6086223.319 8  22595461.946        -741.961
 92 10 20 18 37 30.0040000  0  6 20  3 26 16 17 23                   0.004269410
  37985630.039 5  20805363.369 5  25314753.809        4820.575
  -4494843.328 7  -3641676.660 9  21700686.048         911.169
  -2159108.374 6  -1689634.984 6  23823713.866         790.236
  24605190.560 5  19158229.168 5  25601984.039        4693.584
  -6226559.959 7  -5055755.839 9  21943595.684         759.826
  -8873727.911 7  -6103388.619 8  22591269.870        -726.719
 92 10 20 18 38  0.0040000  0  6 20  3 26 16 17 23                   0.004294460
  38130271.510 5  20918070.777 5  25342278.515        4822.202
  -4467279.993 7  -3620198.742 9  21705931.117         926.261
  -2135099.618 6  -1670926.836 6  23828282.911         810.362
  24746062.449 5  19267999.276 5  25628790.766        4698.013
  -6203635.156 7  -5037892.360 9  21947958.125         768.571
  -8895292.072 7  -6120191.815 8  22587166.310        -710.958
 92 10 20 18 38 30.0040000  0  6 20  3 26 16 17 23                   0.004319540
  38274950.196 5  21030807.259 5  25369810.514        4823.005
  -4439271.571 7  -3598373.999 9  21711261.077         940.763
  -2110502.248 6  -1651760.019 6  23832963.603         829.148
  24887060.520 5  19377867.799 5  25655621.692        4701.917
  -6180454.804 7  -5019829.721 9  21952369.073         776.739
  -8916400.169 7  -6136639.654 8  22583149.591        -696.406
 92 10 20 18 39  0.0040000  0  6 20  3 26 16 17 23                   0.004344640
  38419647.557 5  21143558.250 5  25397345.811        4823.383
  -4410831.083 7  -3576212.587 9  21716672.990         955.071
  -2085369.345 6  -1632175.912 6  23837746.173         846.242
  25028167.514 5  19487821.191 5  25682474.010        4705.236
  -6157040.133 7  -5001584.522 9  21956824.725         784.204
  -8937081.909 7  -6152755.256 8  22579214.223        -682.276
 92 10 20 18 39 30.0040000  0  6 20  3 26 16 17 23                   0.004369760
  38564357.303 5  21256318.906 5  25424883.051        4823.746
  -4381960.537 7  -3553716.050 9  21722166.795         969.187
  -2059727.653 6  -1612195.351 6  23842625.467         863.050
  25169373.694 5  19597851.832 5  25709344.933        4708.213
  -6133406.877 7  -4983168.985 9  21961322.041         791.047
  -8957342.169 7  -6168542.454 8  22575358.724        -668.697
 92 10 20 18 40  0.0040000  0  6 20  3 26 16 17 23                   0.004394890
  38709068.825 5  21369080.915 5  25452421.225        4823.635
  -4352665.517 7  -3530888.764 9  21727741.407         983.509
  -2033583.010 6  -1591822.878 6  23847600.488         879.905
  25310660.832 5  19707945.535 5  25736230.958        4710.842
  -6109566.134 7  -4964591.763 9  21965858.755         798.214
  -8977199.455 7  -6184015.632 8  22571579.944        -655.243
 92 10 20 18 40 30.0040000  0  6 20  3 26 16 17 23                   0.004420020
  38853767.635 5  21481833.019 5  25479956.631        4823.093
  -4322955.817 7  -3507738.360 8  21733395.213         997.202
  -2006939.401 6  -1571061.598 6  23852670.542         896.617
  25452010.600 5  19818088.062 5  25763128.849        4712.765
  -6085517.497 7  -4945852.547 9  21970434.924         805.197
  -8996668.237 7  -6199186.068 8  22567874.937        -642.374
 92 10 20 18 41  0.0040000  0  6 20  3 26 16 17 23                   0.004445150
  38998445.968 5  21594569.210 5  25507488.462        4822.453
  -4292834.208 7  -3484266.984 8  21739127.204        1011.050
  -1979788.076 6  -1549904.694 6  23857837.263         914.054
  25593410.071 5  19928269.407 5  25790036.352        4714.355
  -6061262.446 7  -4926952.511 9  21975050.747         812.304
  -9015743.819 7  -6214050.130 8  22564244.829        -628.969
 92 10 20 18 41 30.0040000  0  6 20  3 26 16 17 23                   0.004470280
  39143116.075 5  21707298.979 5  25535018.387        4822.145
  -4262283.884 7  -3460461.527 8  21744940.651        1025.374
  -1952083.329 6  -1528316.551 6  23863109.326         932.928
  25734874.477 5  20038501.243 5  25816955.921        4716.696
  -6036775.683 7  -4907871.896 9  21979710.673         820.143
  -9034410.354 7  -6228595.434 8  22560692.529        -615.477
 92 10 20 18 42  0.0040000  0  6 20  3 26 16 17 23                   0.004495420
  39287780.358 5  21820024.166 5  25562547.025        4821.889
  -4231297.732 7  -3436316.491 8  21750837.008        1039.937
  -1923816.196 6  -1506290.163 6  23868488.159         951.216
  25876425.624 5  20148800.720 5  25843892.347        4719.671
  -6012041.075 7  -4888598.173 9  21984417.434         828.583
  -9052662.362 7  -6242817.741 8  22557219.463        -601.585
 92 10 20 18 42 30.0040000  0  6 20  3 26 16 17 23                   0.004520570
  39432436.169 5  21932742.766 5  25590074.079        4821.633
  -4199873.878 7  -3411830.361 8  21756817.019        1054.698
  -1895004.155 6  -1483839.217 6  23873971.115         969.369
  26018059.225 5  20259164.471 5  25870844.076        4722.289
  -5987053.814 7  -4869127.561 9  21989172.104         836.903
  -9070491.911 7  -6256710.879 8  22553826.900        -587.188
 92 10 20 18 43  0.0040000  0  6 20  3 26 16 17 23                   0.004545740
  39577079.791 5  22045451.930 5  25617598.994        4821.061
  -4168011.001 7  -3387002.146 8  21762880.261        1069.191
  -1865653.604 6  -1460968.637 6  23879555.836         987.114
  26159764.200 5  20369583.766 5  25897809.899        4724.495
  -5961829.314 7  -4849472.098 9  21993972.369         844.597
  -9087892.552 7  -6270269.755 8  22550515.913        -573.171
 92 10 20 18 43 30.0040000  0  6 20  3 26 16 17 23                   0.004570920
  39721699.442 5  22158142.340 5  25645119.243        4820.099
  -4135716.430 7  -3361837.544 8  21769025.528        1083.456
  -1835771.200 6  -1437683.613 6  23885242.381        1004.775
  26301536.578 5  20480055.608 5  25924788.849        4726.770
  -5936379.891 7  -4829641.377 9  21998815.386         851.888
  -9104878.397 7  -6283505.464 8  22547283.613        -559.226
 92 10 20 18 44  0.0040000  0  6 20  3 26 16 17 23                   0.004596110
  39866294.772 5  22270813.815 5  25672634.277        4819.905
  -4102985.947 7  -3336333.273 8  21775253.774        1098.729
  -1805357.262 6  -1413984.417 6  23891030.103        1023.223
  26443373.350 5  20590577.634 5  25951779.555        4729.239
  -5910703.599 7  -4809633.861 9  22003701.406         860.203
  -9121436.755 7  -6296408.031 8  22544132.412        -544.415
 92 10 20 18 44 30.0040000  0  6 20  3 26 16 17 23                   0.004621300
  40010883.591 5  22383480.239 5  25700148.677        4819.493
  -4069796.829 7  -3310471.609 8  21781569.633        1113.860
  -1774378.225 6  -1389844.863 6  23896925.023        1042.364
  26585281.010 5  20701154.887 5  25978783.564        4731.560
  -5884785.851 7  -4789438.204 9  22008633.151         867.853
  -9137551.825 7  -6308965.191 8  22541065.684        -529.776
 92 10 20 18 45  0.0040000  0  6 20  3 26 16 17 23                   0.004646510
  40155445.354 5  22496125.569 5  25727658.015        4818.004
  -4036165.066 7  -3284265.033 8  21787969.411        1128.120
  -1742828.306 6  -1365260.490 6  23902928.665        1060.992
  26727251.104 5  20811780.782 5  26005800.322        4733.237
  -5858643.155 7  -4769067.260 9  22013607.786         875.105
  -9153242.655 7  -6321191.774 8  22538079.763        -516.204
 92 10 20 18 45 30.0040000  0  6 20  3 26 16 17 23                   0.004671710
  40299971.733 5  22608743.258 5  25755160.403        4816.810
  -4002094.667 7  -3257716.677 8  21794452.784        1142.876
  -1710712.786 6  -1340235.383 6  23909040.148        1079.833
  26869279.880 5  20922452.445 5  26032827.545        4735.121
  -5832264.491 7  -4748512.453 9  22018627.641         883.330
  -9168515.469 7  -6333092.633 8  22535173.515        -502.138
 92 10 20 18 46  0.0040000  0  7 20  3 26 21 16 17 23                0.004696900
  40444456.808 5  22721328.839 5  25782655.066        4815.203
  -3967586.837 7  -3230827.460 8  21801019.449        1157.160
  -1678042.934 6  -1314778.341 6  23915256.705        1097.770
   9427000.01115   -101115.56811  25559240.363       -1950.568
  27011351.691 5  21033157.584 5  26059862.990        4736.193
  -5805644.663 7  -4727769.733 9  22023693.083         890.916
  -9183372.605 7  -6344669.586 8  22532346.253        -488.843
 92 10 20 18 46 30.0040000  0  7 20  3 26 21 16 17 23                0.004722120
  40588891.586 5  22833875.215 5  25810140.164        4813.903
  -3932645.828 7  -3203600.684 8  21807668.675        1172.105
  -1644835.677 6  -1288902.546 6  23921575.896        1116.084
   9368571.529 5   -146651.356 1  25548121.316       -1944.579
  27153462.271 5  21143892.954 5  26086906.141        4737.894
  -5778802.852 7  -4706854.030 9  22028800.858         898.600
  -9197828.339 7  -6355933.751 9  22529595.275        -474.786
 92 10 20 18 47  0.0040000  0  7 20  3 26 21 16 17 23                0.004747360
  40733291.954 5  22946394.770 5  25837619.298        4812.729
  -3897251.288 7  -3176020.530 8  21814403.844        1187.337
  -1611084.805 6  -1262603.139 6  23927998.577        1133.884
   9310322.604 5   -192034.782 1  25537036.925       -1938.774
  27295624.743 5  21254668.774 5  26113958.716        4739.551
  -5751717.299 7  -4685748.390 9  22033954.920         906.865
  -9211859.153 7  -6366866.815 9  22526925.203        -460.613
 92 10 20 18 47 30.0040000  0  6 20  3 26 21 17 23                   0.004772570
  40877655.829 5  23058885.863 5  25865090.870        4811.209
  -3861400.998 7  -3148085.237 8  21821225.831        1202.250
  -1576803.796 6  -1235890.652 6  23934522.362        1151.188
   9252251.195 5   -237285.139 3  25525986.043       -1932.917
  -5724395.614 7  -4664458.781 9  22039153.913         914.219
  -9225469.155 7  -6377471.980 9  22524335.248        -446.856
 92 10 20 18 48  0.0040000  0  6 20  3 26 21 17 23                   0.004797860
  41021967.239 5  23171336.077 5  25892552.428        4809.732
  -3825106.350 7  -3119803.698 8  21828132.577        1217.329
  -1542008.317 6  -1208777.281 6  23941143.710        1168.630
   9194347.497 5   -282404.805 4  25514966.992       -1927.430
  -5696867.971 7  -4643008.649 9  22044392.116         920.962
  -9238665.906 7  -6387755.128 9  22521823.965        -432.697
 92 10 20 18 48 30.0040000  0  6 20  3 26 21 17 23                   0.004823110
  41166228.362 5  23283747.150 5  25920004.601        4807.712
  -3788360.507 7  -3091170.568 8  21835125.079        1232.174
  -1506685.608 6  -1181253.081 6  23947865.578        1186.248
   9136591.488 5   -327409.374 5  25503975.837       -1922.909
  -5669140.878 7  -4621403.122 9  22049668.453         927.598
  -9251433.316 7  -6397703.723 9  22519394.508        -418.433
 92 10 20 18 49  0.0040000  0  6 20  3 26 21 17 23                   0.004848330
  41310437.306 5  23396117.515 5  25947447.277        4806.112
  -3751160.776 7  -3062183.768 8  21842203.906        1247.511
  -1470822.924 6  -1153308.118 6  23954689.953        1204.477
   9078981.801 5   -372299.892 5  25493012.707       -1917.630
  -5641197.918 7  -4599629.380 9  22054985.903         935.070
  -9263764.146 7  -6407312.127 9  22517048.112        -403.701
 92 10 20 18 49 30.0040000  0  6 20  3 26 21 17 23                   0.004873520
  41454591.404 5  23508445.188 5  25974878.984        4804.342
  -3713505.748 7  -3032842.180 8  21849369.595        1262.799
  -1434418.476 6  -1124941.016 6  23961617.508        1222.661
   9021531.115 5   -417066.576 5  25482080.083       -1912.127
  -5613039.706 7  -4577687.927 9  22060344.300         942.513
  -9275656.555 7  -6416578.903 9  22514785.200        -388.821
 92 10 20 18 50  0.0040000  0  6 20  3 26 21 17 23                   0.004898700
  41598691.552 5  23620730.813 5  26002300.332        4802.638
  -3675389.794 7  -3003141.433 8  21856622.866        1278.367
  -1397462.864 6  -1096144.434 6  23968650.170        1241.463
   8964244.780 5   -461705.173 5  25471179.828       -1906.574
  -5584649.698 7  -4555565.822 9  22065746.820         950.556
  -9287101.754 7  -6425497.191 9  22512607.226        -373.854
 92 10 20 18 50 30.0040000  0  6 20  3 26 21 17 23                   0.004923890
  41742749.756 5  23732983.727 5  26029714.373        4801.323
  -3636796.874 7  -2973069.033 8  21863966.952        1294.439
  -1359929.722 6  -1066897.809 6  23975792.383        1260.966
   8907139.671 5   -506202.564 5  25460313.480       -1899.999
  -5555998.991 7  -4533240.606 9  22071199.017         959.674
  -9298089.474 7  -6434059.020 9  22510516.553        -358.620
 92 10 20 18 51  0.0040000  0  6 20  3 26 21 17 23                   0.004949120
  41886769.681 5  23845206.827 5  26057121.148        4800.085
  -3597718.828 7  -2942618.603 8  21871403.334        1310.603
  -1321814.164 6  -1037197.360 6  23983045.164        1280.097
   8850247.937 5   -550533.688 5  25449486.964       -1892.745
  -5527069.815 7  -4510698.369 9  22076704.175         968.922
  -9308620.201 7  -6442264.767 9  22508512.641        -343.357
 92 10 20 18 51 30.0040000  0  6 20  3 26 21 17 23                   0.004974390
  42030746.543 5  23957396.378 5  26084519.396        4798.210
  -3558156.017 7  -2911790.456 8  21878931.721        1326.552
  -1283127.969 6  -1007052.274 6  23990407.046        1298.937
   8793575.904 5   -594693.648 5  25438702.046       -1885.715
  -5497868.019 7  -4487943.720 9  22082261.120         977.821
  -9318695.459 7  -6450115.565 9  22506595.469        -328.534
 92 10 20 18 52  0.0040000  0  6 20  3 26 21 17 23                   0.004999700
  42174666.666 5  24069541.706 5  26111906.475        4796.415
  -3518117.269 7  -2880591.432 8  21886550.763        1342.455
  -1243872.229 6   -976463.370 6  23997877.105        1318.105
   8737106.975 5   -638695.321 5  25427955.855       -1878.977
  -5468406.689 7  -4464986.815 9  22087867.556         986.125
  -9328332.605 7  -6457624.999 9  22504761.449        -314.093
 92 10 20 18 52 30.0050000  0  6 20  3 26 21 17 23                   0.005025040
  42318539.539 5  24181650.174 5  26139284.829        4794.838
  -3477592.815 7  -2849013.947 8  21894262.598        1358.903
  -1204033.796 6   -945420.426 6  24005458.798        1337.585
   8680836.754 5   -682542.166 5  25417248.034       -1872.161
  -5438697.963 7  -4441837.156 9  22093520.895         994.356
  -9337533.945 7  -6464794.840 9  22503010.400        -299.424
 92 10 20 18 53  0.0050000  0  6 20  3 26 21 17 23                   0.005050400
  42462347.951 5  24293708.449 5  26166650.236        4792.514
  -3436588.428 7  -2817062.481 8  21902065.496        1374.729
  -1163632.580 6   -913938.953 6  24013146.678        1356.032
   8624767.566 5   -726232.342 5  25406578.550       -1865.815
  -5408756.954 7  -4418506.492 9  22099218.481        1001.682
  -9346313.254 7  -6471635.839 9  22501339.676        -285.711
 92 10 20 18 53 30.0050000  0  6 20  3 26 21 17 23                   0.005075780
  42606082.093 5  24405708.830 5  26194002.380        4789.626
  -3395112.845 7  -2784743.851 8  21909958.203        1389.981
  -1122673.915 6   -882023.073 6  24020940.681        1374.465
   8568873.142 5   -769786.375 5  25395941.741       -1860.680
  -5378608.272 7  -4395014.008 9  22104955.767        1008.172
  -9354689.943 7  -6478163.085 9  22499745.520        -272.771
 92 10 20 18 54  0.0050000  0  6 20  3 26 21 17 23                   0.005101170
  42749735.679 5  24517646.441 5  26221338.692        4787.302
  -3353168.342 7  -2752059.831 8  21917939.817        1406.045
  -1081158.141 6   -849673.088 6  24028840.767        1393.143
   8513143.719 5   -813211.819 5  25385336.996       -1854.630
  -5348250.678 7  -4371358.717 9  22110732.418        1015.551
  -9362665.364 7  -6484377.659 9  22498227.940        -258.888
 92 10 20 18 54 30.0050000  0  6 20  3 26 21 17 23                   0.005126560
  42893309.902 5  24629522.208 5  26248660.380        4784.431
  -3310749.549 7  -2719006.231 8  21926011.748        1421.747
  -1039097.064 6   -816898.169 6  24036844.800        1410.898
   8457595.036 5   -856496.394 5  25374766.748       -1848.274
  -5317670.822 7  -4347530.253 9  22116551.450        1023.345
  -9370226.018 7  -6490269.050 9  22496789.148        -245.012
 92 10 20 18 55  0.0050000  0  6 20  3 26 21 17 23                   0.005151960
  43036803.880 5  24741335.444 5  26275966.542        4781.946
  -3267853.211 7  -2685580.511 8  21934174.447        1437.947
   -996502.758 6   -783707.781 6  24044950.145        1429.094
   8402241.921 5   -899628.592 5  25364233.404       -1841.828
  -5286844.728 7  -4323509.914 9  22122417.269        1031.920
  -9377352.954 7  -6495822.478 9  22495432.766        -229.856
 92 10 20 18 55 30.0050000  0  6 20  3 26 21 17 23                   0.005177360
  43180220.289 5  24853088.240 5  26303257.923        4779.482
  -3224472.319 7  -2651777.234 8  21942429.742        1454.265
   -953354.978 6   -750086.084 6  24053160.600        1447.720
   8347083.122 5   -942609.363 5  25353737.154       -1835.095
  -5255762.607 7  -4299290.074 9  22128331.694        1040.696
  -9384023.210 7  -6501020.033 9  22494163.294        -214.309
 92 10 20 18 56  0.0050000  0  5  3 26 21 17 23                      0.005202720
  -3180608.006 7  -2617597.265 8  21950776.915        1470.048
   -909662.165 6   -716039.715 6  24061475.367        1465.412
   8292129.073 5   -985430.586 5  25343279.790       -1828.388
  -5224425.406 7  -4274871.470 9  22134295.116        1048.505
  -9390230.023 7  -6505856.499 9  22492981.954        -199.267
 92 10 20 18 56 30.0050000  0  5  3 26 21 17 23                      0.005228090
  -3136264.053 7  -2583043.535 8  21959215.020        1485.864
   -865426.850 6   -681570.590 6  24069893.281        1483.552
   8237377.748 5  -1028093.835 5  25332860.410       -1821.909
  -5192860.172 7  -4250275.180 9  22140301.789        1055.613
  -9395982.231 7  -6510338.695 9  22491887.291        -184.375
 92 10 20 18 57  0.0050000  0  5  3 26 21 17 23                      0.005253450
  -3091439.481 7  -2548115.331 8  21967744.886        1501.951
   -820635.191 6   -646667.897 6  24078416.948        1502.424
   8182824.788 5  -1070602.529 5  25322478.830       -1815.317
  -5161085.829 7  -4225515.938 9  22146348.192        1062.242
  -9401282.943 7  -6514469.075 9  22490878.758        -169.473
 92 10 20 18 57 30.0050000  0  5  3 26 21 17 23                      0.005278810
  -3046132.970 7  -2512811.550 8  21976366.348        1517.937
   -775274.620 6   -611322.005 6  24087048.544        1521.044
   8128478.252 5  -1112950.391 5  25312136.924       -1808.051
  -5129117.734 7  -4200605.728 9  22152431.320        1068.584
  -9406150.102 7  -6518261.629 9  22489952.429        -155.413
 92 10 20 18 58  0.0050000  0  5  3 26 21 17 23                      0.005304180
  -3000346.571 7  -2477133.853 8  21985079.265        1534.032
   -729363.022 6   -575546.710 6  24095785.225        1539.429
   8074349.701 5  -1155128.331 5  25301836.493       -1800.759
  -5096963.291 7  -4175550.317 9  22158550.183        1074.867
  -9410597.433 7  -6521727.065 9  22489106.227        -141.430
 92 10 20 18 58 30.0050000  0  5  3 26 21 17 23                      0.005329570
  -2954084.122 7  -2441085.203 8  21993882.722        1550.121
   -682902.211 6   -539343.448 6  24104626.514        1558.188
   8020432.923 5  -1197141.308 5  25291576.515       -1793.401
  -5064617.027 7  -4150345.429 9  22164705.634        1081.866
  -9414631.072 7  -6524870.120 9  22488338.567        -127.314
 92 10 20 18 59  0.0050000  0  5  3 26 21 17 23                      0.005355000
  -2907336.689 7  -2404658.635 8  22002778.652        1566.330
   -635872.804 6   -502697.132 6  24113575.449        1577.237
   7966743.128 5  -1238977.424 5  25281360.089       -1785.943
  -5032046.338 7  -4124965.672 9  22170903.812        1089.765
  -9418239.542 7  -6527681.902 9  22487651.882        -113.082
 92 10 20 18 59 30.0050000  0  5  3 26 21 17 23                      0.005380470
  -2860089.700 7  -2367842.812 8  22011769.548        1583.045
   -588259.835 6   -465596.087 6  24122635.917        1596.608
   7913282.605 5  -1280634.856 5  25271186.979       -1778.431
  -4999219.394 7  -4099386.226 9  22177150.618        1098.443
  -9421406.402 7  -6530149.532 9  22487049.329         -98.190
 92 10 20 19  0  0.0050000  0  5  3 26 21 17 23                      0.005405960
  -2812352.416 7  -2330644.950 8  22020853.339        1599.406
   -540074.527 6   -428049.080 6  24131805.616        1615.914
   7860023.759 5  -1322135.147 5  25261051.941       -1772.065
  -4966137.570 7  -4073608.171 9  22183445.939        1107.210
  -9424129.147 7  -6532271.127 9  22486531.208         -83.232
 92 10 20 19  0 30.0050000  0  5  3 26 21 17 23                      0.005431470
  -2764121.317 7  -2293062.275 8  22030031.435        1615.745
   -491303.938 6   -390045.990 6  24141086.352        1635.374
   7806960.684 5  -1363482.880 5  25250954.267       -1765.687
  -4932789.171 7  -4047622.415 9  22189792.314        1115.857
  -9426400.506 7  -6534040.972 9  22486098.789         -68.386
 92 10 20 19  1  0.0050000  0  5  3 26 21 17 23                      0.005456990
  -2715403.470 7  -2255100.327 8  22039302.279        1631.756
   -441958.948 6   -351595.343 6  24150475.826        1653.844
   7754076.669 5  -1404691.107 5  25240890.967       -1760.160
  -4899188.236 7  -4021439.852 9  22196186.222        1123.840
  -9428236.347 7  -6535471.463 9  22485749.409         -54.300
 92 10 20 19  1 30.0050000  0  5  3 26 21 17 23                      0.005482510
  -2666193.768 7  -2216755.127 8  22048666.386        1648.585
   -392057.567 6   -312711.133 6  24159971.731        1672.744
   7701379.783 5  -1445753.535 5  25230862.928       -1753.079
  -4865343.464 7  -3995067.300 9  22202626.432        1132.305
  -9429645.213 7  -6536569.258 9  22485481.286         -39.787
 92 10 20 19  2  0.0050000  0  5  3 26 21 17 23                      0.005508050
  -2616481.579 7  -2178018.363 8  22058126.488        1665.287
   -341592.595 6   -273387.774 6  24169574.632        1691.388
   7648900.058 5  -1486646.699 5  25220876.073       -1745.612
  -4831253.904 7  -3968503.987 9  22209113.462        1140.092
  -9430620.780 7  -6537329.416 9  22485295.623         -25.456
 92 10 20 19  2 30.0050000  0  5  3 26 21 17 23                      0.005533610
  -2566273.289 7  -2138895.031 8  22067680.782        1681.824
   -290576.144 6   -233634.674 6  24179282.753        1709.831
   7596642.645 5  -1527366.684 5  25210932.213       -1738.314
  -4796953.846 7  -3941776.668 9  22215640.472        1146.599
  -9431178.518 7  -6537763.984 9  22485189.516         -11.666
 92 10 20 19  3  0.0050000  0  5  3 26 21 17 23                      0.005559190
  -2515563.635 7  -2099381.017 8  22077330.634        1698.614
   -239002.421 6   -193447.369 6  24189096.965        1728.387
   7544608.510 5  -1567912.710 5  25201030.108       -1730.607
  -4762455.502 7  -3914894.845 9  22222205.128        1153.365
  -9431316.735 7  -6537871.672 9  22485162.925           2.459
 92 10 20 19  3 30.0050000  0  5  3 26 21 17 23                      0.005584770
  -2464345.491 7  -2059470.782 8  22087077.214        1715.650
   -186869.775 6   -152824.525 6  24199017.220        1747.154
   7492803.474 5  -1608280.132 5  25191171.396       -1723.213
  -4727749.309 7  -3887851.052 9  22228809.476        1160.346
  -9431022.783 7  -6537642.592 9  22485218.580          17.157
 92 10 20 19  4  0.0050000  0  5  3 26 21 17 23                      0.005610340
  -2412622.785 7  -2019167.383 8  22096919.541        1732.391
   -134182.233 6   -111769.281 6  24209043.178        1765.345
   7441204.463 5  -1648487.061 5  25181352.624       -1716.624
  -4692840.540 7  -3860649.402 9  22235452.307        1166.964
  -9430284.503 7  -6537067.279 9  22485359.440          32.055
 92 10 20 19  4 30.0050000  0  5  3 26 21 17 23                      0.005635870
  -2360392.982 7  -1978468.848 8  22106858.579        1749.447
    -80949.460 6    -70289.202 6  24219172.795        1783.666
   7389795.821 5  -1688545.627 5  25171570.006       -1710.553
  -4657723.095 7  -3833285.162 9  22242134.821        1174.486
  -9429100.631 7  -6536144.761 9  22485584.663          47.072
 92 10 20 19  5  0.0050000  0  5  3 26 21 17 23                      0.005661380
  -2307653.950 7  -1937373.488 8  22116894.512        1766.260
    -27173.192 6    -28385.620 6  24229406.392        1801.426
   7338577.031 5  -1728456.280 5  25161823.642       -1704.022
  -4622362.317 7  -3805731.319 9  22248863.862        1182.790
  -9427463.540 7  -6534869.081 9  22485896.209          62.086
 92 10 20 19  5 30.0050000  0  5  3 26 21 17 23                      0.005686850
  -2254404.588 7  -1895880.490 8  22127027.638        1783.248
     27144.433 6     13939.814 6  24239742.934        1819.656
   7287556.355 6  -1768212.535 5  25152114.702       -1697.448
  -4586749.134 7  -3777980.763 9  22255641.022        1191.065
  -9425364.599 7  -6533233.501 9  22486295.561          77.617
 92 10 20 19  6  0.0050000  0  5  3 26 21 17 23                      0.005712320
  -2200646.417 7  -1853991.005 8  22137257.327        1800.387
     82013.648 6     56695.049 6  24250184.366        1838.316
   7236746.173 5  -1807804.785 5  25142445.736       -1689.755
  -4550892.865 7  -3750040.827 9  22262464.237        1199.286
  -9422804.182 7  -6531238.371 9  22486782.793          92.980
 92 10 20 19  6 30.0050000  0  5  3 26 21 17 23                      0.005737790
  -2146381.053 7  -1811706.319 8  22147583.818        1816.968
    137445.943 6     99889.055 6  24260733.004        1857.006
   7186168.363 5  -1847215.984 5  25132820.632       -1682.057
  -4514795.570 7  -3721913.050 9  22269333.231        1206.930
  -9419793.039 7  -6528891.989 9  22487355.855         107.622
 92 10 20 19  7  0.0050000  0  5  3 26 21 17 23                      0.005763300
  -2091613.784 7  -1769030.515 8  22158005.603        1833.798
    193440.541 6    143521.222 6  24271388.335        1875.849
   7135837.151 5  -1886435.012 5  25123242.990       -1673.576
  -4478467.533 7  -3693605.485 9  22276246.495        1214.627
  -9416341.867 7  -6526202.736 9  22488012.623         122.274
 92 10 20 19  7 30.0050000  0  5  3 26 21 17 23                      0.005788840
  -2036341.188 7  -1725960.959 8  22168523.551        1850.847
    249999.932 6    187593.490 6  24282151.146        1894.696
   7085751.085 5  -1925462.987 5  25113712.056       -1665.460
  -4441915.491 7  -3665123.367 9  22283202.031        1222.260
  -9412456.727 7  -6523175.330 9  22488751.953         136.771
 92 10 20 19  8  0.0050000  0  5  3 26 21 17 23                      0.005814410
  -1980564.798 7  -1682498.837 8  22179137.524        1867.454
    307107.747 6    232093.098 6  24293018.594        1912.559
   7035904.584 5  -1964304.334 5  25104226.645       -1657.675
  -4405136.442 7  -3636464.374 9  22290200.906        1229.745
  -9408147.400 7  -6519817.383 9  22489572.062         150.567
 92 10 20 19  8 30.0050000  0  5  3 26 21 17 23                      0.005839980
  -1924280.044 7  -1638640.600 8  22189848.118        1884.390
    364759.316 6    277016.398 6  24303989.478        1930.553
   6986287.412 5  -2002966.996 5  25094784.387       -1650.482
  -4368123.639 7  -3607623.220 9  22297244.229        1237.454
  -9403415.829 7  -6516130.406 9  22490472.381         164.582
 92 10 20 19  9  0.0050000  0  5  3 26 21 17 23                      0.005865550
  -1867495.910 7  -1594393.225 8  22200653.774        1901.088
    422939.216 6    322351.443 6  24315060.644        1948.250
   6936869.291 6  -2041474.489 5  25085380.473       -1644.034
  -4330885.127 7  -3578606.208 9  22304330.514        1245.119
  -9398272.456 7  -6512122.551 9  22491451.154         178.354
 92 10 20 19  9 30.0050000  0  5  3 26 21 17 23                      0.005891100
  -1810201.725 7  -1549748.415 8  22211556.490        1918.821
    481657.978 6    368106.324 6  24326234.597        1966.746
   6887647.571 6  -2079829.047 5  25076013.937       -1636.877
  -4293411.787 7  -3549406.188 9  22311461.416        1253.461
  -9392706.794 7  -6507785.632 9  22492510.070         193.248
 92 10 20 19 10  0.0050000  0  5  3 26 21 17 23                      0.005916640
  -1752376.769 7  -1504690.009 8  22222560.281        1936.259
    540936.816 6    414297.641 6  24337514.777        1985.389
   6838651.386 6  -2118007.814 5  25066690.371       -1629.285
  -4255696.718 7  -3520017.819 9  22318638.399        1260.984
  -9386690.498 7  -6503097.583 9  22493654.886         207.962
 92 10 20 19 10 30.0050000  0  5  3 26 21 17 23                      0.005942180
  -1694029.050 7  -1459224.264 8  22233663.295        1953.049
    600776.769 6    460926.188 6  24348902.006        2003.530
   6789883.614 5  -2156008.601 5  25057409.753       -1622.126
  -4217760.973 7  -3490457.513 9  22325857.330        1267.656
  -9380233.956 7  -6498066.476 9  22494883.496         222.061
 92 10 20 19 11  0.0050000  0  5  3 26 21 17 23                      0.005967730
  -1635182.059 7  -1413369.484 8  22244861.614        1969.892
    661155.502 6    507974.541 6  24360391.972        2021.667
   6741334.957 5  -2193838.685 5  25048171.151       -1614.467
  -4179629.100 7  -3460744.371 9  22333113.368        1274.499
  -9373361.938 7  -6492711.638 9  22496191.131         236.138
 92 10 20 19 11 30.0050000  0  5  3 26 21 17 23                      0.005993270
  -1575828.576 7  -1367120.025 8  22256156.183        1986.735
    722077.172 6    555445.988 6  24371984.826        2039.656
   6693017.547 5  -2231488.536 5  25038976.430       -1606.753
  -4141294.860 7  -3430873.528 9  22340407.689        1281.009
  -9366059.694 7  -6487021.530 9  22497580.698         250.611
 92 10 20 19 12  0.0060000  0  5  3 26 21 17 23                      0.006018820
  -1515961.555 7  -1320470.415 8  22267548.556        2004.044
    783548.953 6    603346.065 6  24383682.159        2058.348
   6644939.503 5  -2268951.872 5  25029827.343       -1598.348
  -4102758.467 7  -3400845.184 9  22347740.971        1288.083
  -9358319.693 7  -6480990.344 9  22499053.508         265.171
 92 10 20 19 12 30.0060000  0  5  3 26 21 17 23                      0.006044400
  -1455575.457 7  -1273416.318 8  22279039.492        2021.393
    845580.451 6    651682.305 6  24395486.157        2077.059
   6597110.674 5  -2306221.049 5  25020725.980       -1590.386
  -4064001.903 7  -3370645.263 9  22355116.344        1295.650
  -9350149.227 7  -6474623.702 9  22500608.412         279.411
 92 10 20 19 13  0.0060000  0  5  3 26 21 17 23                      0.006069990
  -1394669.454 7  -1225957.137 8  22290629.719        2038.808
    908169.747 6    700453.174 6  24407396.631        2095.457
   6549518.423 6  -2343305.858 5  25011668.920       -1582.515
  -4025015.008 7  -3340265.858 9  22362535.558        1303.413
  -9341551.594 7  -6467924.218 9  22502244.549         293.759
 92 10 20 19 13 30.0060000  0  5  3 26 21 17 23                      0.006095590
  -1333245.400 7  -1178094.248 8  22302318.225        2056.132
    971306.025 6    749650.280 6  24419411.293        2113.857
   6502159.505 6  -2380208.872 5  25002656.772       -1574.519
  -3985804.654 7  -3309712.348 9  22369997.084        1310.673
  -9332530.919 7  -6460895.109 9  22503961.222         307.588
 92 10 20 19 14  0.0060000  0  5  3 26 21 17 23                      0.006121220
  -1271305.340 7  -1129829.282 8  22314105.057        2073.350
   1034995.953 6    799278.770 6  24431530.902        2132.389
   6455038.916 6  -2416926.171 5  24993690.090       -1566.616
  -3946380.512 7  -3278992.224 9  22377499.350        1317.975
  -9323108.201 7  -6453552.698 9  22505754.359         321.018
 92 10 20 19 14 30.0060000  0  5  3 26 21 17 23                      0.006146880
  -1208838.404 7  -1081153.752 8  22325992.326        2090.759
   1099252.559 6    849348.867 6  24443758.409        2151.197
   6408155.024 6  -2453459.032 5  24984768.945       -1559.203
  -3906723.141 7  -3248090.381 9  22385045.986        1325.592
  -9313270.084 7  -6445886.593 9  22507626.394         334.863
 92 10 20 19 15  0.0060000  0  5  3 26 21 17 23                      0.006172540
  -1145849.492 7  -1032071.511 8  22337978.718        2108.525
   1164066.912 6    899853.538 6  24456092.022        2169.864
   6361492.116 5  -2489819.658 5  24975889.242       -1551.491
  -3866842.761 7  -3217014.760 9  22392634.942        1333.184
  -9303007.153 7  -6437889.503 9  22509579.373         349.535
 92 10 20 19 15 30.0060000  0  5  3 26 21 17 23                      0.006198200
  -1082327.659 7   -982573.998 7  22350066.542        2126.010
   1229448.340 6    950800.103 6  24468533.897        2188.799
   6315056.285 5  -2526003.379 5  24967052.286       -1544.348
  -3826740.617 7  -3185766.343 9  22400266.107        1340.331
  -9292303.868 7  -6429549.248 9  22511616.272         363.922
 92 10 20 19 16  0.0060000  0  5  3 26 21 17 23                      0.006223860
  -1018277.330 7   -932664.665 7  22362254.694        2143.851
   1295392.932 6   1002185.489 6  24481082.560        2207.509
   6268837.279 5  -2562018.109 5  24958257.311       -1536.802
  -3786404.982 7  -3154335.973 9  22407941.646        1348.811
  -9281156.406 7  -6420862.895 9  22513737.443         379.442
 92 10 20 19 16 30.0060000  0  5  3 26 21 17 23                      0.006249510
   -953696.580 7   -882342.010 7  22374543.957        2161.381
   1361889.409 6   1054000.928 6  24493736.627        2225.585
   6222846.755 6  -2597854.790 5  24949505.658       -1529.068
  -3745814.839 7  -3122707.282 9  22415665.817        1357.174
  -9269545.319 7  -6411815.277 9  22515946.665         394.632
 92 10 20 19 17  0.0060000  0  5  3 26 21 17 23                      0.006275140
   -888590.238 7   -831609.810 7  22386933.360        2178.897
   1428917.053 6   1106230.242 6  24506491.670        2243.075
   6177098.201 6  -2633502.942 5  24940799.431       -1520.712
  -3704980.642 7  -3090888.440 9  22423436.258        1365.196
  -9257484.568 7  -6402417.256 9  22518241.646         409.457
 92 10 20 19 17 30.0060000  0  5  3 26 21 17 23                      0.006300790
   -822946.609 7   -780458.961 7  22399424.950        2196.938
   1496491.424 6   1158885.593 6  24519350.598        2261.640
   6131616.958 6  -2668942.807 5  24932144.805       -1511.643
  -3663883.376 7  -3058864.610 9  22431256.655        1374.403
  -9244970.470 7  -6392666.004 9  22520623.037         424.502
 92 10 20 19 18  0.0060000  0  5  3 26 21 17 23                      0.006326450
   -756767.311 7   -728890.688 7  22412018.553        2214.991
   1564610.234 6   1211965.151 6  24532313.202        2279.836
   6086406.120 6  -2704171.976 5  24923541.354       -1502.315
  -3622518.204 7  -3026632.009 9  22439128.125        1383.247
  -9232013.772 7  -6382569.871 9  22523088.521         439.342
 92 10 20 19 18 30.0060000  0  5  3 26 21 17 23                      0.006352130
   -690054.295 7   -676906.524 7  22424713.716        2232.382
   1633266.370 6   1265463.455 6  24545378.176        2297.231
   6041457.179 6  -2739197.046 5  24914987.593       -1494.346
  -3580916.848 7  -2994215.334 9  22447044.416        1390.077
  -9218630.508 7  -6372141.309 9  22525635.088         452.757
 92 10 20 19 19  0.0060000  0  5  3 26 21 17 23                      0.006377800
   -622812.671 7   -624510.490 7  22437509.256        2250.224
   1702455.414 6   1319376.982 6  24558544.203        2315.425
   5996744.772 6  -2774037.797 5  24906478.729       -1486.506
  -3539110.025 7  -2961638.621 9  22454999.758        1397.069
  -9204840.908 7  -6361396.160 9  22528259.072         466.596
 92 10 20 19 19 30.0060000  0  5  3 26 21 17 23                      0.006403480
   -555033.794 7   -571695.803 7  22450407.258        2267.944
   1772196.658 6   1373720.805 6  24571815.573        2333.563
   5952267.021 6  -2808695.681 5  24898014.895       -1478.987
  -3497090.428 7  -2928896.084 9  22462996.192        1403.933
  -9190628.964 7  -6350321.902 9  22530963.599         480.528
 92 10 20 19 20  0.0060000  0  5  3 26 21 17 23                      0.006429150
   -486718.250 7   -518462.950 7  22463407.227        2286.191
   1842476.659 6   1428484.429 6  24585189.247        2351.679
   5908017.719 6  -2843175.571 5  24889594.033       -1470.999
  -3454864.009 7  -2895992.370 9  22471031.929        1411.085
  -9175991.977 7  -6338916.433 9  22533748.870         495.284
 92 10 20 19 20 30.0060000  0  5  3 26 21 17 23                      0.006454800
   -417865.262 7   -464811.291 7  22476509.735        2303.807
   1913289.356 6   1483663.146 6  24598664.770        2369.185
   5863998.934 6  -2877475.810 5  24881217.659       -1463.575
  -3412427.658 7  -2862925.080 9  22479107.379        1418.163
  -9160915.986 7  -6327168.900 9  22536617.773         509.809
 92 10 20 19 21  0.0060000  0  5  3 26 21 17 23                      0.006480440
   -348479.432 7   -410744.422 7  22489713.426        2321.993
   1984640.095 6   1539261.115 6  24612242.370        2387.719
   5820218.300 6  -2911590.501 5  24872886.837       -1454.788
  -3369758.652 7  -2829676.491 9  22487227.086        1426.686
  -9145394.385 7  -6315074.117 9  22539571.470         525.229
 92 10 20 19 21 30.0060000  0  5  3 26 21 17 23                      0.006506080
   -278550.280 7   -356254.190 7  22503020.574        2339.969
   2056536.994 6   1595284.660 6  24625923.898        2405.528
   5776704.342 6  -2945497.381 5  24864606.461       -1445.944
  -3326835.309 7  -2796229.732 9  22495395.492        1435.128
  -9129413.963 7  -6302621.834 9  22542612.403         540.173
 92 10 20 19 22  0.0060000  0  5  3 26 21 17 23                      0.006531730
   -208080.458 7   -301342.679 7  22516430.739        2357.653
   2128968.463 6   1651724.742 6  24639707.059        2423.140
   5733464.166 6  -2979190.975 5  24856378.438       -1436.894
  -3283661.478 7  -2762587.788 9  22503611.144        1442.957
  -9112991.347 7  -6289824.974 9  22545737.392         554.541
 92 10 20 19 22 30.0060000  0  5  3 26 21 17 23                      0.006557410
   -137072.085 7   -246011.500 7  22529942.925        2375.813
   2201941.704 6   1708587.013 6  24653593.541        2441.656
   5690502.768 6  -3012667.297 5  24848203.008       -1427.450
  -3240256.059 7  -2728765.371 9  22511870.766        1450.504
  -9096141.292 7  -6276695.031 9  22548943.950         568.492
 92 10 20 19 23  0.0060000  0  5  3 26 21 17 23                      0.006583120
    -65533.701 7   -190267.325 7  22543556.312        2393.755
   2275457.137 6   1765871.741 6  24667583.169        2459.866
   5647804.306 6  -3045938.732 5  24840077.673       -1418.691
  -3196644.208 7  -2694782.128 9  22520169.720        1457.381
  -9078895.143 7  -6263256.465 9  22552225.889         581.753
 92 10 20 19 23 30.0060000  0  5  3 26 21 17 23                      0.006608860
      6552.622 7   -134096.199 7  22557273.825        2412.023
   2349522.731 6   1823585.200 6  24681677.540        2478.100
   5605372.551 6  -3079002.385 5  24832002.881       -1409.989
  -3152819.959 7  -2660633.351 9  22528509.239        1464.504
  -9061235.809 7  -6249495.934 9  22555586.702         595.671
 92 10 20 19 24  0.0060000  0  5  3 26 21 17 23                      0.006634620
     79179.912 7    -77503.526 7  22571094.377        2429.694
   2424138.204 6   1881727.096 6  24695876.529        2496.306
   5563185.475 6  -3111875.341 5  24823974.570       -1402.342
  -3108790.215 7  -2626324.476 9  22536887.717        1470.972
  -9043162.771 7  -6235413.035 9  22559025.942         609.489
 92 10 20 19 24 30.0060000  0  5  3 26 21 17 23                      0.006660370
    152338.131 7    -20497.177 7  22585015.988        2447.401
   2499299.225 6   1940294.137 6  24710179.409        2514.376
   5521224.445 6  -3144572.167 5  24815989.738       -1394.936
  -3064552.473 7  -2591853.487 9  22545305.959        1478.413
  -9024665.344 7  -6220999.435 9  22562545.626         623.693
 92 10 20 19 25  0.0060000  0  5  3 26 21 17 23                      0.006686120
    226032.402 7     36926.899 7  22599039.419        2465.233
   2574999.150 6   1999281.063 6  24724584.586        2532.132
   5479495.700 6  -3177088.019 5  24808049.024       -1386.956
  -3020071.342 7  -2557192.885 9  22553770.330        1487.024
  -9005732.268 7  -6206246.382 9  22566148.151         638.454
 92 10 20 19 25 30.0060000  0  5  3 26 21 17 23                      0.006711860
    300265.920 7     94771.162 7  22613165.632        2483.373
   2651236.968 6   2058687.164 6  24739092.065        2550.268
   5438023.786 6  -3209403.701 5  24800157.190       -1377.871
  -2975317.024 7  -2522319.378 9  22562286.724        1496.438
  -8986349.203 7  -6191142.680 9  22569836.557         653.562
 92 10 20 19 26  0.0060000  0  5  3 26 21 17 23                      0.006737600
    375034.803 7    153032.586 7  22627393.761        2501.057
   2728005.519 6   2118506.777 6  24753700.280        2567.628
   5396818.428 6  -3241511.736 6  24792315.716       -1368.871
  -2930297.980 7  -2487239.620 9  22570853.702        1504.967
  -8966532.634 7  -6175701.193 9  22573607.468         667.696
 92 10 20 19 26 30.0060000  0  5  3 26 21 17 23                      0.006763350
    450333.218 7    211706.635 7  22641722.541        2518.705
   2805286.749 6   2178725.922 6  24768406.217        2584.603
   5355888.439 6  -3273405.142 6  24784527.500       -1359.595
  -2885022.749 7  -2451960.211 9  22579469.639        1513.273
  -8946299.094 7  -6159934.779 9  22577457.851         681.167
 92 10 20 19 27  0.0060000  0  5  3 26 21 17 23                      0.006789130
    526171.807 7    270801.600 7  22656154.231        2537.036
   2883091.183 6   2239352.737 6  24783211.799        2602.356
   5315246.357 6  -3305074.228 6  24776793.430       -1349.958
  -2839500.160 7  -2416488.081 9  22588132.201        1521.414
  -8925652.736 7  -6143846.697 9  22581386.759         695.419
 92 10 20 19 27 30.0060000  0  5  3 26 21 17 23                      0.006814920
    602555.412 7    330321.264 7  22670689.568        2554.980
   2961425.754 6   2300392.657 6  24798118.450        2619.803
   5274887.596 6  -3336522.544 6  24769113.161       -1340.865
  -2793749.942 7  -2380838.561 9  22596838.274        1528.340
  -8904576.241 7  -6127423.424 9  22585397.635         709.557
 92 10 20 19 28  0.0060000  0  5  3 26 21 17 23                      0.006840720
    679486.321 7    390267.386 7  22685328.983        2573.771
   3040288.686 6   2361844.268 6  24813125.202        2637.949
   5234801.190 6  -3367758.601 6  24761484.480       -1331.282
  -2747791.441 7  -2345026.746 9  22605583.903        1535.881
  -8883071.804 7  -6110666.710 9  22589489.630         724.308
 92 10 20 19 28 30.0060000  0  5  3 26 21 17 23                      0.006866540
    756958.684 7    450635.401 7  22700071.529        2591.200
   3119677.030 6   2423705.272 6  24828232.212        2654.948
   5194979.269 6  -3398788.591 6  24753906.687       -1323.207
  -2701625.334 7  -2309053.153 9  22614368.989        1542.219
  -8861145.020 7  -6093580.901 9  22593662.053         737.745
 92 10 20 19 29  0.0060000  0  5  3 26 21 17 23                      0.006892360
    834970.171 7    511423.547 7  22714916.829        2609.301
   3199589.667 6   2485974.850 6  24843439.403        2672.439
   5155413.866 6  -3429618.673 6  24746377.877       -1314.477
  -2655249.377 7  -2272916.057 9  22623193.989        1549.556
  -8838802.816 7  -6076171.389 9  22597913.601         751.711
 92 10 20 19 29 30.0060000  0  5  3 26 21 17 23                      0.006918190
    913525.284 7    572635.283 7  22729865.273        2627.613
   3280017.028 6   2548645.490 6  24858744.797        2689.561
   5116119.258 6  -3460237.772 6  24738900.727       -1305.039
  -2608646.604 7  -2236602.219 9  22632062.040        1557.503
  -8816045.989 7  -6058438.770 9  22602244.151         765.322
 92 10 20 19 30  0.0060000  0  5  3 26 21 17 23                      0.006944030
    992620.969 7    634268.243 7  22744916.791        2645.245
   3360945.399 6   2611706.521 6  24874145.009        2705.635
   5077096.003 6  -3490645.425 6  24731474.636       -1296.347
  -2561806.443 7  -2200103.402 9  22640975.159        1565.269
  -8792895.130 7  -6040399.135 9  22606649.742         778.153
 92 10 20 19 30 30.0060000  0  5  3 26 21 17 23                      0.006969850
   1072253.994 7    696319.921 7  22760070.600        2663.054
   3442367.477 6   2675152.265 6  24889638.931        2722.117
   5038338.743 6  -3520845.786 6  24724099.262       -1287.828
  -2514721.786 7  -2163414.053 9  22649934.896        1573.398
  -8769347.194 7  -6022050.071 9  22611130.719         791.509
 92 10 20 19 31  0.0060000  0  5  3 26 21 17 23                      0.006995660
   1152421.913 7    758788.377 7  22775326.148        2681.255
   3524281.931 6   2738981.666 6  24905227.007        2738.840
   4999834.413 6  -3550849.057 6  24716772.077       -1279.191
  -2467395.894 7  -2126536.748 9  22658940.803        1581.620
  -8745386.276 7  -6003379.211 9  22615690.382         805.924
 92 10 20 19 31 30.0070000  0  5  3 26 21 17 23                      0.007021430
   1233131.272 7    821678.756 7  22790684.678        2699.190
   3606701.679 6   2803204.800 6  24920910.685        2755.962
   4961578.689 6  -3580658.612 6  24709491.876       -1270.935
  -2419829.490 7  -2089472.021 9  22667992.526        1589.536
  -8720991.729 7  -5984370.457 9  22620332.649         820.471
 92 10 20 19 32  0.0070000  0  5  3 26 21 17 23                      0.007047180
   1314374.819 7    884985.387 7  22806144.924        2716.665
   3689640.353 6   2867832.301 6  24936693.356        2773.214
   4923559.331 6  -3610283.993 6  24702256.752       -1263.750
  -2372033.302 7  -2052228.248 9  22677087.997        1596.597
  -8696160.210 7  -5965021.208 9  22625057.937         834.781
 92 10 20 19 32 30.0070000  0  6  3 26 28 21 17 23                   0.007072940
   1396154.701 7    948709.934 7  22821707.022        2734.625
   3773121.407 6   2932882.445 6  24952579.588        2791.633
   -141542.51515   -115544.13811  26023117.522       -2143.766
   4885769.571 6  -3639730.445 6  24695065.692       -1256.026
  -2324015.087 7  -2014811.471 9  22686225.862        1604.172
  -8670890.330 7  -5945330.374 9  22629866.501         849.357
 92 10 20 19 33  0.0070000  0  6  3 26 28 21 17 23                   0.007098710
   1478479.021 7   1012858.719 7  22837372.643        2753.458
   3857152.574 6   2998361.239 6  24968570.422        2810.315
   -205773.821 5   -165594.461 3  26010894.341       -2138.366
   4848223.902 6  -3668986.750 6  24687921.159       -1246.921
  -2275766.574 7  -1977215.235 9  22695407.206        1612.398
  -8645184.724 7  -5925300.014 9  22634757.883         864.051
 92 10 20 19 33 30.0070000  0  6  3 26 28 21 17 23                   0.007124500
   1561349.771 7   1077433.279 7  22853142.647        2771.049
   3941726.776 6   3064263.175 6  24984663.941        2827.727
   -269864.752 5   -215535.364 5  25998698.377       -2134.425
   4810938.753 6  -3698040.014 6  24680826.300       -1238.806
  -2227282.273 7  -1939435.274 9  22704633.439        1619.826
  -8619074.516 7  -5904954.388 9  22639726.583         876.555
 92 10 20 19 34  0.0070000  0  6  3 26 28 21 17 23                   0.007150290
   1644762.130 7   1142429.904 7  22869015.349        2789.476
   4026828.477 6   3130576.168 6  25000858.006        2845.372
   -333826.663 5   -265375.651 5  25986526.963       -2129.633
   4773914.716 6  -3726889.857 6  24673780.725       -1229.561
  -2178564.643 7  -1901473.498 9  22713904.193        1627.987
  -8592575.845 7  -5884306.076 9  22644769.073         889.810
 92 10 20 19 34 30.0070000  0  6  3 26 28 21 17 23                   0.007176110
   1728723.678 7   1207854.457 7  22884992.519        2808.106
   4112444.467 6   3197289.899 6  25017150.609        2862.526
   -397635.003 5   -315096.373 5  25974384.937       -2123.844
   4737177.267 6  -3755516.385 6  24666789.838       -1219.206
  -2129597.356 7  -1863317.184 9  22723222.311        1636.857
  -8565688.703 7  -5863355.047 9  22649885.424         903.026
 92 10 20 19 35  0.0070000  0  6  3 26 28 21 17 23                   0.007201950
   1813259.998 7   1273726.873 7  22901078.991        2827.331
   4198577.841 6   3264406.797 6  25033541.381        2879.681
   -461241.843 5   -364660.075 5  25962281.093       -2116.884
   4700759.841 6  -3783893.512 6  24659859.543       -1208.609
  -2080357.788 7  -1824948.702 9  22732591.924        1645.682
  -8538383.071 7  -5842077.927 9  22655081.464         917.270
 92 10 20 19 35 30.0070000  0  6  3 26 28 21 17 23                   0.007227830
   1898362.632 7   1340040.591 7  22917273.641        2845.645
   4285230.331 6   3331928.184 6  25050030.896        2896.866
   -524657.169 5   -414074.504 5  25950214.020       -2111.058
   4664650.793 6  -3812030.374 6  24652988.191       -1198.988
  -2030855.238 7  -1786375.298 9  22742011.874        1654.085
  -8510649.287 7  -5820467.183 9  22660358.979         931.522
 92 10 20 19 36  0.0070000  0  6  3 26 28 21 17 23                   0.007253690
   1984008.259 7   1406777.412 7  22933571.418        2863.745
   4372387.571 6   3399842.903 6  25066616.523        2913.562
   -587902.171 5   -463356.215 5  25938178.274       -2105.279
   4628825.768 6  -3839945.910 6  24646170.898       -1189.558
  -1981107.738 7  -1747611.029 9  22751478.400        1662.275
  -8482485.798 7  -5798521.601 9  22665718.252         945.887
 92 10 20 19 36 30.0070000  0  6  3 26 28 21 17 23                   0.007279560
   2070200.486 7   1473940.147 7  22949973.383        2882.089
   4460054.264 6   3468154.587 6  25083298.897        2930.829
   -650961.802 5   -512493.480 5  25926178.678       -2098.882
   4593284.854 6  -3867640.090 6  24639407.644       -1180.118
  -1931111.708 7  -1708653.083 9  22760992.524        1670.534
  -8453889.643 7  -5776238.872 9  22671159.923         960.511
 92 10 20 19 37  0.0070000  0  6  3 26 28 21 17 23                   0.007305410
   2156927.254 7   1541519.424 7  22966476.959        2899.629
   4548220.396 6   3536855.419 6  25100076.239        2947.352
   -713859.174 5   -561504.321 5  25914209.222       -2093.982
   4558005.764 6  -3895130.237 6  24632694.352       -1171.611
  -1880888.211 7  -1669517.914 9  22770549.836        1677.955
  -8424862.135 7  -5753620.035 9  22676683.998         974.680
 92 10 20 19 37 30.0070000  0  6  3 26 28 21 17 23                   0.007331260
   2244192.408 7   1609518.216 7  22983083.131        2917.370
   4636898.565 6   3605955.266 6  25116951.307        2963.864
   -776594.941 5   -610389.243 5  25902271.067       -2088.692
   4523000.632 6  -3922406.915 6  24626033.153       -1162.553
  -1830426.119 7  -1630196.816 9  22780152.488        1685.466
  -8395415.197 7  -5730674.361 9  22682287.799         987.856
 92 10 20 19 38  0.0070000  0  6  3 26 28 21 17 23                   0.007357110
   2331979.382 7   1677923.613 7  22999788.567        2934.866
   4726048.878 6   3675423.024 6  25133916.150        2979.486
   -839174.395 5   -659152.406 5  25890362.209       -2083.321
   4488259.794 6  -3949477.661 6  24619421.938       -1153.620
  -1779761.185 7  -1590717.663 9  22789794.064        1692.075
  -8365587.287 7  -5707431.854 9  22687963.880        1000.577
 92 10 20 19 38 30.0070000  0  6  3 26 28 21 17 23                   0.007382960
   2420286.999 7   1746734.709 7  23016592.946        2952.394
   4815658.234 6   3745248.472 6  25150968.269        2994.718
   -901597.774 5   -707793.911 5  25878483.177       -2077.882
   4453783.105 6  -3976342.576 6  24612860.931       -1144.430
  -1728906.582 7  -1551090.717 9  22799471.274        1698.610
  -8335383.887 7  -5683896.725 9  22693711.510        1013.285
 92 10 20 19 39  0.0070000  0  6  3 26 28 21 17 23                   0.007408810
   2509119.607 7   1815954.879 7  23033497.213        2969.781
   4905718.655 6   3815425.399 6  25168106.063        3009.563
   -963860.659 5   -756310.340 5  25866635.319       -2072.606
   4419588.338 6  -4002987.794 6  24606353.937       -1135.113
  -1677849.078 7  -1511305.653 9  22809186.928        1705.387
  -8304799.446 7  -5660064.696 9  22699531.532        1025.771
 92 10 20 19 39 30.0070000  0  6  3 26 28 21 17 23                   0.007434670
   2598484.777 7   1885590.040 7  23050502.978        2987.778
   4996237.481 6   3885959.551 6  25185330.880        3024.971
  -1025947.294 5   -804689.449 5  25854819.981       -2066.532
   4385678.207 6  -4029411.204 6  24599901.042       -1125.527
  -1626580.070 7  -1471355.787 9  22818943.025        1712.565
  -8273832.566 7  -5635934.661 9  22705423.935        1038.954
 92 10 20 19 40  0.0070000  0  6  3 26 28 21 17 23                   0.007460510
   2688381.059 7   1955639.052 7  23067609.536        3005.312
   5087209.616 6   3956846.909 6  25202642.513        3040.110
  -1087861.017 5   -852933.861 5  25843038.395       -2060.843
   4352038.813 6  -4055623.680 6  24593499.534       -1116.985
  -1575095.967 7  -1431238.310 9  22828740.052        1720.028
  -8242461.798 7  -5611489.902 9  22711393.630        1052.564
 92 10 20 19 40 30.0070000  0  6  3 26 28 21 17 23                   0.007486320
   2778808.773 7   2026102.157 7  23084817.283        3022.996
   5178648.297 6   4028097.787 6  25220042.677        3055.841
  -1149596.626 5   -901039.453 5  25831290.121       -2054.742
   4318662.037 6  -4081631.512 6  24587148.050       -1108.259
  -1523375.174 7  -1390936.410 9  22838582.058        1728.002
  -8210682.715 7  -5586726.970 9  22717441.244        1065.905
 92 10 20 19 41  0.0070000  0  6  3 26 28 21 17 23                   0.007512110
   2869767.428 7   2096978.998 7  23102126.400        3040.654
   5270569.116 6   4099724.356 6  25237534.628        3072.264
  -1211149.332 5   -949002.500 5  25819576.481       -2048.851
   4285539.628 6  -4107441.116 6  24580845.113       -1100.080
  -1471417.720 7  -1350450.083 9  22848469.363        1735.631
  -8178507.786 7  -5561655.595 9  22723563.954        1078.998
 92 10 20 19 41 30.0070000  0  6  3 26 28 21 17 23                   0.007537910
   2961253.422 7   2168266.736 7  23119535.580        3058.204
   5362987.854 6   4171738.939 6  25255121.392        3088.956
  -1272525.280 5   -996827.848 5  25807897.863       -2042.955
   4252659.179 6  -4133062.175 6  24574588.146       -1091.892
  -1419236.991 7  -1309789.795 9  22858398.791        1743.108
  -8145946.327 7  -5536283.026 9  22729760.113        1091.693
 92 10 20 19 42  0.0070000  0  6  3 26 28 21 17 23                   0.007563700
   3053264.217 7   2239963.413 7  23137044.697        3075.762
   5455906.283 6   4244142.871 6  25272803.093        3105.782
  -1333723.129 5  -1044514.400 5  25796252.477       -2036.741
   4220022.040 6  -4158493.635 6  24568377.358       -1083.713
  -1366832.710 7  -1268955.302 9  22868371.176        1750.562
  -8113016.049 7  -5510623.055 9  22736026.345        1103.615
 92 10 20 19 42 30.0070000  0  6  3 26 28 21 17 23                   0.007589530
   3145807.829 7   2312075.280 7  23154655.067        3093.691
   5549334.055 6   4316943.666 6  25290581.965        3122.830
  -1394721.053 5  -1092045.183 5  25784644.663       -2029.763
   4187641.139 6  -4183725.467 6  24562215.681       -1074.961
  -1314207.078 7  -1227948.336 9  22878385.802        1757.946
  -8079728.926 7  -5484685.036 9  22742360.872        1115.581
 92 10 20 19 43  0.0070000  0  6  3 26 28 21 17 23                   0.007615400
   3238880.862 7   2384599.657 7  23172366.444        3111.160
   5643263.720 6   4390135.565 6  25308456.148        3139.195
  -1455518.356 5  -1139419.637 5  25773075.052       -2023.284
   4155512.329 6  -4208760.849 6  24556101.576       -1066.687
  -1261363.234 7  -1186771.326 9  22888441.613        1765.069
  -8046088.166 7  -5458471.458 9  22748762.410        1127.348
 92 10 20 19 43 30.0070000  0  6  3 26 28 21 17 23                   0.007641280
   3332485.706 7   2457538.454 7  23190178.934        3128.902
   5737685.897 6   4463711.239 6  25326424.231        3155.463
  -1516110.677 5  -1186634.336 5  25761544.382       -2016.318
   4123647.159 6  -4233590.791 6  24550037.662       -1057.755
  -1208292.675 7  -1145417.640 9  22898540.771        1772.818
  -8012080.894 7  -5431972.272 9  22755233.700        1139.646
 92 10 20 19 44  0.0070000  0  6  3 26 28 21 17 23                   0.007667170
   3426622.095 7   2530891.439 7  23208092.303        3146.758
   5832594.629 6   4537666.061 6  25344484.909        3171.740
  -1576494.390 5  -1233686.501 5  25750054.019       -2009.254
   4092051.340 6  -4258210.838 6  24544024.916       -1048.567
  -1154991.925 7  -1103884.603 9  22908683.589        1780.608
  -7977702.427 7  -5405183.844 9  22761775.581        1152.384
 92 10 20 19 44 30.0070000  0  6  3 26 28 21 17 23                   0.007693050
   3521282.822 7   2604652.982 7  23226105.763        3163.865
   5927969.691 6   4611984.219 6  25362633.895        3186.546
  -1636680.491 6  -1280584.690 5  25738601.594       -2003.294
   4060724.496 6  -4282621.278 6  24538063.442       -1039.893
  -1101459.408 7  -1062170.966 9  22918870.497        1788.357
  -7942937.394 7  -5378094.206 9  22768390.921        1165.326
 92 10 20 19 45  0.0070000  0  6  3 26 28 21 17 23                   0.007718890
   3616457.979 7   2678815.413 7  23244217.465        3181.038
   6023788.599 6   4686648.242 6  25380867.142        3201.354
  -1696695.840 6  -1327349.806 5  25727181.114       -1997.653
   4029666.894 6  -4306821.949 6  24532153.413       -1030.440
  -1047690.507 7  -1020273.117 9  22929102.383        1796.148
  -7907773.268 7  -5350693.574 9  22775082.538        1178.933
 92 10 20 19 45 30.0070000  0  6  3 26 28 21 17 23                   0.007744700
   3712151.661 7   2753381.842 7  23262427.148        3198.379
   6120043.535 6   4761652.037 6  25399183.973        3215.757
  -1756532.569 5  -1373975.765 5  25715794.666       -1991.336
   3998901.183 6  -4330795.169 6  24526298.787       -1020.537
   -993688.963 7   -978194.005 9  22939378.199        1803.990
  -7872202.179 7  -5322975.841 9  22781851.672        1192.516
 92 10 20 19 46  0.0070000  0  6  3 26 28 21 17 23                   0.007770480
   3808370.434 7   2828357.461 7  23280737.081        3216.058
   6216732.751 6   4836994.210 6  25417583.144        3230.147
  -1816176.148 5  -1420451.226 5  25704444.663       -1984.685
   3968436.337 6  -4354533.951 6  24520501.390       -1010.392
   -939451.255 7   -935930.870 9  22949699.342        1811.955
  -7836219.675 7  -5294937.522 9  22788699.122        1206.483
 92 10 20 19 46 30.0070000  0  6  3 26 28 21 17 23                   0.007796220
   3905127.374 6   2903752.422 7  23299149.366        3234.117
   6313858.105 6   4912676.237 6  25436065.808        3244.796
  -1875606.263 6  -1466760.310 5  25693135.513       -1977.177
   3938284.643 6  -4378028.727 6  24514763.793        -999.886
   -884964.535 7   -893473.687 9  22960068.005        1820.223
  -7799804.515 7  -5266562.082 9  22795628.594        1220.973
 92 10 20 19 47  0.0070000  0  6  3 26 28 21 17 23                   0.007821970
   4002427.811 6   2979570.884 7  23317665.005        3252.225
   6411427.832 6   4988704.532 6  25454632.632        3259.821
  -1934799.602 5  -1512884.868 5  25681871.453       -1969.020
   3908450.643 6  -4401275.947 6  24509086.642        -989.271
   -830244.522 7   -850834.733 9  22970481.077        1827.608
  -7762971.109 7  -5237860.716 9  22802637.821        1234.222
 92 10 20 19 47 30.0070000  0  6  3 26 28 21 17 23                   0.007847740
   4100268.976 6   3055810.694 6  23336283.498        3270.419
   6509452.802 6   5065087.563 6  25473286.667        3275.363
  -1993740.791 6  -1558812.981 5  25670655.067       -1960.428
   3878924.538 6  -4424283.259 6  24503468.171        -979.243
   -775301.956 7   -808022.331 9  22980936.468        1835.299
  -7725749.415 7  -5208856.797 9  22809720.980        1247.482
 92 10 20 19 48  0.0070000  0  6  3 26 28 21 17 23                   0.007873520
   4198643.313 6   3132465.971 6  23355003.627        3288.151
   6607939.896 6   5141830.672 6  25492028.427        3290.899
  -2052443.001 6  -1604554.926 5  25659484.057       -1952.615
   3849678.552 6  -4447072.298 6  24497902.564        -970.066
   -720139.032 7   -765038.250 9  22991433.622        1842.749
  -7688141.315 7  -5179551.784 9  22816877.664        1260.143
 92 10 20 19 48 30.0070000  0  6  3 26 28 21 17 23                   0.007899310
   4297549.664 6   3209535.801 6  23373824.888        3305.652
   6706893.872 6   5218937.617 6  25510859.108        3306.335
  -2110904.880 6  -1650109.549 5  25648358.551       -1944.596
   3820704.268 6  -4469649.622 6  24492389.091        -961.386
   -664748.331 7   -721876.668 9  23001974.174        1850.273
  -7650159.276 7  -5149955.407 9  22824105.370        1272.070
 92 10 20 19 49  0.0070000  0  6  3 26 28 21 17 23                   0.007925140
   4397002.514 6   3287031.479 6  23392750.066        3324.034
   6806342.927 6   5296430.342 6  25529783.617        3323.345
  -2169107.110 6  -1695461.855 5  25637282.812       -1935.908
   3792009.109 6  -4492009.422 6  24486928.601        -951.985
   -609108.521 7   -678520.978 9  23012562.105        1858.902
  -7611811.686 7  -5120074.159 9  22831402.529        1284.303
 92 10 20 19 49 30.0070000  0  6  3 26 28 21 17 23                   0.007950990
   4496996.128 6   3364948.534 6  23411778.333        3341.823
   6906291.720 6   5374312.454 6  25548803.513        3339.705
  -2227061.004 5  -1740620.627 5  25626255.004       -1927.951
   3763575.453 6  -4514165.484 6  24481517.798        -943.850
   -553209.730 7   -634963.482 9  23023199.381        1867.378
  -7573090.934 7  -5089902.160 9  22838770.757        1296.930
 92 10 20 19 50  0.0070000  0  6  3 26 28 21 17 23                   0.007976840
   4597529.634 6   3443286.255 6  23430909.280        3359.907
   7006727.560 6   5452574.078 6  25567916.109        3355.569
  -2284770.563 5  -1785589.073 5  25615273.505       -1919.583
   3735396.957 6  -4536122.741 6  24476155.638        -934.986
   -497047.110 7   -591200.411 9  23033886.483        1876.469
  -7533993.454 7  -5059436.595 9  22846210.738        1309.094
 92 10 20 19 50 30.0080000  0  6  3 26 28 21 17 23                   0.008002700
   4698613.758 6   3522053.052 6  23450145.162        3378.398
   7107649.592 6   5531214.580 6  25587121.147        3371.867
  -2342217.844 6  -1830353.092 5  25604341.443       -1910.365
   3707492.873 6  -4557866.139 6  24470845.955        -925.441
   -440609.751 7   -547223.257 9  23044626.057        1885.684
  -7494521.548 7  -5028679.280 9  22853722.186        1321.991
 92 10 20 19 51  0.0080000  0  6  3 26 28 21 17 23                   0.008028580
   4800240.997 6   3601243.055 6  23469484.326        3396.355
   7209039.348 6   5610219.510 6  25606414.678        3387.011
  -2399394.484 6  -1874906.273 5  25593461.224       -1901.619
   3679872.389 6  -4579388.547 6  24465589.794        -915.991
   -383907.808 7   -503039.930 9  23055416.019        1894.224
  -7454668.989 7  -4997625.340 9  22861305.977        1334.791
 92 10 20 19 51 30.0080000  0  6  3 26 28 21 17 23                   0.008054450
   4902404.676 6   3680851.070 6  23488925.445        3414.475
   7310867.020 6   5689565.701 6  25625791.726        3401.449
  -2456302.325 6  -1919249.941 5  25582631.905       -1892.179
   3652544.576 6  -4600682.907 6  24460389.334        -905.620
   -326953.757 7   -458660.159 9  23066253.925        1902.712
  -7414422.033 7  -4966264.066 9  22868964.345        1348.214
 92 10 20 19 52  0.0080000  0  6  3 26 28 21 17 23                   0.008080330
   5005116.134 6   3760885.923 6  23508470.605        3432.369
   7413128.524 6   5769249.926 6  25645251.162        3415.595
  -2512925.598 6  -1963371.921 5  25571856.474       -1883.047
   3625550.795 6  -4621716.986 6  24455252.352        -894.313
   -269738.124 7   -414076.572 9  23077141.776        1911.063
  -7373768.217 7  -4934585.776 9  22876700.490        1361.781
 92 10 20 19 52 30.0080000  0  6  3 26 28 21 17 23                   0.008106210
   5108360.578 6   3841336.096 6  23528117.371        3450.283
   7515819.178 6   5849268.558 6  25664792.474        3430.240
  -2569277.538 6  -2007282.429 5  25561132.697       -1873.945
   3598887.583 6  -4642493.481 6  24450178.493        -883.379
   -212289.576 7   -369311.465 9  23088074.388        1918.792
  -7332703.430 7  -4902587.226 9  22884515.069        1375.674
 92 10 20 19 53  0.0080000  0  6  3 26 28 21 17 23                   0.008132100
   5212142.062 6   3922204.729 6  23547866.572        3468.118
   7618950.264 6   5929630.390 6  25684417.447        3445.178
  -2625358.945 6  -2050982.175 5  25550460.454       -1865.110
   3572554.887 6  -4663012.411 6  24445167.422        -872.285
   -154603.338 7   -324361.183 9  23099051.589        1926.788
  -7291223.398 7  -4870265.144 9  22892408.396        1389.491
 92 10 20 19 53 30.0080000  0  6  3 26 28 21 17 23                   0.008157990
   5316455.801 6   4003488.122 6  23567716.619        3485.714
   7722527.794 6   6010340.089 6  25704128.089        3459.916
  -2681188.669 6  -2094485.761 5  25539836.309       -1857.151
   3546552.015 6  -4683274.346 6  24440219.337        -861.659
    -96678.761 7   -279225.164 9  23110073.970        1934.700
  -7249334.884 7  -4837624.729 9  22900379.517        1402.666
 92 10 20 19 54  0.0080000  0  6  3 26 28 21 17 23                   0.008183880
   5421302.582 6   4085186.856 6  23587668.467        3503.333
   7826562.558 6   6091406.089 6  25723925.207        3475.024
  -2736783.567 6  -2137806.402 5  25529257.572       -1849.617
   3520859.158 6  -4703294.701 6  24435329.950        -851.947
    -38503.383 7   -233893.714 9  23121144.066        1943.058
  -7207054.459 7  -4804678.948 9  22908425.397        1415.432
 92 10 20 19 54 30.0080000  0  6  3 26 28 21 17 23                   0.008209760
   5526665.854 6   4167288.044 6  23607718.586        3520.253
   7931035.755 6   6172813.739 6  25743806.343        3489.243
  -2792155.339 6  -2180953.182 5  25518721.027       -1842.126
   3495432.339 6  -4723107.765 6  24430491.410        -843.593
     19914.771 7   -188373.106 9  23132260.811        1951.274
  -7164421.960 7  -4771458.815 9  22916538.151        1426.167
 92 10 20 19 55  0.0080000  0  6  3 26 28 21 17 23                   0.008235620
   5632540.759 6   4249787.920 6  23627866.109        3537.618
   8035929.928 6   6254549.390 6  25763766.688        3503.480
  -2847288.485 6  -2223914.024 5  25508229.731       -1833.514
   3470264.907 6  -4742718.702 6  24425702.025        -834.423
     78592.180 7   -142650.450 9  23143426.700        1960.275
  -7121462.744 7  -4737984.101 9  22924712.923        1437.497
 92 10 20 19 55 30.0080000  0  6  3 26 28 21 17 23                   0.008261480
   5738937.604 6   4332694.494 6  23648112.522        3555.083
   8141251.347 6   6336617.971 6  25783808.531        3517.688
  -2902153.674 6  -2266666.064 5  25497789.446       -1824.158
   3445371.895 6  -4762115.788 6  24420965.117        -825.389
    137535.668 7    -96720.482 9  23154643.563        1969.044
  -7078163.437 7  -4704244.373 9  22932952.527        1448.889
 92 10 20 19 56  0.0080000  0  6  3 26 28 21 17 23                   0.008287350
   5845853.604 6   4416005.611 6  23668458.210        3572.447
   8246999.458 6   6419019.036 6  25803932.038        3532.210
  -2956726.191 6  -2309190.054 5  25487404.426       -1813.928
   3420743.924 6  -4781306.363 6  24416278.534        -816.283
    196738.696 7    -50588.249 9  23165909.714        1977.763
  -7034529.178 7  -4670243.652 9  22941255.639        1460.097
 92 10 20 19 56 30.0080000  0  6  3 26 28 21 17 23                   0.008313250
   5953296.263 6   4499727.112 6  23688903.803        3590.150
   8353189.855 6   6501764.738 6  25824139.539        3547.167
  -3010981.491 6  -2351466.815 5  25477079.935       -1803.033
   3396404.709 6  -4800271.946 7  24411647.021        -806.200
    256200.303 7     -4254.556 9  23177225.091        1986.304
  -6990550.430 7  -4635974.495 9  22949624.445        1472.003
 92 10 20 19 57  0.0080000  0  6  3 26 28 21 17 23                   0.008339190
   6061269.337 6   4583861.904 6  23709450.369        3607.690
   8459829.885 6   6584860.829 6  25844432.061        3562.173
  -3064914.133 6  -2393492.197 5  25466816.798       -1792.696
   3372377.494 6  -4818994.392 7  24407074.844        -795.710
    315907.634 7     42270.637 9  23188586.945        1994.053
  -6946196.026 7  -4601412.635 9  22958064.862        1484.784
 92 10 20 19 57 30.0080000  0  6  3 26 28 21 17 23                   0.008365140
   6169754.071 6   4668395.395 6  23730094.350        3624.801
   8566901.011 6   6668292.793 5  25864806.926        3576.171
  -3118565.719 6  -2435298.560 5  25456607.059       -1783.664
   3348648.104 6  -4837484.777 7  24402559.269        -785.893
    375832.541 7     88965.367 9  23199990.322        2001.357
  -6901474.702 7  -4566564.858 9  22966575.051        1497.069
 92 10 20 19 58  0.0080000  0  6  3 26 28 21 17 23                   0.008391100
   6278757.167 6   4753332.822 6  23750836.997        3641.688
   8674398.330 6   6752056.911 5  25885263.216        3590.023
  -3171946.189 6  -2476893.683 5  25446449.232       -1775.381
   3325219.239 6  -4855741.009 7  24398100.587        -776.181
    435990.376 7    135841.585 9  23211438.022        2008.914
  -6856380.586 7  -4531426.587 9  22975156.337        1509.057
 92 10 20 19 58 30.0080000  0  6  3 26 28 21 17 23                   0.008417040
   6388276.558 6   4838672.549 6  23771678.050        3659.530
   8782310.367 6   6836144.177 5  25905798.079        3604.106
  -3225070.316 6  -2518289.078 5  25436339.847       -1766.096
   3302090.283 6  -4873763.534 7  24393699.412        -765.657
    496376.345 7    182895.564 9  23222928.851        2016.925
  -6810908.549 7  -4495993.854 9  22983809.470        1522.534
 92 10 20 19 59  0.0080000  0  6  3 26 28 21 17 23                   0.008442970
   6498321.444 6   4924421.750 6  23792618.822        3677.022
   8890635.100 5   6920553.003 5  25926411.840        3617.921
  -3277926.879 6  -2559475.959 5  25426281.803       -1757.214
   3279265.468 6  -4891549.051 7  24389356.118        -755.648
    557000.380 7    230135.077 9  23234465.095        2025.280
  -6765041.984 7  -4460253.657 9  22992537.796        1535.544
 92 10 20 19 59 30.0080000  0  6  3 26 28 21 17 23                   0.008468870
   6608896.702 6   5010584.228 6  23813660.647        3694.621
   8999374.655 5   7005285.039 5  25947104.125        3631.616
  -3330504.336 6  -2600445.391 5  25416275.879       -1747.617
   3256745.985 6  -4909096.677 7  24385070.996        -745.543
    617887.323 7    277579.431 9  23246051.154        2034.013
  -6718787.863 7  -4424211.491 9  23001339.544        1548.243
 92 10 20 20  0  0.0080000  0  6  3 26 28 21 17 23                   0.008494780
   6719990.890 6   5097151.069 6  23834801.209        3711.794
   9108523.635 5   7090336.133 5  25967874.257        3645.452
  -3382788.465 6  -2641186.206 5  25406326.149       -1737.401
   3234523.193 6  -4926413.089 7  24380842.203        -735.403
    679021.272 7    325216.264 9  23257684.510        2041.989
  -6672164.698 7  -4387881.753 9  23010211.492        1560.415
 92 10 20 20  0 30.0080000  0  6  3 26 28 21 17 23                   0.008520700
   6831604.505 6   5184122.672 6  23856040.607        3728.990
   9218089.690 5   7175712.227 5  25988724.170        3659.213
  -3434756.044 6  -2681680.345 5  25396437.272       -1726.736
   3212613.985 6  -4943485.156 7  24376672.889        -725.061
    740399.499 7    373043.441 9  23269364.803        2050.078
  -6625172.174 7  -4351264.218 9  23019154.112        1572.460
 92 10 20 20  1  0.0080000  0  6  3 26 28 21 17 23                   0.008546640
   6943725.013 6   5271489.243 6  23877376.566        3745.777
   9328068.640 5   7261410.027 5  26009652.873        3672.991
  -3486402.152 6  -2721924.036 5  25386609.880       -1716.119
   3191007.781 6  -4960321.135 7  24372561.248        -715.148
    802018.366 7    421058.106 9  23281090.696        2058.190
  -6577831.494 7  -4314375.379 9  23028162.606        1583.871
 92 10 20 20  1 30.0080000  0  6  3 26 28 21 17 23                   0.008572600
   7056352.161 6   5359250.598 6  23898808.770        3762.799
   9438461.123 5   7347430.100 5  26030659.569        3686.923
  -3537724.758 6  -2761915.608 5  25376843.282       -1705.075
   3169698.505 7  -4976925.730 7  24368506.227        -705.234
    863880.268 7    469262.183 9  23292862.597        2066.286
  -6530147.189 7  -4277218.785 9  23037236.353        1595.380
 92 10 20 20  2  0.0080000  0  6  3 26 28 21 17 23                   0.008598580
   7169493.605 6   5447412.712 6  23920339.104        3780.084
   9549281.613 6   7433783.673 5  26051748.169        3701.299
  -3588713.586 6  -2801647.113 5  25367140.330       -1693.900
   3148688.470 7  -4993297.141 7  24364507.952        -695.093
    925997.542 7    517665.245 9  23304683.404        2075.359
  -6482116.491 7  -4239792.262 9  23046376.484        1607.069
 92 10 20 20  2 30.0080000  0  6  3 26 28 21 17 23                   0.008624570
   7283145.793 6   5535972.789 6  23941966.411        3796.562
   9660521.630 6   7520464.152 5  26072916.597        3714.756
  -3639382.502 6  -2841129.348 5  25357498.010       -1683.992
   3127965.331 7  -5009445.000 7  24360564.223        -686.476
    988392.145 7    566284.391 9  23316556.344        2084.218
  -6433738.163 7  -4202094.877 9  23055582.562        1618.096
 92 10 20 20  3  0.0080000  0  6  3 26 28 21 17 23                   0.008650550
   7397300.976 6   5624924.816 6  23963689.161        3813.512
   9772167.621 6   7607461.053 5  26094162.439        3727.989
  -3689750.515 6  -2880377.100 5  25347913.304       -1674.015
   3107514.281 6  -5025380.853 7  24356672.246        -676.921
   1051060.876 7    615117.143 9  23328481.928        2093.725
  -6385023.934 7  -4164135.741 9  23064852.515        1629.468
 92 10 20 20  3 30.0080000  0  6  3 26 28 21 17 23                   0.008676500
   7511960.010 6   5714269.462 6  23985508.178        3830.328
   9884197.448 6   7694756.835 5  26115481.250        3740.786
  -3739820.401 6  -2919392.521 6  25338385.412       -1663.977
   3087358.323 7  -5041086.755 7  24352836.510        -666.717
   1114021.709 7    664177.514 9  23340462.954        2103.700
  -6335966.969 7  -4125909.537 9  23074187.593        1640.954
 92 10 20 20  4  0.0080000  0  6  3 26 28 21 17 23                   0.008702430
   7627124.584 6   5804008.028 6  24007423.497        3846.989
   9996611.488 6   7782352.132 5  26136872.911        3753.256
  -3789582.653 6  -2958168.253 6  25328916.088       -1653.750
   3067514.428 7  -5056549.486 7  24349060.377        -656.342
   1177278.008 7    713468.102 9  23352500.250        2113.046
  -6286565.508 7  -4087414.902 9  23083588.463        1652.462
 92 10 20 20  4 30.0080000  0  6  3 26 28 21 17 23                   0.008728340
   7742786.598 6   5894134.215 6  24029433.329        3863.756
  10109388.331 6   7870230.132 5  26158333.720        3765.447
  -3839047.065 6  -2996711.894 6  25319503.494       -1643.609
   3047972.976 7  -5071776.546 7  24345341.711        -646.182
   1240793.697 7    762960.837 9  23364586.812        2121.365
  -6236816.390 7  -4048649.356 9  23093055.530        1664.351
 92 10 20 20  5  0.0080000  0  6  3 26 28 21 17 23                   0.008754220
   7858946.531 6   5984648.381 6  24051537.836        3879.951
  10222527.391 6   7958390.359 6  26179863.588        3777.045
  -3888205.107 6  -3035016.758 6  25310148.909       -1633.544
   3028736.240 7  -5086766.167 7  24341681.175        -636.438
   1304552.856 7    812643.273 9  23376719.902        2129.243
  -6186713.389 7  -4009608.057 9  23102589.900        1675.961
 92 10 20 20  5 30.0080000  0  6  3 26 28 21 17 23                   0.008780070
   7975597.849 6   6075545.440 6  24073735.650        3896.556
  10336033.184 6   8046836.351 6  26201462.874        3789.983
  -3937055.047 6  -3073081.606 6  25300852.982       -1623.098
   3009780.479 7  -5101536.865 7  24338073.911        -627.473
   1368546.199 7    862508.175 9  23388897.622        2136.596
  -6136251.081 7  -3970286.796 9  23112192.512        1687.967
 92 10 20 20  6  0.0080000  0  6  3 26 28 21 17 23                   0.008805930
   8092748.702 6   6166831.774 6  24096028.458        3913.078
  10449939.584 6   8135594.543 6  26223138.629        3803.402
  -3985583.551 6  -3110895.965 6  25291618.098       -1612.378
   2991090.319 7  -5116100.583 7  24334517.353        -618.899
   1432748.752 7    912536.124 9  23401115.135        2143.380
  -6085435.487 7  -3930690.235 9  23121862.356        1699.555
 92 10 20 20  6 30.0080000  0  6  3 26 28 21 17 23                   0.008831800
   8210389.308 6   6258499.685 6  24118414.809        3929.498
  10564237.027 6   8224657.378 6  26244888.572        3816.709
  -4033790.325 6  -3148459.630 6  25282444.278       -1601.138
   2972650.979 7  -5130468.868 7  24331008.724        -610.186
   1497155.871 7    962723.444 9  23413370.981        2150.709
  -6034276.079 7  -3890825.806 9  23131597.417        1710.973
 92 10 20 20  7  0.0080000  0  6  3 26 28 21 17 23                   0.008857690
   8328524.038 6   6350552.641 6  24140895.527        3946.117
  10678941.060 6   8314037.081 6  26266715.633        3830.402
  -4081646.228 6  -3185749.911 6  25273337.383       -1589.094
   2954490.177 7  -5144620.110 7  24327552.757        -600.339
   1561792.926 7   1013089.950 9  23425670.886        2158.554
  -5982782.537 7  -3850700.976 9  23141396.155        1722.040
 92 10 20 20  7 30.0080000  0  6  3 26 28 21 17 23                   0.008883620
   8447154.844 6   6442992.160 6  24163470.208        3962.464
  10794054.943 6   8403736.148 6  26288621.285        3843.832
  -4129143.619 6  -3222760.774 6  25264299.010       -1577.175
   2936628.970 7  -5158537.876 7  24324153.401        -590.112
   1626655.438 7   1063632.144 9  23438014.159        2165.697
  -5930969.241 7  -3810326.993 9  23151255.899        1732.117
 92 10 20 20  8  0.0080000  0  6  3 26 28 21 17 23                   0.008909620
   8566277.962 6   6535815.276 6  24186138.545        3978.900
  10909559.304 6   8493739.455 6  26310601.660        3856.392
  -4176268.561 6  -3259481.443 6  25255331.358       -1564.622
   2919085.777 7  -5172207.856 7  24320814.937        -579.388
   1691747.402 7   1114353.122 9  23450400.675        2173.979
  -5878851.013 7  -3769715.418 9  23161173.874        1742.670
 92 10 20 20  8 30.0080000  0  6  3 26 28 21 17 23                   0.008935640
   8685900.225 6   6629027.369 6  24208902.064        3995.696
  11025432.084 6   8584029.876 6  26332651.516        3868.764
  -4223018.155 6  -3295909.662 6  25246434.946       -1551.976
   2901870.704 7  -5185622.172 7  24317539.018        -568.150
   1757098.237 7   1165275.820 9  23462836.426        2182.840
  -5826402.066 7  -3728846.129 9  23171154.466        1753.981
 92 10 20 20  9  0.0080000  0  6  3 26 28 21 17 23                   0.008961670
   8806021.282 6   6722628.105 6  24231760.462        4012.255
  11141674.280 6   8674608.129 6  26354771.769        3880.796
  -4269408.517 6  -3332057.942 6  25237607.358       -1540.668
   2884985.833 7  -5198779.171 7  24314325.801        -557.501
   1822708.110 7   1216400.366 9  23475321.884        2191.273
  -5773617.094 7  -3687715.003 9  23181199.267        1765.248
 92 10 20 20  9 30.0080000  0  6  3 26 28 21 17 23                   0.008987690
   8926637.383 6   6816614.586 6  24254712.984        4028.846
  11258278.730 6   8765468.652 6  26376960.651        3892.962
  -4315458.093 6  -3367940.659 6  25228844.634       -1529.008
   2868411.150 7  -5211694.476 7  24311171.876        -547.232
   1888581.050 7   1267729.894 9  23487856.975        2200.668
  -5720480.169 7  -3646309.630 9  23191310.921        1777.475
 92 10 20 20 10  0.0090000  0  6  3 26 28 21 17 23                   0.009013670
   9047753.047 6   6910990.354 6  24277760.607        4045.214
  11375250.593 6   8856615.527 6  26399219.811        3905.236
  -4361166.423 6  -3403557.488 6  25220146.816       -1518.047
   2852136.937 7  -5224375.637 7  24308075.059        -537.459
   1954746.406 7   1319287.296 9  23500447.989        2210.357
  -5666971.246 7  -3604614.368 9  23201493.381        1789.843
 92 10 20 20 10 30.0090000  0  6  3 26 28 21 17 23                   0.009039620
   9169356.450 6   7005746.173 6  24300901.014        4061.600
  11492597.306 6   8948054.435 6  26421550.403        3918.357
  -4406550.124 6  -3438921.354 6  25211510.505       -1507.217
   2836163.232 7  -5236822.652 7  24305035.654        -527.284
   2021195.884 7   1371066.072 9  23513092.845        2219.744
  -5613095.758 7  -3562633.498 9  23211745.643        1801.956
 92 10 20 20 11  0.0090000  0  6  3 26 28 21 17 23                   0.009065550
   9291448.470 6   7100882.714 6  24324134.503        4077.745
  11610347.305 6   9039807.619 6  26443957.418        3931.579
  -4451596.961 6  -3474022.736 6  25202938.480       -1495.735
   2820492.413 7  -5249033.659 7  24302053.678        -517.378
   2087929.096 7   1423065.952 9  23525791.744        2229.185
  -5558859.428 7  -3520371.444 9  23222066.589        1813.782
 92 10 20 20 11 30.0090000  0  6  3 26 28 21 17 23                   0.009091470
   9414021.430 6   7196394.015 6  24347459.475        4093.742
  11728481.634 6   9131860.294 6  26466438.146        3944.123
  -4496294.260 6  -3508851.775 6  25194432.686       -1483.848
   2805113.359 7  -5261017.310 7  24299126.905        -507.681
   2154938.122 7   1475280.754 9  23538542.807        2238.215
  -5504279.426 7  -3477841.579 9  23232452.748        1824.880
 92 10 20 20 12  0.0090000  0  6  3 26 28 21 17 23                   0.009117390
   9537077.035 6   7292281.421 6  24370876.294        4109.843
  11846995.311 5   9224208.546 6  26488990.293        3956.674
  -4540630.886 6  -3543399.727 6  25185995.589       -1471.691
   2790029.561 7  -5272770.868 7  24296256.282        -497.893
   2222210.970 7   1527701.133 9  23551344.393        2246.568
  -5449375.793 7  -3435059.528 9  23242900.633        1835.462
 92 10 20 20 12 30.0090000  0  6  3 26 28 21 17 23                   0.009143340
   9660613.670 6   7388543.639 6  24394384.780        4125.805
  11965872.219 6   9316839.826 6  26511611.276        3968.480
  -4584590.440 6  -3577653.904 6  25177630.358       -1458.666
   2775234.783 7  -5284299.253 7  24293440.710        -488.396
   2289726.839 7   1580310.865 9  23564192.688        2254.499
  -5394153.022 7  -3392028.827 9  23253409.098        1846.055
 92 10 20 20 13  0.0090000  0  6  3 26 28 21 17 23                   0.009169300
   9784629.201 6   7485179.041 6  24417984.112        4141.804
  12085092.544 5   9409738.694 5  26534298.617        3979.639
  -4628152.741 6  -3611598.499 6  25169340.600       -1445.378
   2760725.017 7  -5295605.520 7  24290679.822        -478.812
   2357480.416 7   1633105.829 9  23577085.933        2262.521
  -5338617.780 7  -3348754.618 9  23263977.084        1856.381
 92 10 20 20 13 30.0090000  0  6  3 26 28 21 17 23                   0.009195290
   9909133.529 6   7582195.294 6  24441676.588        4158.586
  12204654.891 5   9502904.112 5  26557050.501        3991.628
  -4671301.937 6  -3645221.212 6  25161129.154       -1430.990
   2746519.819 7  -5306674.503 7  24287976.654        -468.007
   2425481.734 7   1686093.852 9  23590026.223        2271.327
  -5282764.237 7  -3305232.388 9  23274605.755        1867.476
 92 10 20 20 14  0.0090000  0  6  3 26 28 21 17 23                   0.009221310
  10034135.879 6   7679599.639 6  24465463.821        4174.836
  12324579.385 5   9596351.649 5  26579871.629        4003.408
  -4714022.825 6  -3678510.179 6  25152999.550       -1416.865
   2732635.717 7  -5317493.255 7  24285334.700        -457.433
   2493751.998 7   1739291.427 9  23603017.670        2280.151
  -5226576.713 7  -3261449.917 9  23285297.924        1878.607
 92 10 20 20 14 30.0090000  0  6  3 26 28 21 17 23                   0.009247350
  10159622.987 6   7777381.719 6  24489343.283        4191.004
  12444854.932 5   9690072.806 5  26602759.152        4015.335
  -4756322.086 6  -3711470.577 6  25144950.414       -1402.969
   2719067.013 7  -5328066.253 7  24282752.969        -446.806
   2562288.430 7   1792696.435 9  23616059.724        2289.259
  -5170054.243 7  -3217406.429 9  23296054.097        1889.713
 92 10 20 20 15  0.0090000  0  6  3 26 28 21 17 23                   0.009273410
  10285591.652 6   7875539.031 6  24513314.446        4206.829
  12565492.397 5   9784075.960 5  26625715.673        4027.302
  -4798218.385 6  -3744117.036 6  25136977.863       -1390.150
   2705823.557 7  -5338385.813 7  24280232.723        -436.002
   2631103.181 7   1846318.294 9  23629154.567        2298.395
  -5113202.698 7  -3173106.544 9  23306872.469        1900.521
 92 10 20 20 15 30.0090000  0  6  3 26 28 21 17 23                   0.009299470
  10412030.177 6   7974062.482 6  24537374.898        4222.066
  12686476.240 5   9878349.005 5  26648737.980        4038.148
  -4839742.165 6  -3776473.178 6  25129076.444       -1378.296
   2692900.127 7  -5348456.000 7  24277773.538        -425.852
   2700183.351 7   1900146.972 9  23642300.305        2306.923
  -5056028.351 7  -3128555.106 9  23317752.286        1910.866
 92 10 20 20 16  0.0090000  0  6  3 26 28 21 17 23                   0.009325510
  10538935.080 6   8072949.344 6  24561524.142        4237.720
  12807792.822 5   9972881.344 5  26671824.614        4049.325
  -4880907.077 6  -3808549.692 6  25121243.058       -1366.377
   2680284.615 7  -5358286.240 7  24275372.669        -415.461
   2769530.396 7   1954183.613 9  23655496.420        2315.689
  -4998533.517 7  -3083753.940 9  23328693.124        1921.742
 92 10 20 20 16 30.0090000  0  6  3 26 28 21 17 23                   0.009351530
  10666301.809 6   8172196.035 6  24585761.212        4253.041
  12929435.550 5  10067667.722 5  26694972.318        4060.074
  -4921728.984 6  -3840358.943 6  25113474.791       -1355.336
   2667970.518 7  -5367881.652 7  24273029.380        -405.536
   2839127.775 7   2008415.312 9  23668740.321        2324.015
  -4940725.851 7  -3038709.024 9  23339693.655        1931.905
 92 10 20 20 17  0.0090000  0  6  3 26 28 21 17 23                   0.009377530
  10794127.400 6   8271800.300 6  24610085.844        4268.260
  13051399.406 5  10162704.466 5  26718181.229        4070.485
  -4962215.593 6  -3871906.907 6  25105770.507       -1343.929
   2655958.129 7  -5377241.938 8  24270743.613        -395.589
   2908978.390 7   2062844.350 9  23682032.679        2332.401
  -4882614.604 7  -2993427.541 9  23350751.761        1941.962
 92 10 20 20 17 30.0090000  0  6  3 26 28 21 17 23                   0.009403510
  10922417.173 6   8371766.266 5  24634498.593        4284.096
  13173684.257 5  10257991.244 5  26741451.178        4081.683
  -5002345.611 6  -3903177.020 6  25098134.074       -1331.298
   2644242.684 7  -5386370.840 8  24268514.007        -385.586
   2979091.949 7   2117478.250 9  23695375.023        2341.919
  -4824193.857 7  -2947904.891 9  23361868.776        1952.666
 92 10 20 20 18  0.0090000  0  6  3 26 28 21 17 23                   0.009429480
  11051171.749 6   8472094.414 5  24658999.758        4299.813
  13296303.435 5  10353538.589 5  26764784.862        4093.396
  -5042095.504 6  -3934150.935 6  25090569.630       -1318.145
   2632813.459 7  -5395276.709 8  24266339.074        -375.817
   3049487.563 7   2172331.976 9  23708770.899        2351.392
  -4765458.964 7  -2902137.453 9  23373045.447        1963.342
 92 10 20 20 18 30.0090000  0  6  3 26 28 21 17 23                   0.009455450
  11180398.834 6   8572790.735 5  24683590.527        4315.161
  13419271.592 5  10449357.799 5  26788185.146        4104.377
  -5081441.891 6  -3964810.415 6  25083082.121       -1304.868
   2621682.738 7  -5403949.975 8  24264220.998        -366.125
   3120167.652 7   2227407.339 9  23722220.789        2360.638
  -4706409.647 7  -2856125.010 9  23384282.428        1973.357
 92 10 20 20 19  0.0090000  0  6  3 26 28 21 17 23                   0.009481430
  11310085.146 6   8673844.904 5  24708269.052        4330.257
  13542566.370 5  10545431.544 5  26811648.090        4115.106
  -5120380.252 6  -3995151.970 6  25075672.423       -1291.112
   2610839.564 7  -5412399.193 8  24262157.727        -356.918
   3191117.246 7   2282692.730 9  23735721.752        2369.152
  -4647060.546 7  -2809878.971 9  23395576.229        1983.197
 92 10 20 20 19 30.0090000  0  6  3 26 28 21 17 23                   0.009507420
  11440229.292 6   8775255.831 5  24733035.125        4345.657
  13666187.273 5  10641759.432 5  26835172.847        4126.244
  -5158895.182 6  -4025163.550 6  25068343.477       -1276.608
   2600279.166 7  -5420628.050 8  24260148.119        -347.093
   3262328.780 7   2338182.201 9  23749272.691        2378.192
  -4587409.354 7  -2763397.538 9  23406927.781        1993.457
 92 10 20 20 20  0.0090000  0  6  3 26 28 21 17 23                   0.009533430
  11570835.780 6   8877027.022 5  24757888.761        4361.107
  13790139.234 5  10738345.301 5  26858759.720        4137.171
  -5196970.357 6  -4054832.476 6  25061097.933       -1261.878
   2590019.794 7  -5428622.354 8  24258195.760        -336.932
   3333802.772 7   2393876.201 9  23762873.645        2386.446
  -4527451.994 7  -2716677.533 9  23418337.134        2003.462
 92 10 20 20 20 30.0090000  0  6  3 26 28 21 17 23                   0.009559470
  11701902.801 6   8979157.069 5  24782830.176        4376.452
  13914416.499 5  10835184.658 5  26882408.587        4147.917
  -5234605.241 6  -4084158.325 6  25053935.772       -1247.108
   2580069.644 7  -5436375.685 8  24256302.452        -326.460
   3405521.002 7   2449760.512 9  23776521.286        2394.804
  -4467194.935 7  -2669724.005 9  23429803.516        2013.676
 92 10 20 20 21  0.0090000  0  6  3 26 28 21 17 23                   0.009585530
  11833423.789 6   9081640.863 5  24807857.877        4391.967
  14039015.812 5  10932274.938 5  26906119.214        4159.298
  -5271794.843 6  -4113137.206 6  25046858.402       -1231.726
   2570429.184 7  -5443887.725 8  24254467.913        -315.733
   3477490.288 7   2505840.446 9  23790216.666        2403.810
  -4406633.420 7  -2622533.231 9  23441327.866        2024.268
 92 10 20 20 21 30.0090000  0  6  3 26 28 21 17 23                   0.009611620
  11965405.704 6   9184483.791 5  24832973.261        4406.492
  14163953.126 5  11029628.584 5  26929893.573        4169.681
  -5308529.656 6  -4141761.692 6  25039868.190       -1217.281
   2561115.578 7  -5451145.044 8  24252695.489        -305.249
   3549739.717 7   2562138.669 9  23803965.338        2412.638
  -4345751.041 7  -2575092.444 9  23452913.526        2034.385
 92 10 20 20 22  0.0090000  0  6  3 26 28 21 17 23                   0.009637710
  12097831.178 6   9287672.381 5  24858173.004        4421.619
  14289199.914 5  11127223.403 5  26953727.323        4180.063
  -5344827.922 6  -4170046.028 6  25032960.770       -1202.644
   2552116.382 7  -5458157.389 8  24250983.093        -294.758
   3622248.309 7   2618638.838 9  23817763.424        2421.211
  -4284558.996 7  -2527410.346 9  23464558.075        2045.035
 92 10 20 20 22 30.0090000  0  6  3 26 28 21 17 23                   0.009663810
  12230709.518 6   9391213.821 5  24883458.829        4436.854
  14414759.169 6  11225061.684 5  26977620.480        4190.381
  -5380688.289 6  -4197989.150 6  25026137.227       -1187.941
   2543438.550 7  -5464919.307 8  24249331.688        -283.734
   3695023.399 7   2675346.670 9  23831612.140        2430.585
  -4223040.327 7  -2479473.745 9  23476264.830        2056.252
 92 10 20 20 23  0.0090000  0  6  3 26 28 21 17 23                   0.009689900
  12364041.318 6   9495108.659 5  24908831.265        4451.896
  14540614.776 5  11323130.933 5  27001570.171        4200.118
  -5416113.474 6  -4225593.142 6  25019396.303       -1173.806
   2535085.626 7  -5471428.048 8  24247742.207        -273.088
   3768078.438 7   2732272.640 9  23845513.684        2439.728
  -4161193.896 7  -2431281.726 9  23488033.882        2066.948
 92 10 20 20 23 30.0090000  0  6  3 26 28 21 17 23                   0.009715960
  12497820.998 6   9599352.438 5  24934288.552        4466.557
  14666747.725 6  11421416.227 5  27025572.627        4208.739
  -5451124.806 6  -4252874.672 6  25012734.074       -1160.209
   2527043.324 7  -5477694.753 8  24246211.508        -263.199
   3841399.629 7   2789405.995 9  23859466.244        2448.198
  -4099033.938 7  -2382845.421 9  23499862.475        2076.848
 92 10 20 20 24  0.0090000  0  6  3 26 28 21 17 23                   0.009742010
  12632044.032 6   9703941.737 5  24959830.559        4481.298
  14793153.223 5  11519913.921 5  27049627.203        4218.131
  -5485716.612 6  -4279829.293 6  25006151.332       -1146.101
   2519291.649 7  -5483734.988 8  24244736.348        -253.747
   3914978.212 7   2846739.927 9  23873467.733        2456.999
  -4036581.683 7  -2334181.354 9  23511746.917        2086.422
 92 10 20 20 24 30.0090000  0  6  3 26 28 21 17 23                   0.009768040
  12766695.878 6   9808865.157 5  24985454.249        4495.479
  14919833.409 5  11618625.659 5  27073733.535        4227.384
  -5519896.474 6  -4306462.927 6  24999647.054       -1132.373
   2511815.155 7  -5489560.806 8  24243313.335        -244.690
   3988819.796 7   2904278.775 9  23887519.673        2465.983
  -3973858.259 7  -2285305.969 9  23523682.933        2095.133
 92 10 20 20 25  0.0090000  0  6  3 26 28 21 17 23                   0.009794070
  12901770.848 6   9914118.267 5  25011158.224        4509.564
  15046801.261 5  11717561.565 5  27097894.810        4237.494
  -5553656.349 6  -4332769.298 6  24993222.473       -1117.964
   2504603.817 7  -5495179.997 8  24241941.032        -235.894
   4062935.226 7   2962031.025 9  23901623.431        2475.209
  -3910877.107 7  -2236229.758 9  23535667.686        2103.956
 92 10 20 20 25 30.0090000  0  6  3 26 28 21 17 23                   0.009820110
  13037269.906 6  10019701.845 5  25036942.617        4523.763
  15174081.391 5  11816740.784 5  27122115.378        4248.112
  -5586972.781 6  -4358730.117 6  24986882.601       -1102.743
   2497655.504 7  -5500594.247 8  24240618.859        -226.942
   4137329.581 7   3020000.620 9  23915780.350        2484.754
  -3847626.354 7  -2186943.477 9  23547703.844        2113.130
 92 10 20 20 26  0.0090000  0  6  3 26 28 21 17 23                   0.009846150
  13173191.965 6  10125615.041 5  25062807.629        4537.831
  15301678.841 5  11916167.288 5  27146396.303        4258.677
  -5619832.763 6  -4384335.296 6  24980629.509       -1087.633
   2490983.536 7  -5505793.171 8  24239348.997        -217.371
   4212011.993 7   3078194.646 9  23929991.691        2494.373
  -3784092.701 7  -2137436.771 9  23559793.804        2122.884
 92 10 20 20 26 30.0090000  0  6  3 26 28 21 17 23                   0.009872200
  13309549.303 6  10231867.400 5  25088755.865        4552.291
  15429598.524 5  12015844.840 5  27170738.206        4269.162
  -5652232.702 6  -4409581.972 6  24974463.879       -1072.472
   2484618.530 7  -5510752.882 8  24238137.666        -207.042
   4286989.177 7   3136618.384 9  23944259.256        2503.893
  -3720252.771 7  -2087691.392 9  23571942.266        2132.961
 92 10 20 20 27  0.0090000  0  6  3 26 28 21 17 23                   0.009898270
  13446347.695 6  10338463.450 5  25114787.763        4567.570
  15557838.023 5  12115771.605 5  27195141.393        4280.128
  -5684170.576 6  -4434468.594 7  24968386.435       -1056.585
   2478574.416 7  -5515462.560 8  24236987.592        -195.595
   4362255.749 7   3195267.625 9  23958581.920        2513.920
  -3656095.857 7  -2037699.014 9  23584151.081        2144.362
 92 10 20 20 27 30.0090000  0  6  3 26 28 21 17 23                   0.009924350
  13583607.070 6  10445418.709 5  25140907.611        4582.465
  15686395.180 5  12215945.923 5  27219605.168        4289.887
  -5715632.947 6  -4458984.682 7  24962399.407       -1041.391
   2472882.676 7  -5519897.665 8  24235904.443        -184.144
   4437813.924 7   3254144.095 9  23972960.795        2522.936
  -3591597.072 7  -1987440.234 9  23596424.885        2155.150
 92 10 20 20 28  0.0090000  0  6  3 26 28 21 17 23                   0.009950440
  13721308.402 6  10552718.342 5  25167111.322        4597.362
  15815239.411 5  12316343.917 5  27244123.924        4299.708
  -5746647.138 6  -4483151.552 7  24956497.495       -1026.312
   2467535.320 7  -5524064.404 8  24234886.877        -172.482
   4513635.147 7   3313225.533 9  23987389.475        2531.671
  -3526776.767 7  -1936930.915 9  23608759.517        2166.032
 92 10 20 20 28 30.0090000  0  6  3 26 28 21 17 23                   0.009976530
  13859444.501 6  10660356.757 5  25193397.623        4611.406
  15944368.180 5  12416963.610 5  27268696.304        4308.817
  -5777216.337 6  -4506971.684 7  24950680.252       -1011.613
   2462521.378 7  -5527971.355 8  24233932.436        -161.945
   4589704.543 7   3372500.334 9  24001864.855        2539.627
  -3461648.881 7  -1886181.947 9  23621153.157        2175.830
 92 10 20 20 29  0.0100000  0  6  3 26 28 21 17 23                   0.010002620
  13997997.641 6  10768320.133 5  25219763.921        4624.806
  16073761.838 5  12517789.738 5  27293318.872        4317.058
  -5807351.099 6  -4530453.281 7  24944945.653        -997.270
   2457809.792 7  -5531642.689 8  24233035.848        -152.254
   4666008.866 7   3431958.230 9  24016384.873        2547.109
  -3396233.072 7  -1835208.602 9  23633601.129        2184.941
 92 10 20 20 29 30.0100000  0  6  3 26 28 21 17 23                   0.010028710
  14136941.989 6  10876588.347 5  25246204.046        4638.037
  16203395.843 5  12618803.143 5  27317987.591        4325.431
  -5837051.760 6  -4553596.621 7  24939293.607        -982.723
   2453383.777 7  -5535091.528 8  24232193.841        -142.776
   4742537.288 7   3491590.722 8  24030947.472        2555.037
  -3330561.044 7  -1784035.623 9  23646098.198        2193.259
 92 10 20 20 30  0.0100000  0  6  3 26 28 21 17 23                   0.010054780
  14276280.061 6  10985163.367 5  25272719.248        4650.968
  16333286.201 5  12720016.328 5  27342704.830        4333.936
  -5866318.429 6  -4576401.787 7  24933724.413        -968.384
   2449239.819 7  -5538320.574 8  24231405.166        -133.624
   4819313.919 7   3551416.630 8  24045557.466        2563.571
  -3264640.954 7  -1732669.332 9  23658642.471        2201.206
 92 10 20 20 30 30.0100000  0  6  3 26 28 21 17 23                   0.010080860
  14416017.423 6  11094049.508 5  25299310.791        4664.589
  16463443.544 5  12821437.512 5  27367473.414        4343.208
  -5895136.383 6  -4598857.304 7  24928240.387        -952.888
   2445368.800 7  -5541336.931 8  24230668.527        -124.443
   4896368.993 7   3611459.522 8  24060220.466        2573.373
  -3198484.518 7  -1681118.888 9  23671231.417        2209.240
 92 10 20 20 31  0.0100000  0  6  3 26 28 21 17 23                   0.010106950
  14556158.887 6  11203250.548 5  25325978.839        4677.818
  16593880.389 5  12923076.511 5  27392294.749        4352.413
  -5923490.786 6  -4620951.610 7  24922844.814        -937.520
   2441776.005 7  -5544136.493 8  24229984.829        -115.207
   4973718.079 7   3671731.514 8  24074939.946        2583.072
  -3132087.544 7  -1629381.002 9  23683866.420        2217.098
 92 10 20 20 31 30.0100000  0  6  3 26 28 21 17 23                   0.010133050
  14696697.640 6  11312761.136 5  25352722.316        4691.257
  16724597.725 5  13024934.076 5  27417169.586        4361.977
  -5951379.796 6  -4642683.293 7  24917538.117        -921.830
   2438462.550 7  -5546718.398 8  24229354.476        -105.699
   5051359.103 7   3732230.974 8  24089714.628        2592.949
  -3065451.945 7  -1577457.193 9  23696546.940        2225.484
 92 10 20 20 32  0.0100000  0  6  3 26 28 21 17 23                   0.010159140
  14837633.578 6  11422581.202 5  25379541.541        4704.760
  16855590.846 5  13127006.566 5  27442097.133        4371.220
  -5978803.145 6  -4664052.111 7  24912319.760        -905.917
   2435426.453 7  -5549084.175 8  24228776.827         -96.435
   5129287.877 7   3792954.660 8  24104543.772        2602.637
  -2998557.482 7  -1525331.653 9  23709276.699        2234.465
 92 10 20 20 32 30.0100000  0  6  3 26 28 21 17 23                   0.010185250
  14978968.970 6  11532712.576 5  25406437.088        4717.779
  16986855.924 5  13229290.918 5  27467075.890        4379.971
  -6005742.417 6  -4685043.706 7  24907193.399        -889.710
   2432665.053 7  -5551235.893 8  24228251.340         -87.191
   5207494.167 7   3853894.615 8  24119425.658        2611.242
  -2931394.899 7  -1472997.186 9  23722057.132        2243.452
 92 10 20 20 33  0.0100000  0  6  3 26 28 21 17 23                   0.010211350
  15120693.798 6  11643147.390 5  25433406.530        4730.555
  17118366.448 5  13331766.562 5  27492101.803        4387.477
  -6032202.670 6  -4705662.054 7  24902158.195        -874.071
   2430192.686 7  -5553162.402 8  24227780.837         -77.492
   5285947.828 7   3915027.315 8  24134355.082        2619.218
  -2863959.458 7  -1420450.120 9  23734889.409        2252.444
 92 10 20 20 33 30.0100000  0  6  3 26 28 21 17 23                   0.010237430
  15262807.036 6  11753884.826 5  25460449.895        4743.653
  17250100.088 5  13434416.066 5  27517169.909        4394.894
  -6058192.972 7  -4725914.242 7  24897212.379        -858.420
   2428016.675 7  -5554857.986 8  24227366.794         -67.396
   5364647.136 7   3976351.412 8  24149331.167        2627.542
  -2796247.890 7  -1367687.876 9  23747774.437        2261.800
 92 10 20 20 34  0.0100000  0  6  3 26 28 21 17 23                   0.010263500
  15405316.887 6  11864931.339 5  25487568.764        4756.880
  17382055.909 5  13537238.705 5  27542279.919        4402.434
  -6083710.265 7  -4745797.821 7  24892356.721        -842.554
   2426145.135 7  -5556316.316 8  24227010.580         -57.283
   5443597.779 7   4037871.382 8  24164354.764        2635.875
  -2728262.545 7  -1314712.311 9  23760711.861        2270.533
 92 10 20 20 34 30.0100000  0  6  3 26 28 21 17 23                   0.010289580
  15548233.205 6  11976294.598 5  25514764.686        4770.474
  17514255.049 5  13640250.909 5  27567436.641        4410.731
  -6108737.679 6  -4765299.662 7  24887594.218        -826.179
   2424596.675 7  -5557522.902 8  24226715.754         -46.003
   5522807.592 7   4099593.275 8  24179427.850        2644.560
  -2660001.347 7  -1261521.789 9  23773701.369        2279.998
 92 10 20 20 35  0.0100000  0  6  3 26 28 21 17 23                   0.010315660
  15691543.563 6  12087964.841 5  25542035.807        4783.454
  17646683.384 5  13743441.729 5  27592637.135        4418.104
  -6133296.105 6  -4784436.096 7  24882920.467        -810.966
   2423371.009 7  -5558477.946 8  24226482.496         -35.769
   5602266.236 7   4161509.073 8  24194548.334        2652.820
  -2591467.579 7  -1208118.872 9  23786743.199        2289.014
 92 10 20 20 35 30.0100000  0  6  3 26 28 21 17 23                   0.010341730
  15835245.386 6  12199940.196 5  25569381.676        4796.636
  17779350.285 5  13846818.420 5  27617882.850        4426.479
  -6157387.087 6  -4803208.256 7  24878335.817        -795.000
   2422446.382 7  -5559198.425 8  24226306.758         -25.760
   5681983.247 7   4223626.208 8  24209718.022        2661.869
  -2522660.766 7  -1154503.183 9  23799836.577        2298.149
 92 10 20 20 36  0.0100000  0  6  3 26 28 21 17 23                   0.010367800
  15979342.485 6  12312223.480 5  25596802.392        4809.640
  17912272.155 5  13950393.840 5  27643176.815        4434.953
  -6180994.514 6  -4821603.635 7  24873843.488        -778.778
   2421821.911 7  -5559685.003 8  24226187.901         -15.918
   5761980.741 7   4285961.879 8  24224941.314        2671.411
  -2453584.331 7  -1100677.400 9  23812981.586        2307.084
 92 10 20 20 36 30.0100000  0  6  3 26 28 21 17 23                   0.010393870
  16123821.339 6  12424804.293 5  25624295.940        4822.322
  18045434.071 5  14054156.303 5  27668517.391        4442.567
  -6204114.753 6  -4839619.376 7  24869443.414        -762.355
   2421485.121 7  -5559947.433 8  24226124.223          -6.378
   5842263.081 7   4348519.513 8  24240218.716        2681.085
  -2384241.993 7  -1046644.428 9  23826177.090        2315.946
 92 10 20 20 37  0.0100000  0  6  3 26 28 21 17 23                   0.010419920
  16268686.533 6  12537686.120 5  25651862.852        4835.158
  18178824.613 5  14158096.911 5  27693900.740        4450.161
  -6226727.885 7  -4857239.988 7  24865140.143        -745.065
   2421433.160 7  -5559987.903 8  24226114.558           2.822
   5922858.012 7   4411320.723 8  24255555.489        2691.846
  -2314632.581 7   -992403.339 9  23839423.270        2324.730
 92 10 20 20 37 30.0100000  0  6  3 26 28 21 17 23                   0.010445960
  16413945.867 6  12650875.078 5  25679505.187        4848.279
  18312455.337 5  14262224.681 5  27719329.757        4458.329
  -6248803.484 7  -4874441.728 7  24860939.511        -726.951
   2421670.646 7  -5559802.837 8  24226159.689          12.778
   6003792.546 7   4474386.583 8  24270956.737        2703.479
  -2244750.607 7   -937949.877 9  23852721.454        2333.705
 92 10 20 20 38  0.0100000  0  6  3 26 28 21 17 23                   0.010472010
  16559602.487 6  12764373.585 5  25707222.887        4862.011
  18446335.582 5  14366546.873 5  27744806.591        4467.090
  -6270328.427 7  -4891214.379 7  24856843.457        -707.908
   2422215.379 7  -5559378.355 8  24226262.925          23.500
   6085068.647 7   4537718.554 8  24286422.968        2714.774
  -2174594.840 7   -883283.053 9  23866071.564        2343.550
 92 10 20 20 38 30.0100000  0  6  3 26 28 21 17 23                   0.010498070
  16705651.267 6  12878177.700 5  25735015.202        4874.442
  18580461.889 5  14471060.790 5  27770329.925        4474.767
  -6291296.688 7  -4907553.269 7  24852853.545        -690.096
   2423063.422 7  -5558717.515 8  24226424.505          33.071
   6166651.234 7   4601289.377 8  24301948.272        2723.967
  -2104158.990 7   -828397.985 9  23879475.243        2352.188
 92 10 20 20 39  0.0100000  0  6  3 26 28 21 17 23                   0.010524150
  16852084.629 6  12992281.466 5  25762880.730        4887.492
  18714837.182 5  14575768.666 5  27795901.019        4483.559
  -6311730.182 7  -4923475.454 7  24848965.480        -672.298
   2424214.201 7  -5557820.819 8  24226643.295          43.540
   6248516.338 7   4665080.342 8  24317526.706        2733.421
  -2033451.524 7   -773301.275 9  23892930.327        2361.532
 92 10 20 20 39 30.0100000  0  6  3 26 28 21 17 23                   0.010550250
  16998885.407 6  13106671.538 5  25790816.010        4899.267
  18849453.898 5  14680664.765 5  27821517.758        4491.235
  -6331660.711 7  -4939005.715 7  24845172.516        -656.202
   2425660.874 7  -5556693.529 8  24226918.385          53.175
   6330631.907 7   4729066.446 8  24333152.378        2741.192
  -1962491.254 7   -718007.565 9  23906433.561        2369.329
 92 10 20 20 40  0.0100000  0  6  3 26 28 21 17 23                   0.010576370
  17146052.124 6  13221346.755 5  25818820.611        4911.645
  18984306.380 5  14785744.544 5  27847179.125        4498.810
  -6351093.506 7  -4954148.116 7  24841474.375        -639.321
   2427406.578 7  -5555333.223 9  24227250.404          63.311
   6412983.440 7   4793236.450 8  24348823.241        2748.992
  -1891291.089 7   -662526.919 9  23919982.740        2377.379
 92 10 20 20 40 30.0100000  0  6  3 26 28 21 17 23                   0.010602500
  17293575.574 6  13336299.928 5  25846893.320        4923.200
  19119367.113 5  14890986.629 5  27872880.207        4505.423
  -6370042.622 7  -4968913.662 7  24837868.480        -623.792
   2429448.484 7  -5553742.124 9  24227639.005          73.027
   6495572.766 7   4857591.718 8  24364539.330        2757.126
  -1819864.594 7   -606869.931 9  23933574.641        2384.568
 92 10 20 20 41  0.0100000  0  6  3 26 28 21 17 23                   0.010628610
  17441442.663 6  13451520.897 5  25875031.598        4934.598
  19254621.685 5  14996379.716 5  27898618.439        4511.671
  -6388525.444 7  -4983315.817 7  24834351.608        -607.924
   2431778.301 7  -5551926.673 9  24228082.336          82.637
   6578403.934 7   4922135.451 8  24380301.967        2765.274
  -1748223.781 7   -551045.943 9  23947207.442        2391.739
 92 10 20 20 41 30.0100000  0  6  3 26 28 21 17 23                   0.010654730
  17589663.185 6  13567017.260 5  25903237.063        4946.299
  19390076.173 5  15101928.630 5  27924394.595        4518.399
  -6406513.373 7  -4997332.371 7  24830928.674        -591.344
   2434411.718 7  -5549874.666 9  24228583.542          92.658
   6661492.905 7   4986880.062 8  24396113.241        2773.802
  -1676357.848 7   -495046.541 9  23960882.877        2399.173
 92 10 20 20 42  0.0100000  0  6  3 26 28 21 17 23                   0.010680840
  17738226.617 5  13682780.821 5  25931508.010        4957.873
  19525720.069 5  15207625.077 5  27950206.965        4524.721
  -6424000.998 7  -5010959.083 7  24827600.999        -574.392
   2437340.809 7  -5547592.235 9  24229140.815         102.757
   6744833.081 7   5051820.418 8  24411972.273        2782.389
  -1604270.363 7   -438874.488 9  23974600.720        2406.964
 92 10 20 20 42 30.0100000  0  6  3 26 28 21 17 23                   0.010706940
  17887129.955 6  13798809.238 5  25959843.649        4969.135
  19661553.120 5  15313468.984 5  27976054.980        4531.306
  -6440987.202 7  -5024195.071 7  24824368.547        -557.583
   2440561.580 7  -5545082.547 9  24229753.670         112.137
   6828431.838 7   5116962.270 8  24427880.512        2791.011
  -1531949.422 7   -382520.527 9  23988363.170        2414.824
 92 10 20 20 43  0.0100000  0  6  3 26 28 21 17 23                   0.010733030
  18036368.468 6  13915098.838 5  25988243.073        4980.078
  19797585.382 5  15419468.054 5  28001940.698        4537.697
  -6457457.126 7  -5037028.778 7  24821234.026        -540.228
   2444060.220 7  -5542356.324 9  24230419.560         121.246
   6912282.880 7   5182300.689 7  24443836.444        2799.441
  -1459392.330 7   -325982.555 9  24002170.402        2422.483
 92 10 20 20 43 30.0100000  0  6  3 26 28 21 17 23                   0.010759130
  18185956.218 5  14031660.573 5  26016708.916        4991.572
  19933830.508 5  15525633.046 5  28027867.362        4544.631
  -6473387.668 7  -5049442.155 7  24818202.345        -522.329
   2447843.613 7  -5539408.224 9  24231139.522         130.266
   6996415.732 7   5247858.724 7  24459846.392        2808.843
  -1386586.475 7   -269250.746 9  24016024.893        2430.638
 92 10 20 20 44  0.0100000  0  6  3 26 28 21 17 23                   0.010785220
  18335880.973 5  14148484.905 5  26045238.699        5003.162
  20070272.798 5  15631951.662 5  28053831.748        4551.436
  -6488784.796 7  -5061439.891 7  24815272.754        -504.280
   2451886.494 7  -5536257.921 9  24231908.771         139.363
   7080828.589 7   5313634.938 7  24475910.180        2818.652
  -1313537.198 7   -212329.245 9  24029925.409        2439.335
 92 10 20 20 44 30.0100000  0  6  3 26 28 21 17 23                   0.010811290
  18486142.258 5  14265571.367 5  26073832.661        5014.251
  20206911.535 5  15738423.317 5  28079833.151        4557.988
  -6503653.413 7  -5073025.809 7  24812443.342        -486.714
   2456191.880 7  -5532903.075 9  24232728.001         147.944
   7165519.248 7   5379627.606 7  24492025.993        2827.566
  -1240237.347 7   -155212.495 9  24043873.882        2447.504
 92 10 20 20 45  0.0100000  0  6  3 26 28 21 17 23                   0.010837360
  18636742.701 5  14382922.276 5  26102490.800        5025.608
  20343751.891 5  15845052.120 5  28105873.007        4564.650
  -6517994.896 7  -5084200.987 7  24809714.104        -469.324
   2460768.309 7  -5529337.021 9  24233598.729         157.286
   7250481.016 7   5445831.553 7  24508193.992        2836.779
  -1166689.482 7    -97902.490 9  24057869.553        2455.817
 92 10 20 20 45 30.0100000  0  6  3 26 28 21 17 23                   0.010863430
  18787689.940 5  14500543.346 5  26131215.207        5037.331
  20480792.308 5  15951836.822 5  28131951.307        4571.275
  -6531808.030 7  -5094964.435 7  24807085.853        -451.495
   2465632.117 7  -5525547.040 9  24234524.248         167.074
   7335722.883 7   5512253.748 7  24524414.832        2845.959
  -1092884.343 7    -40392.014 9  24071914.220        2464.441
 92 10 20 20 46  0.0100000  0  6  3 26 28 21 17 23                   0.010889500
  18938983.306 5  14618434.152 5  26160005.327        5048.405
  20618026.474 5  16058772.419 5  28158066.287        4577.312
  -6545090.886 7  -5105314.684 7  24804558.331        -434.397
   2470795.556 7  -5521523.574 9  24235506.777         176.879
   7421236.654 7   5578887.824 7  24540687.458        2854.626
  -1018828.276 7     17314.004 9  24086006.745        2472.257
 92 10 20 20 46 30.0100000  0  6  3 26 28 21 17 23                   0.010915570
  19090614.242 5  14736587.967 5  26188859.932        5059.936
  20755447.862 5  16165853.972 5  28184216.708        4583.917
  -6557849.639 7  -5115256.560 7  24802130.175        -416.265
   2476254.633 7  -5517269.742 9  24236545.668         186.762
   7507019.909 7   5645731.876 7  24557011.364        2864.270
   -944543.327 7     75198.374 9  24100142.659        2479.857
 92 10 20 20 47  0.0100000  0  5  3 28 21 17 23                      0.010941300
  19242581.674 5  14855004.005 5  26217778.858        5071.054
  -6570067.596 7  -5124777.037 7  24799805.052        -398.051
   2481999.845 7  -5512792.942 9  24237638.912         196.254
   7593098.910 7   5712806.393 7  24573391.984        2874.464
   -870038.549 7    133254.016 9  24114320.473        2487.249
 92 10 20 20 47 30.0100000  0  5  3 28 21 17 23                      0.010967410
  19394883.380 5  14973680.489 5  26246761.175        5081.861
  -6581727.306 7  -5133862.512 7  24797586.190        -379.514
   2488026.720 7  -5508096.673 9  24238785.707         205.324
   7679489.394 7   5780123.612 7  24589831.513        2884.611
   -795309.570 7    191484.376 9  24128541.050        2494.208
 92 10 20 20 48  0.0100000  0  5  3 28 21 17 23                      0.010993580
  19547508.578 5  15092609.073 5  26275804.968        5092.973
  -6592830.842 7  -5142514.597 7  24795472.882        -360.586
   2494329.842 7  -5503185.132 9  24239985.088         214.976
   7766188.615 7   5847681.410 7  24606329.894        2895.437
   -720379.343 7    249871.539 9  24142799.728        2501.370
 92 10 20 20 48 30.0110000  0  5  3 28 21 17 23                      0.011019820
  19700471.329 5  15211800.656 5  26304912.538        5104.006
  -6603359.592 7  -5150718.818 7  24793469.417        -341.296
   2500924.766 7  -5498046.224 9  24241240.117         224.876
   7853213.863 7   5915493.256 7  24622889.958        2906.051
   -645226.379 7    308432.273 9  24157100.809        2508.877
 92 10 20 20 49  0.0110000  0  5  3 28 21 17 23                      0.011046080
  19853754.979 5  15331242.303 5  26334080.954        5114.664
  -6613317.883 7  -5158478.499 7  24791574.769        -322.655
   2507828.016 7  -5492667.038 9  24242553.779         235.356
   7940542.640 7   5983541.624 7  24639508.354        2915.681
   -569841.238 7    367173.921 9  24171446.216        2516.812
 92 10 20 20 49 30.0110000  0  6  3 11 28 21 17 23                   0.011071910
  20007361.089 5  15450935.198 5  26363311.551        5125.003
   -727097.12715   -569354.18415  28348764.100       -2383.052
  -6622716.719 7  -5165802.274 7  24789786.098        -304.396
   2515050.529 7  -5487039.104 9  24243928.307         245.720
   8028153.296 7   6051809.635 7  24656180.122        2924.496
   -494224.933 7    426095.692 9  24185835.824        2523.694
 92 10 20 20 50  0.0110000  0  6  3 11 28 21 17 23                   0.011097990
  20161281.356 5  15570872.904 5  26392601.461        5135.743
   -798573.418 5   -625049.900 5  28335163.593       -2382.302
  -6631566.674 7  -5172698.317 7  24788101.905        -285.956
   2522590.666 7  -5481163.644 9  24245363.145         256.460
   8116029.605 7   6120284.649 7  24672902.597        2933.540
   -418393.256 7    485185.292 9  24200266.354        2531.507
 92 10 20 20 50 30.0110000  0  6  3 11 28 21 17 23                   0.011124060
  20315505.598 5  15691047.466 5  26421949.744        5145.841
   -870044.728 5   -680741.739 5  28321563.308       -2382.199
  -6639881.623 7  -5179177.492 7  24786519.737        -268.237
   2530428.953 7  -5475055.862 9  24246854.582         266.208
   8204156.422 7   6188954.861 7  24689672.736        2941.768
   -342337.225 7    544449.711 9  24214739.294        2539.029
 92 10 20 20 51  0.0110000  0  6  3 11 28 21 17 23                   0.011150120
  20470036.133 5  15811460.698 5  26451356.057        5155.794
   -941503.856 5   -736424.079 5  28307964.712       -2381.915
  -6647666.759 7  -5185243.820 7  24785038.594        -250.926
   2538557.124 7  -5468722.198 9  24248401.511         275.258
   8292532.224 7   6257819.093 7  24706490.124        2949.851
   -266058.662 7    603887.537 9  24229254.518        2545.876
 92 10 20 20 51 30.0110000  0  6  3 11 28 21 17 23                   0.011176180
  20624872.466 5  15932112.242 5  26480820.837        5166.451
  -1012945.858 5   -792093.064 5  28294370.018       -2380.786
  -6654917.906 7  -5190894.054 8  24783658.570        -232.437
   2546957.667 7  -5462176.303 9  24250000.214         284.849
   8381162.635 7   6326881.705 7  24723355.886        2958.916
   -189573.574 7    663486.279 9  24243809.161        2553.182
 92 10 20 20 52  0.0110000  0  6  3 11 28 21 17 23                   0.011202250
  20780019.725 5  16053005.996 5  26510344.819        5176.545
  -1084360.302 5   -847740.581 5  28280780.824       -2380.024
  -6661621.726 7  -5196117.802 8  24782383.064        -214.419
   2555637.982 7  -5455412.411 9  24251652.241         293.989
   8470061.991 7   6396153.907 7  24740272.696        2967.782
   -112869.705 7    723255.520 9  24258405.336        2560.507
 92 10 20 20 52 30.0110000  0  6  3 11 28 21 17 23                   0.011228320
  20935470.648 5  16174136.418 5  26539925.993        5186.481
  -1155749.441 5   -903368.421 5  28267195.936       -2379.334
  -6667776.928 7  -5200914.052 8  24781211.785        -196.033
   2564601.794 7  -5448427.597 9  24253357.967         303.387
   8559232.738 7   6465637.567 7  24757241.437        2976.726
    -35942.230 7    783198.987 9  24273044.022        2567.808
 92 10 20 20 53  0.0110000  0  6  3 11 28 21 17 23                   0.011254370
  21091211.847 5  16295492.988 5  26569562.503        5196.051
  -1227120.860 5   -958982.401 5  28253613.393       -2378.749
  -6673380.207 7  -5205280.233 8  24780145.483        -177.408
   2573842.334 7  -5441227.164 9  24255116.411         312.585
   8648665.523 6   6535325.424 7  24774260.118        2985.506
     41195.151 7    843306.015 9  24287722.730        2574.689
 92 10 20 20 53 30.0110000  0  6  3 11 28 21 17 23                   0.011280430
  21247247.782 5  16417079.240 5  26599255.546        5206.193
  -1298464.958 5  -1014575.100 5  28240036.692       -2377.418
  -6678406.376 7  -5209196.714 8  24779189.024        -157.524
   2583368.931 7  -5433803.820 9  24256929.306         322.599
   8738374.376 6   6605228.380 7  24791331.218        2995.151
    118558.076 7    903588.804 9  24302444.318        2582.947
 92 10 20 20 54  0.0110000  0  6  3 11 28 21 17 23                   0.011306490
  21403594.787 5  16538907.902 5  26629007.640        5216.854
  -1369760.286 5  -1070129.782 5  28226469.302       -2375.411
  -6682825.872 7  -5212640.470 8  24778347.878        -137.001
   2593201.436 7  -5426142.115 9  24258800.392         332.906
   8828383.269 6   6675365.150 7  24808459.611        3005.526
    196177.361 7    964071.363 9  24317214.961        2591.778
 92 10 20 20 54 30.0110000  0  6  3 11 28 21 17 23                   0.011332560
  21560250.602 5  16660977.177 5  26658818.374        5226.661
  -1441003.839 5  -1125644.160 5  28212912.840       -2374.055
  -6686641.473 7  -5215613.657 8  24777621.659        -117.436
   2603321.125 7  -5418256.645 9  24260726.048         341.589
   8918694.437 6   6745737.449 7  24825645.223        3015.256
    274052.017 7   1024752.902 9  24332033.854        2599.809
 92 10 20 20 55  0.0110000  0  6  3 11 28 21 17 23                   0.011358630
  21717201.079 5  16783276.071 5  26688685.011        5236.589
  -1512204.201 5  -1181124.854 5  28199363.893       -2372.480
  -6689874.282 7  -5218132.728 8  24777006.717         -98.096
   2613698.960 7  -5410169.993 9  24262701.042         350.556
   9009303.482 6   6816341.852 7  24842887.487        3025.462
    352162.133 7   1085617.914 9  24346897.593        2607.488
 92 10 20 20 55 30.0110000  0  6  3 11 28 21 17 23                   0.011384710
  21874446.554 5  16905804.816 5  26718608.113        5246.414
  -1583355.621 5  -1236567.438 5  28185824.979       -2370.780
  -6692532.969 7  -5220204.423 8  24776500.906         -79.013
   2624352.093 7  -5401868.859 9  24264728.489         359.884
   9100217.757 6   6887184.085 7  24860187.651        3035.622
    430490.438 7   1146652.954 9  24361803.124        2614.402
 92 10 20 20 56  0.0110000  0  6  3 11 28 21 17 23                   0.011410810
  22031997.260 5  17028571.427 5  26748589.499        5256.786
  -1654442.576 5  -1291959.743 5  28172296.997       -2368.312
  -6694611.159 7  -5221823.785 8  24776105.172         -59.614
   2635302.981 7  -5393335.681 9  24266812.285         370.189
   9191447.168 7   6958271.905 7  24877548.351        3046.369
    509031.751 7   1207853.970 9  24376749.216        2621.527
 92 10 20 20 56 30.0110000  0  6  3 11 28 21 17 23                   0.011436930
  22189852.541 5  17151575.327 5  26778628.211        5266.776
  -1725460.259 5  -1347298.148 5  28158781.884       -2366.060
  -6696117.878 7  -5222997.846 8  24775818.549         -40.644
   2646563.723 7  -5384561.071 9  24268955.032         380.747
   9282991.071 6   7029604.762 7  24894969.181        3056.545
    587781.037 7   1269217.039 9  24391734.614        2628.367
 92 10 20 20 57  0.0110000  0  6  3 11 28 21 17 23                   0.011463060
  22348007.497 5  17274812.775 5  26808724.330        5276.793
  -1796408.306 5  -1402582.223 5  28145280.633       -2363.616
  -6697036.509 7  -5223713.639 8  24775643.599         -20.451
   2658159.921 7  -5375525.060 9  24271161.483         392.465
   9374834.188 6   7101170.790 7  24912445.991        3066.235
    666728.823 7   1330734.782 9  24406757.902        2634.979
 92 10 20 20 57 30.0110000  0  6  3 11 28 21 17 23                   0.011489200
  22506460.089 5  17398282.110 5  26838876.781        5286.391
  -1867282.780 5  -1457808.972 5  28131793.373       -2361.359
  -6697339.844 7  -5223950.003 8  24775586.130           0.219
   2670103.053 7  -5366218.730 9  24273434.232         403.522
   9466964.306 6   7172960.436 7  24929977.557        3075.691
    745878.125 7   1392409.548 9  24421819.666        2641.724
 92 10 20 20 58  0.0110000  0  6  3 11 28 21 17 23                   0.011515350
  22665196.681 5  17521972.765 5  26869083.234        5295.454
  -1938092.114 5  -1512984.998 5  28118318.981       -2359.509
  -6697026.257 7  -5223705.648 8  24775645.737          20.272
   2682366.215 7  -5356663.016 9  24275767.776         413.636
   9559376.776 6   7244970.108 7  24947562.682        3084.868
    825234.838 7   1454245.938 9  24436920.792        2648.397
 92 10 20 20 58 30.0110000  0  6  3 11 28 21 17 23                   0.011541490
  22824210.025 5  17645879.052 5  26899342.724        5305.065
  -2008838.289 5  -1568111.768 5  28104855.742       -2356.948
  -6696099.145 7  -5222983.201 8  24775821.954          41.482
   2694935.833 7  -5346868.482 9  24278159.930         424.179
   9652073.884 6   7317201.599 7  24965202.510        3094.843
    904798.272 7   1516243.420 9  24452061.330        2655.733
 92 10 20 20 59  0.0110000  0  6  3 11 28 21 17 23                   0.011567640
  22983505.270 5  17770005.014 5  26929656.225        5314.950
  -2079510.496 5  -1623180.867 5  28091407.086       -2353.903
  -6694542.434 7  -5221770.189 8  24776118.082          62.705
   2707809.962 7  -5336836.673 9  24280609.683         434.500
   9745065.432 6   7389662.494 7  24982898.489        3105.238
    984572.284 7   1578404.957 9  24467241.830        2663.255
 92 10 20 20 59 30.0110000  0  6  3 11 28 21 17 23                   0.011593800
  23143086.456 5  17894353.787 5  26960023.934        5323.944
  -2150099.167 5  -1678184.923 5  28077974.198       -2351.576
  -6692371.988 7  -5220078.904 8  24776531.305          82.151
   2720974.881 7  -5326578.289 9  24283115.058         443.514
   9838372.154 6   7462368.984 7  25000654.396        3115.654
   1064569.626 7   1640740.535 9  24482464.962        2670.262
 92 10 20 21  0  0.0110000  0  6  3 11 28 21 17 23                   0.011619970
  23302945.532 5  18018919.078 5  26990444.044        5333.207
  -2220606.774 5  -1733125.799 5  28064556.144       -2348.838
  -6689618.646 7  -5217933.444 8  24777055.350         101.417
   2734420.770 7  -5316100.962 9  24285673.918         452.989
   9932000.447 6   7535326.049 7  25018471.154        3126.198
   1144786.598 7   1703247.252 9  24497729.814        2677.580
 92 10 20 21  0 30.0110000  0  6  3 11 28 21 17 23                   0.011646160
  23463076.416 5  18143696.188 5  27020915.838        5342.022
  -2291033.706 5  -1788003.794 5  28051154.036       -2346.264
  -6686291.097 7  -5215340.539 8  24777688.623         120.518
   2748142.627 7  -5305408.603 9  24288284.960         461.868
  10025933.822 6   7608520.836 7  25036345.840        3135.944
   1225218.542 7   1765921.490 9  24513035.386        2684.620
 92 10 20 21  1  0.0110000  0  6  3 11 28 21 17 23                   0.011672360
  23623469.856 5  18268677.852 5  27051437.899        5350.424
  -2361383.797 5  -1842821.935 5  28037767.416       -2343.899
  -6682390.752 7  -5212301.321 8  24778430.669         139.415
   2762134.618 7  -5294505.742 9  24290947.346         470.586
  10120158.299 6   7681942.468 7  25054276.387        3145.544
   1305863.508 7   1828761.695 9  24528381.644        2691.577
 92 10 20 21  1 30.0110000  0  6  3 11 28 21 17 23                   0.011698550
  23784115.106 5  18393855.785 5  27082007.474        5358.857
  -2431662.298 5  -1897584.261 5  28024394.545       -2341.424
  -6677919.268 7  -5208817.029 8  24779281.630         158.641
   2776382.189 7  -5283403.723 9  24293658.351         479.161
  10214674.356 6   7755591.308 7  25072262.395        3155.379
   1386717.431 7   1891764.739 9  24543767.763        2698.372
 92 10 20 21  2  0.0110000  0  6  3 11 28 21 17 23                   0.011724750
  23945001.962 5  18519221.909 5  27112623.505        5366.738
  -2501873.686 5  -1952294.357 5  28011034.112       -2339.204
  -6672867.203 7  -5204880.357 8  24780243.165         178.243
   2790882.046 7  -5272105.128 9  24296417.339         487.526
  10309467.152 6   7829455.783 7  25090300.865        3164.027
   1467761.379 7   1954915.850 9  24559190.037        2704.482
 92 10 20 21  2 30.0110000  0  6  3 11 28 21 17 23                   0.011750940
  24106135.243 5  18644780.108 5  27143285.897        5375.464
  -2572007.732 5  -2006944.120 5  27997687.900       -2336.081
  -6667208.402 7  -5200470.878 8  24781320.167         199.193
   2805645.612 7  -5260601.020 9  24299226.847         496.884
  10404529.828 6   7903530.566 7  25108390.813        3173.618
   1548995.055 7   2018214.809 9  24574648.106        2711.254
 92 10 20 21  3  0.0110000  0  6  3 11 28 21 17 23                   0.011777150
  24267526.537 5  18770539.324 5  27173997.965        5384.336
  -2642046.737 5  -2061519.839 5  27984360.556       -2332.640
  -6660922.208 7  -5195572.538 8  24782516.003         220.369
   2820691.598 7  -5248876.871 9  24302090.333         506.565
  10499874.973 6   7977825.455 7  25126534.233        3183.138
   1630425.745 7   2081667.279 9  24590143.728        2718.005
 92 10 20 21  3 30.0110000  0  6  3 11 28 21 17 23                   0.011803370
  24429190.273 5  18896510.819 5  27204762.245        5393.199
  -2711970.965 5  -2116006.197 5  27971054.463       -2328.811
  -6653995.876 7  -5190175.393 8  24783834.040         241.587
   2836034.360 7  -5236921.461 9  24305010.222         516.547
  10595513.670 6   8052349.067 7  25144733.314        3192.845
   1712065.873 7   2145282.939 9  24605679.463        2724.671
 92 10 20 21  4  0.0110000  0  6  3 11 28 21 17 23                   0.011829610
  24591118.416 5  19022688.372 5  27235576.162        5401.460
  -2781782.856 5  -2170404.986 5  27957769.228       -2325.507
  -6646437.401 7  -5184285.658 8  24785272.493         262.123
   2851677.206 7  -5224732.218 9  24307987.269         526.029
  10691435.375 6   8127093.211 7  25162986.796        3201.811
   1793897.251 7   2209047.638 9  24621251.512        2730.688
 92 10 20 21  4 30.0110000  0  6  3 11 28 21 17 23                   0.011855860
  24753285.876 5  19149052.436 5  27266436.546        5409.215
  -2851501.589 5  -2224731.176 5  27944501.845       -2322.477
  -6638273.890 7  -5177924.469 8  24786825.918         281.959
   2867591.913 7  -5212331.122 9  24311015.675         534.708
  10787630.123 6   8202050.128 7  25181292.463        3211.062
   1875901.296 7   2272946.871 9  24636856.170        2736.168
 92 10 20 21  5  0.0110000  0  6  3 11 28 21 17 23                   0.011882100
  24915677.521 5  19275591.125 5  27297339.142        5416.714
  -2921136.643 5  -2278992.114 5  27931251.040       -2319.686
  -6629523.042 7  -5171105.628 8  24788491.495         301.458
   2883758.402 7  -5199733.847 9  24314091.992         543.133
  10884095.464 6   8277217.886 7  25199649.583        3220.175
   1958066.048 7   2336971.323 9  24652491.706        2741.578
 92 10 20 21  5 30.0110000  0  6  3 11 28 21 17 23                   0.011908350
  25078297.784 5  19402307.920 5  27328284.641        5424.353
  -2990677.831 5  -2333179.959 5  27918017.528       -2316.409
  -6620182.013 7  -5163826.913 8  24790268.953         321.196
   2900191.479 7  -5186928.837 9  24317218.970         552.398
  10980861.559 6   8352620.000 7  25218063.350        3230.763
   2040402.272 7   2401129.403 9  24668159.927        2747.305
 92 10 20 21  6  0.0110000  0  6  3 11 28 21 17 23                   0.011934600
  25241157.981 5  19529211.729 5  27359275.998        5432.620
  -3060108.342 5  -2387281.570 5  27904805.246       -2312.270
  -6610241.077 7  -5156080.709 8  24792160.536         341.496
   2916916.471 7  -5173896.362 9  24320401.397         562.636
  11077950.520 6   8428273.714 7  25236538.468        3241.818
   2122922.695 7   2465431.025 9  24683863.107        2754.133
 92 10 20 21  6 30.0110000  0  6  3 11 28 21 17 23                   0.011960870
  25404262.252 5  19656305.718 5  27390313.711        5441.019
  -3129417.962 5  -2441288.971 5  27891616.430       -2307.939
  -6599691.892 7  -5147860.562 8  24794167.774         362.144
   2933948.143 7  -5160624.908 9  24323642.304         573.187
  11175360.410 6   8504177.488 7  25255075.205        3252.386
   2205650.424 7   2529894.166 9  24699605.570        2761.474
 92 10 20 21  7  0.0110000  0  6  3 11 28 21 17 23                   0.011987150
  25567630.483 5  19783605.390 5  27421401.930        5449.899
  -3198581.150 5  -2495182.277 5  27878454.998       -2302.863
  -6588507.139 7  -5139145.168 8  24796296.223         383.523
   2951315.128 7  -5147092.184 9  24326947.165         584.695
  11273097.775 6   8580336.416 6  25273674.069        3263.473
   2288617.933 7   2594544.141 9  24715393.778        2769.662
 92 10 20 21  7 30.0120000  0  6  3 11 28 21 17 23                   0.012013450
  25731261.260 5  19911109.625 5  27452539.819        5458.182
  -3267601.604 5  -2548964.342 5  27865320.410       -2298.169
  -6576686.382 7  -5129934.189 8  24798545.647         404.691
   2969019.698 7  -5133296.406 9  24330316.451         595.517
  11371164.660 6   8656752.137 6  25292335.950        3273.842
   2371825.184 7   2659380.947 9  24731227.478        2777.224
 92 10 20 21  8  0.0120000  0  6  3 11 28 21 17 23                   0.012039780
  25895141.548 5  20038808.308 5  27483725.353        5466.858
  -3336470.768 5  -2602628.488 5  27852215.385       -2293.116
  -6564211.950 7  -5120213.850 8  24800919.243         427.014
   2987049.335 7  -5119247.313 9  24333747.637         606.300
  11469526.966 6   8733398.065 6  25311053.722        3283.650
   2455265.967 7   2724399.719 9  24747105.825        2785.525
 92 10 20 21  8 30.0120000  0  6  3 11 28 21 17 23                   0.012066110
  26059268.650 5  20166699.307 5  27514957.762        5474.727
  -3405193.359 5  -2656178.485 5  27839137.428       -2288.515
  -6551067.395 7  -5109971.337 8  24803420.530         449.195
   3005383.204 7  -5104961.173 9  24337236.511         615.801
  11568178.136 6   8810269.061 6  25329826.438        3293.089
   2538940.555 7   2789600.679 9  24763028.544        2792.724
 92 10 20 21  9  0.0120000  0  6  3 11 28 21 17 23                   0.012092460
  26223629.501 5  20294772.428 5  27546234.862        5482.374
  -3473776.521 5  -2709619.755 5  27826086.167       -2283.766
  -6537254.171 7  -5099207.787 8  24806049.110         471.666
   3024003.102 7  -5090452.140 9  24340779.819         625.540
  11667123.337 6   8887369.186 6  25348654.970        3303.194
   2622825.928 7   2854965.876 9  24778991.570        2799.475
 92 10 20 21  9 30.0120000  0  6  3 11 28 21 17 23                   0.012118820
  26388214.245 5  20423020.061 5  27577554.208        5489.835
  -3542224.413 5  -2762955.735 5  27813060.912       -2279.242
  -6522771.631 7  -5087922.714 8  24808805.262         493.968
   3042909.304 7  -5075720.031 9  24344377.286         634.888
  11766366.972 6   8964701.826 6  25367540.597        3313.022
   2706903.382 7   2920480.740 9  24794991.076        2805.758
 92 10 20 21 10  0.0120000  0  6  3 11 28 21 17 23                   0.012145190
  26553017.363 5  20551437.802 5  27608915.604        5496.703
  -3610536.757 5  -2816186.011 5  27800062.117       -2274.956
  -6507628.089 7  -5076122.542 8  24811687.128         515.404
   3062096.778 7  -5060768.735 9  24348028.521         644.174
  11865904.477 6   9042263.459 6  25386481.826        3322.902
   2791167.007 7   2986140.689 9  24811025.815        2811.737
 92 10 20 21 10 30.0120000  0  6  3 11 28 21 17 23                   0.012171550
  26718025.281 5  20680015.117 5  27640316.334        5503.447
  -3678721.250 5  -2869316.691 5  27787086.737       -2270.814
  -6491853.762 7  -5063830.862 8  24814688.658         535.891
   3081563.756 7  -5045599.638 9  24351733.015         653.520
  11965745.684 6   9120061.773 6  25405480.911        3332.918
   2875601.364 7   3051933.666 9  24827093.151        2817.032
 92 10 20 21 11  0.0120000  0  6  3 11 28 21 17 23                   0.012197910
  26883230.602 5  20808746.242 5  27671753.988        5509.918
  -3746779.401 5  -2922348.892 5  27774135.646       -2266.498
  -6475473.833 7  -5051067.270 8  24817805.518         556.018
   3101317.797 7  -5030206.871 9  24355492.213         663.456
  12065883.300 6   9198091.025 6  25424536.590        3342.691
   2960201.399 7   3117855.760 9  24843192.195        2822.858
 92 10 20 21 11 30.0120000  0  6  3 11 28 21 17 23                   0.012224260
  27048627.350 5  20937626.488 5  27703227.808        5516.148
  -3814711.294 5  -2975282.726 5  27761208.673       -2262.378
  -6458499.430 7  -5037840.481 8  24821035.744         575.492
   3121360.704 7  -5014589.009 9  24359305.936         672.593
  12166307.046 6   9276343.245 6  25443646.461        3352.039
   3044973.488 7   3183911.914 9  24859323.797        2828.522
 92 10 20 21 12  0.0120000  0  6  3 11 28 21 17 23                   0.012250610
  27214206.310 5  21066648.809 5  27734736.285        5522.013
  -3882520.264 5  -3028120.771 5  27748305.101       -2258.422
  -6440946.774 7  -5024163.097 8  24824376.053         594.524
   3141676.950 7  -4998758.166 9  24363171.887         681.538
  12267001.879 6   9354806.691 6  25462808.074        3360.823
   3129913.891 7   3250099.216 9  24875487.417        2833.950
 92 10 20 21 12 30.0120000  0  6  3 11 28 21 17 23                   0.012276950
  27379973.381 5  21195817.639 5  27766281.011        5528.224
  -3950194.424 5  -3080853.782 5  27735426.942       -2253.714
  -6422805.666 7  -5010027.165 8  24827828.211         614.385
   3162266.879 7  -4982714.042 9  24367090.197         690.519
  12367970.245 6   9433483.289 6  25482021.866        3369.807
   3215021.362 7   3316416.706 9  24891682.897        2839.395
 92 10 20 21 13  0.0120000  0  6  3 11 28 21 17 23                   0.012303280
  27545923.253 5  21325128.914 5  27797860.524        5534.643
  -4017733.289 6  -3133481.388 5  27722574.303       -2248.869
  -6404065.697 7  -4995424.610 8  24831394.424         634.892
   3183124.658 7  -4966461.242 9  24371059.346         699.819
  12469206.521 6   9512368.645 6  25501286.507        3379.128
   3300294.310 7   3382863.127 9  24907909.762        2845.257
 92 10 20 21 13 30.0120000  0  6  3 11 28 21 17 23                   0.012329630
  27712064.542 5  21454589.352 5  27829476.523        5541.287
  -4085122.282 6  -3185992.192 5  27709750.940       -2243.535
  -6384711.488 7  -4980343.409 8  24835077.464         655.515
   3204247.788 7  -4950001.649 9  24375078.943         708.483
  12570724.235 6   9591473.295 6  25520604.433        3388.604
   3385729.353 7   3449435.876 9  24924167.349        2850.465
 92 10 20 21 14  0.0120000  0  6  3 11 28 21 17 23                   0.012355980
  27878403.863 5  21584204.060 5  27861129.381        5547.785
  -4152348.787 5  -3238376.351 5  27696957.415       -2238.202
  -6364732.875 7  -4964775.679 8  24838879.102         676.382
   3225634.459 7  -4933336.710 9  24379148.547         717.243
  12672523.584 6   9670797.411 6  25539976.232        3398.074
   3471315.823 7   3516126.607 9  24940453.893        2855.326
 92 10 20 21 14 30.0120000  0  6  3 11 28 21 17 23                   0.012382370
  28044945.708 5  21713976.632 5  27892822.053        5554.641
  -4219402.402 6  -3290625.805 5  27684197.108       -2232.204
  -6344117.803 7  -4948711.987 8  24842801.976         697.933
   3247295.763 7  -4916457.763 9  24383270.643         726.832
  12774624.632 6   9750356.609 6  25559405.432        3408.480
   3557060.666 7   3582940.744 9  24956770.638        2861.079
 92 10 20 21 15  0.0120000  0  6  3 11 28 21 17 23                   0.012408760
  28211683.651 5  21843901.956 5  27924551.204        5560.832
  -4286283.878 6  -3342741.134 5  27671469.771       -2226.621
  -6322861.849 7  -4932148.925 8  24846846.565         718.934
   3269239.501 7  -4899358.726 9  24387446.691         735.939
  12877023.709 6   9830148.026 6  25578891.822        3417.914
   3642978.665 7   3649889.820 9  24973120.198        2866.586
 92 10 20 21 15 30.0120000  0  6  3 11 28 21 17 23                   0.012435160
  28378592.920 5  21973960.819 5  27956313.207        5566.450
  -4353011.544 6  -3394736.637 5  27658772.038       -2221.443
  -6300981.235 7  -4915099.104 8  24851010.493         740.049
   3291441.492 7  -4882058.495 9  24391671.547         744.609
  12979693.745 6   9910150.592 6  25598429.467        3426.998
   3729047.071 7   3716956.081 9  24989498.599        2871.681
 92 10 20 21 16  0.0120000  0  6  3 11 28 21 17 23                   0.012461550
  28545673.933 5  22104153.434 5  27988108.238        5572.213
  -4419579.322 6  -3446607.494 5  27646104.872       -2216.112
  -6278461.448 7  -4897551.219 8  24855296.027         761.535
   3313913.882 7  -4864547.527 9  24395947.796         753.773
  13082639.806 6   9990368.258 6  25618019.126        3436.442
   3815283.037 7   3784152.910 9  25005908.649        2877.694
 92 10 20 21 16 30.0120000  0  6  3 11 28 21 17 23                   0.012487940
  28712920.970 5  22234475.482 5  28019934.723        5577.902
  -4485986.879 6  -3498353.558 5  27633468.359       -2210.603
  -6255297.423 7  -4879501.338 8  24859703.674         783.336
   3336660.550 7  -4846822.847 9  24400276.309         763.136
  13185869.464 6  10070806.902 6  25637662.656        3446.019
   3901700.192 7   3851490.940 9  25022353.655        2883.923
 92 10 20 21 17  0.0120000  0  6  3 11 28 21 17 23                   0.012514340
  28880354.931 5  22364943.095 5  28051796.456        5584.154
  -4552207.255 6  -3549953.755 5  27620867.430       -2204.118
  -6231460.350 7  -4860927.006 8  24864239.616         805.803
   3359697.360 7  -4828872.082 9  24404659.926         772.614
  13289403.791 6  10151482.918 6  25657364.738        3456.443
   3988316.690 7   3918984.288 9  25038835.915        2890.381
 92 10 20 21 17 30.0120000  0  6  3 11 28 21 17 23                   0.012540750
  29047969.216 5  22495551.259 5  28083693.088        5589.896
  -4618241.277 6  -3601408.751 5  27608301.452       -2198.104
  -6206959.870 7  -4841835.730 8  24868901.758         827.602
   3383009.254 7  -4810706.960 9  24409096.026         781.444
  13393250.433 6  10232402.329 6  25677126.334        3466.738
   4075113.850 7   3986618.416 9  25055352.830        2896.189
 92 10 20 21 18  0.0120000  0  6  3 11 28 21 17 23                   0.012567160
  29215752.194 5  22626290.873 5  28115621.090        5595.864
  -4684094.346 6  -3652722.704 5  27595770.044       -2191.626
  -6181808.258 7  -4822237.082 8  24873687.953         849.650
   3406582.007 7  -4792338.572 9  24413581.609         790.515
  13497404.069 6  10313560.942 6  25696946.444        3477.410
   4162089.184 7   4054391.381 8  25071903.659        2902.663
 92 10 20 21 18 30.0120000  0  6  3 11 28 21 17 23                   0.012593590
  29383705.536 5  22757163.238 5  28147582.191        5600.893
  -4749758.732 6  -3703889.697 5  27583274.238       -2185.882
  -6156007.690 7  -4802132.766 8  24878597.774         870.551
   3430422.837 7  -4773761.296 9  24418118.280         798.843
  13601876.401 6  10394967.906 6  25716827.010        3487.394
   4249244.814 7   4122304.840 8  25088489.140        2907.823
 92 10 20 21 19  0.0120000  0  6  3 11 28 21 17 23                   0.012620010
  29551811.644 5  22888154.597 5  28179572.189        5606.036
  -4815246.219 6  -3754918.793 5  27570811.893       -2179.777
  -6129577.970 7  -4781538.185 8  24883627.114         891.566
   3454508.113 7  -4754993.532 9  24422701.596         807.005
  13706644.651 6  10476605.435 6  25736763.686        3497.161
   4336555.210 7   4190338.895 8  25105103.798        2913.097
 92 10 20 21 19 30.0120000  0  6  3 11 28 21 17 23                   0.012646440
  29720068.178 5  23019263.180 5  28211590.533        5610.820
  -4880552.831 6  -3805806.977 5  27558384.276       -2173.956
  -6102521.762 7  -4760455.447 8  24888775.999         912.253
   3478843.389 7  -4736030.963 9  24427332.270         815.452
  13811693.841 6  10558461.878 6  25756753.581        3506.126
   4424026.992 7   4258498.699 8  25121749.355        2918.433
 92 10 20 21 20  0.0120000  0  6  3 11 28 21 17 23                   0.012672870
  29888465.058 5  23150481.165 5  28243635.713        5615.322
  -4945682.973 6  -3856557.648 5  27545989.886       -2168.192
  -6074852.854 7  -4738895.246 8  24894041.614         932.311
   3503433.896 7  -4716869.522 9  24432011.679         823.949
  13917003.941 6  10640521.639 6  25776793.916        3514.583
   4511649.224 7   4326775.738 8  25138423.033        2922.965
 92 10 20 21 20 30.0120000  0  6  3 11 28 21 17 23                   0.012699280
  30056991.922 5  23281800.391 5  28275705.595        5619.779
  -5010640.469 6  -3907173.791 5  27533628.665       -2162.125
  -6046591.827 7  -4716873.673 8  24899419.590         952.078
   3528278.257 7  -4697510.270 9  24436739.216         832.439
  14022567.630 6  10722779.007 6  25796882.150        3523.053
   4599401.242 7   4395153.900 8  25155121.671        2927.284
 92 10 20 21 21  0.0120000  0  6  3 11 28 21 17 23                   0.012725700
  30225650.161 5  23413222.041 5  28307800.658        5623.979
  -5075418.318 6  -3957649.933 5  27521301.978       -2156.175
  -6017734.673 7  -4694387.610 8  24904910.818         971.866
   3553372.973 7  -4677955.930 9  24441514.920         840.795
  14128378.496 6  10805228.973 6  25817017.004        3531.187
   4687283.246 7   4463633.361 8  25171845.093        2931.679
 92 10 20 21 21 30.0120000  0  6  3 11 28 21 17 23                   0.012752100
  30394433.635 5  23544741.223 5  28339919.549        5628.252
  -5140016.458 6  -4007986.086 5  27509009.071       -2150.089
  -5988286.287 7  -4671440.819 8  24910514.978         991.643
   3578729.166 7  -4658197.851 9  24446340.229         849.811
  14234443.174 6  10887876.720 6  25837200.568        3540.228
   4775296.538 7   4532215.107 8  25188593.559        2936.065
 92 10 20 21 22  0.0120000  0  6  3 11 28 21 17 23                   0.012778500
  30563346.898 5  23676361.516 5  28372062.899        5632.401
  -5204424.185 6  -4058173.825 5  27496752.904       -2143.761
  -5958238.887 7  -4648027.277 8  24916232.931        1011.721
   3604356.677 7  -4638228.345 9  24451217.054         858.708
  14340795.154 6  10970748.330 6  25857438.349        3549.914
   4863440.564 7   4600898.732 8  25205366.948        2940.303
 92 10 20 21 22 30.0120000  0  6  3 11 28 21 17 23                   0.012804900
  30732393.262 5  23808085.571 5  28404231.422        5637.042
  -5268632.110 6  -4108205.845 5  27484534.653       -2136.680
  -5927568.923 7  -4624128.612 8  24922068.930        1033.082
   3630259.979 7  -4618043.942 9  24456146.043         868.111
  14447440.693 6  11053848.697 6  25877732.470        3559.729
   4951731.244 7   4669696.644 8  25222168.096        2945.647
 92 10 20 21 23  0.0120000  0  6  3 11 28 21 17 23                   0.012831310
  30901583.728 5  23939921.931 5  28436427.048        5641.937
  -5332623.281 6  -4158069.052 5  27472357.622       -2129.279
  -5896241.900 7  -4599717.947 8  24928030.254        1055.249
   3656450.238 7  -4597635.946 9  24461129.842         877.863
  14554390.156 6  11137185.881 6  25898084.308        3570.183
   5040185.779 7   4738622.213 8  25239000.364        2951.331
 92 10 20 21 23 30.0120000  0  6  3 11 28 21 17 23                   0.012857720
  31070920.146 5  24071871.990 5  28468650.812        5646.608
  -5396389.467 6  -4207756.873 5  27460223.203       -2121.990
  -5864250.613 7  -4574789.681 8  24934117.730        1077.263
   3682930.536 7  -4577001.930 9  24466168.893         887.186
  14661653.092 6  11220767.336 6  25918495.759        3580.404
   5128810.845 7   4807680.674 8  25255865.088        2956.740
 92 10 20 21 24  0.0120000  0  5 11 28 21 17 23                      0.012883910
  -5459941.940 6  -4257278.211 5  27448129.397       -2114.585
  -5831600.622 7  -4549348.141 8  24940330.960        1099.530
   3709682.554 7  -4556156.201 9  24471259.529         896.386
  14769206.672 6  11304575.268 6  25938962.141        3589.842
   5217593.285 7   4876861.747 8  25272759.913        2962.225
 92 10 20 21 24 30.0120000  0  5 11 28 21 17 23                      0.012910310
  -5523265.505 6  -4306621.181 5  27436079.478       -2106.856
  -5798277.504 7  -4523382.098 8  24946671.849        1121.905
   3736706.479 7  -4535098.585 9  24476402.129         905.248
  14877043.227 6  11388603.704 6  25959482.794        3599.507
   5306548.545 7   4946177.524 8  25289687.473        2968.012
 92 10 20 21 25  0.0120000  0  5 11 28 21 17 23                      0.012936730
  -5586366.987 6  -4355791.060 5  27424071.790       -2099.804
  -5764305.744 7  -4496910.600 8  24953136.494        1142.873
   3763979.404 7  -4513846.939 9  24481592.058         913.124
  14985163.241 6  11472853.020 6  25980057.669        3608.489
   5395655.428 7   5015611.414 8  25306644.125        2972.596
 92 10 20 21 25 30.0120000  0  5 11 28 21 17 23                      0.012963140
  -5649261.033 6  -4404799.353 5  27412103.654       -2093.024
  -5729709.347 7  -4469952.388 8  24959720.097        1163.608
   3791490.854 7  -4492409.450 9  24486827.250         921.077
  15093545.788 6  11557306.886 6  26000682.292        3617.023
   5484894.584 7   5085148.385 8  25323625.878        2976.679
 92 10 20 21 26  0.0120000  0  5 11 28 21 17 23                      0.012989540
  -5711954.682 6  -4453651.471 5  27400173.317       -2086.404
  -5694496.361 7  -4442513.710 8  24966420.866        1183.972
   3819234.388 7  -4470791.103 9  24492106.767         928.389
  15202179.646 6  11641956.584 6  26021354.820        3625.301
   5574247.839 7   5154774.269 8  25340629.037        2980.187
 92 10 20 21 26 30.0130000  0  5 11 28 21 17 23                      0.013015950
  -5774439.029 6  -4502340.493 5  27388282.395       -2079.134
  -5658662.577 7  -4414591.285 8  24973239.945        1204.746
   3847198.763 7  -4449000.678 9  24497428.323         935.984
  15311078.116 6  11726812.469 6  26042077.534        3634.402
   5663714.398 7   5224488.431 8  25357653.901        2983.943
 92 10 20 21 27  0.0130000  0  5 11 28 21 17 23                      0.013042380
  -5836702.251 6  -4550857.202 5  27376433.849       -2071.798
  -5622207.952 7  -4386185.102 8  24980177.094        1225.610
   3875398.797 7  -4427026.607 9  24502794.659         943.952
  15420246.513 6  11811878.712 6  26062851.732        3643.255
   5753286.262 7   5294284.657 8  25374699.012        2987.514
 92 10 20 21 27 30.0130000  0  5 11 28 21 17 23                      0.013068800
  -5898759.756 6  -4599213.638 5  27364624.794       -2065.145
  -5585139.319 7  -4357300.455 8  24987230.741        1245.818
   3903819.431 7  -4404880.649 9  24508203.114         950.855
  15529662.873 6  11897138.154 6  26083672.798        3651.453
   5842951.697 7   5364153.807 8  25391762.159        2990.464
 92 10 20 21 28  0.0130000  0  5 11 28 21 17 23                      0.013095240
  -5960607.719 6  -4647406.798 5  27352855.181       -2057.889
  -5547455.963 7  -4327936.802 8  24994401.985        1266.577
   3932448.789 7  -4382572.050 9  24513651.382         957.953
  15639336.932 6  11982598.376 6  26104543.331        3660.304
   5932720.937 7   5434103.807 8  25408844.522        2994.353
 92 10 20 21 28 30.0130000  0  5 11 28 21 17 23                      0.013121670
  -6022229.457 6  -4695423.654 5  27341128.823       -2050.137
  -5509144.622 7  -4298083.821 8  25001692.408        1287.526
   3961306.604 7  -4360085.433 9  24519142.661         966.270
  15749278.706 6  12068267.273 6  26125464.837        3669.165
   6022617.654 7   5504153.173 8  25425951.292        2998.949
 92 10 20 21 29  0.0130000  0  5 11 28 21 17 23                      0.013148090
  -6083619.464 6  -4743259.940 5  27329446.439       -2042.565
  -5470206.811 7  -4267742.689 9  25009102.119        1308.342
   3990424.626 7  -4337396.067 9  24524683.315         974.707
  15859480.799 6  12154138.956 6  26146435.738        3677.491
   6112651.575 7   5574309.430 8  25443084.211        3003.374
 92 10 20 21 29 30.0130000  0  5 11 28 21 17 23                      0.013174460
  -6144776.720 6  -4790914.898 5  27317808.882       -2034.751
  -5430640.086 7  -4236911.479 9  25016631.586        1329.357
   4019800.101 7  -4314506.077 9  24530273.176         983.555
  15969941.389 6  12240212.078 6  26167455.509        3686.513
   6202830.627 7   5644578.798 8  25460244.580        3008.486
 92 10 20 21 30  0.0130000  0  5 11 28 21 17 23                      0.013200800
  -6205707.395 6  -4838393.284 5  27306213.913       -2027.400
  -5390455.791 7  -4205599.050 9  25024278.462        1349.538
   4049434.050 7  -4291414.687 9  24535912.162         991.999
  16080654.491 6  12326481.977 6  26188523.762        3694.297
   6293144.480 7   5714953.193 8  25477430.602        3012.360
 92 10 20 21 30 30.0130000  0  5 11 28 21 17 23                      0.013227080
  -6266417.521 6  -4885699.806 5  27294661.169       -2019.903
  -5349669.962 7  -4173817.897 9  25032039.629        1369.454
   4079319.915 7  -4268126.978 9  24541599.154        1000.245
  16191597.704 6  12412931.194 6  26209635.595        3701.915
   6383569.582 7   5785414.287 8  25494637.970        3015.889
 92 10 20 21 31  0.0130000  0  5 11 28 21 17 23                      0.013253320
  -6326901.350 6  -4932829.968 5  27283151.627       -2012.224
  -5308281.854 7  -4141567.444 9  25039915.389        1389.783
   4109437.144 7  -4244658.999 9  24547330.367        1007.453
  16302777.106 6  12499564.439 6  26230791.739        3710.212
   6474097.554 7   5855955.549 8  25511864.954        3019.255
 92 10 20 21 31 30.0130000  0  5 11 28 21 17 23                      0.013279560
  -6387159.496 6  -4979784.318 5  27271684.953       -2004.802
  -5266289.458 7  -4108846.106 9  25047906.076        1409.788
   4139761.874 7  -4221029.338 9  24553101.142        1014.321
  16414205.290 6  12586391.523 6  26251996.052        3718.390
   6564724.565 7   5926573.955 8  25529110.644        3022.595
 92 10 20 21 32  0.0130000  0  5 11 28 21 17 23                      0.013305790
  -6447192.562 6  -5026563.254 5  27260261.183       -1997.272
  -5223706.419 7  -4075664.532 9  25056009.177        1429.167
   4170284.008 7  -4197245.851 9  24558909.362        1020.705
  16525867.044 6  12673400.638 6  26273244.850        3725.812
   6655444.204 7   5997264.549 8  25546373.724        3025.514
 92 10 20 21 32 30.0130000  0  5 11 28 21 17 23                      0.013332000
  -6506996.227 6  -5073163.461 5  27248881.083       -1989.515
  -5180536.397 7  -4042025.570 9  25064224.199        1448.917
   4201007.520 7  -4173305.434 9  24564756.024        1027.620
  16637764.204 6  12760593.180 5  26294538.279        3734.049
   6746260.881 7   6068030.771 8  25563655.580        3028.933
 92 10 20 21 33  0.0130000  0  5 11 28 21 17 23                      0.013358200
  -6566555.187 6  -5119572.979 5  27237547.260       -1980.857
  -5136761.912 7  -4007915.595 9  25072554.172        1469.488
   4231960.429 7  -4149186.297 9  24570646.145        1036.196
  16749922.932 6  12847989.540 5  26315881.734        3743.270
   6837191.282 7   6138885.595 8  25580959.151        3033.193
 92 10 20 21 33 30.0130000  0  5 11 28 21 17 23                      0.013384370
  -6625856.944 6  -5165782.059 6  27226262.612       -1972.409
  -5092373.271 7  -3973327.079 9  25081000.884        1489.904
   4263175.672 7  -4124862.719 9  24576586.214        1044.846
  16862347.439 6  12935592.987 5  26337275.405        3751.596
   6928246.437 7   6209837.627 7  25598286.355        3037.178
 92 10 20 21 34  0.0130000  0  5 11 28 21 17 23                      0.013410510
  -6684904.161 6  -5211792.815 6  27215025.929       -1963.769
  -5047376.734 7  -3938264.834 9  25089563.697        1510.179
   4294638.850 7  -4100345.945 9  24582573.550        1052.964
  16975017.769 6  13023387.995 5  26358715.791        3760.034
   7019407.933 7   6280872.551 7  25615634.022        3040.401
 92 10 20 21 34 30.0130000  0  5 11 28 21 17 23                      0.013436630
  -6743691.013 6  -5257600.680 6  27203839.554       -1955.143
  -5001765.177 7  -3902723.388 9  25098243.477        1530.698
   4326346.357 7  -4075638.775 9  24588607.352        1060.912
  17087942.348 6  13111381.113 5  26380204.994        3768.567
   7110663.791 7   6351980.963 7  25632999.474        3043.390
 92 10 20 21 35  0.0130000  0  5 11 28 21 17 23                      0.013462760
  -6802209.392 6  -5303199.386 6  27192703.902       -1946.043
  -4955533.850 7  -3866698.968 9  25107040.928        1551.396
   4358287.037 7  -4050749.946 9  24594685.242        1068.407
  17201128.884 6  13199578.356 5  26401743.635        3777.182
   7202009.120 7   6423159.121 7  25650382.042        3046.352
 92 10 20 21 35 30.0130000  0  5 11 28 21 17 23                      0.013488900
  -6860454.945 6  -5348585.444 6  27181619.947       -1936.736
  -4908680.598 7  -3830189.999 9  25115957.037        1572.323
   4390441.015 7  -4025694.878 9  24600803.828        1075.266
  17314568.001 6  13287972.396 5  26423330.118        3785.620
   7293448.498 7   6494410.557 7  25667781.994        3049.788
 92 10 20 21 36  0.0130000  0  5 11 28 21 17 23                      0.013515060
  -6918424.647 6  -5393756.591 6  27170588.130       -1927.798
  -4861213.160 7  -3793202.387 9  25124989.842        1592.314
   4422798.173 7  -4000481.512 9  24606961.156        1082.134
  17428260.479 6  13376563.875 5  26444964.991        3794.068
   7384986.912 6   6565739.163 7  25685201.487        3052.987
 92 10 20 21 36 30.0130000  0  5 11 28 21 17 23                      0.013541210
  -6976120.831 6  -5438714.578 6  27159608.647       -1918.422
  -4813144.459 7  -3755746.269 9  25134137.109        1612.573
   4455377.696 7  -3975094.871 9  24613160.654        1090.023
  17542211.747 6  13465357.036 5  26466649.232        3802.947
   7476630.112 7   6637149.414 7  25702640.583        3056.858
 92 10 20 21 37  0.0130000  0  5 11 28 21 17 23                      0.013567360
  -7033530.441 6  -5483449.295 6  27148683.955       -1908.786
  -4764458.617 7  -3717809.273 9  25143401.605        1633.308
   4488195.144 7  -3949522.812 9  24619405.481        1097.852
  17656425.304 6  13554354.528 5  26488383.622        3811.288
   7568396.796 7   6708655.890 7  25720103.393        3061.010
 92 10 20 21 37 30.0130000  0  5 11 28 21 17 23                      0.013593500
  -7090644.802 6  -5527953.911 6  27137815.421       -1898.666
  -4715146.664 7  -3679384.400 9  25152785.439        1654.229
   4521250.404 7  -3923765.460 9  24625695.397        1106.024
  17770893.617 6  13643550.528 5  26510166.384        3820.218
   7660291.749 7   6780262.318 7  25737590.239        3065.344
 92 10 20 21 38  0.0130000  0  5 11 28 21 17 23                      0.013619630
  -7147458.416 6  -5572224.185 6  27127004.265       -1888.532
  -4665216.332 7  -3640477.670 9  25162286.432        1674.945
   4554551.891 7  -3897816.247 9  24632032.438        1114.405
  17885626.271 6  13732952.574 5  26531999.038        3829.101
   7752304.005 6   6851960.160 7  25755099.566        3069.228
 92 10 20 21 38 30.0130000  0  5 11 28 21 17 23                      0.013645770
  -7203963.410 6  -5616254.004 6  27116251.819       -1878.318
  -4614653.876 7  -3601078.359 9  25171907.871        1696.079
   4588101.379 7  -3871673.782 9  24638416.878        1122.219
  18000631.304 6  13822566.802 5  26553883.738        3838.081
   7844438.492 7   6923753.250 7  25772632.137        3073.228
 92 10 20 21 39  0.0130000  0  5 11 28 21 17 23                      0.013671930
  -7260160.314 6  -5660043.743 6  27105557.954       -1868.052
  -4563456.543 7  -3561184.374 9  25181650.505        1717.126
   4621877.064 7  -3845355.068 9  24644844.151        1129.559
  18115900.161 6  13912386.622 5  26575818.782        3846.722
   7936696.447 7   6995642.540 7  25790188.085        3077.332
 92 10 20 21 39 30.0130000  0  5 11 28 21 17 23                      0.013698090
  -7316048.015 6  -5703592.525 6  27094922.516       -1857.724
  -4511629.557 7  -3520799.727 9  25191513.078        1738.050
   4655880.264 7  -3818859.058 9  24651314.939        1137.482
  18231444.384 6  14002421.019 5  26597806.162        3856.276
   8029080.355 7   7067629.980 7  25807768.632        3081.716
 92 10 20 21 40  0.0130000  0  5 11 28 21 17 23                      0.013724270
  -7371614.878 6  -5746891.310 6  27084348.697       -1846.662
  -4459152.954 7  -3479908.889 9  25201499.302        1760.591
   4690139.613 7  -3792163.476 9  24657834.108        1146.460
  18347282.812 6  14092684.640 5  26619849.113        3866.156
   8121613.503 7   7139733.700 7  25825377.164        3087.216
 92 10 20 21 40 30.0130000  0  5 11 28 21 17 23                      0.013750460
  -7426846.990 6  -5789929.236 6  27073838.093       -1835.494
  -4405986.713 7  -3438480.659 8  25211616.749        1783.652
   4724667.499 7  -3765258.614 9  24664404.630        1155.347
  18463419.398 6  14183180.633 5  26641949.041        3876.271
   8214312.566 7   7211966.732 7  25843017.003        3092.541
 92 10 20 21 41  0.0130000  0  5 11 28 21 17 23                      0.013776660
  -7481747.169 6  -5832708.558 6  27063390.896       -1824.614
  -4352139.734 7  -3396521.991 8  25221863.558        1806.015
   4759460.109 7  -3738147.494 9  24671025.344        1164.078
  18579844.370 6  14273901.304 5  26664104.223        3885.257
   8307156.693 7   7284312.769 7  25860684.771        3096.787
 92 10 20 21 41 30.0130000  0  5 11 28 21 17 23                      0.013802850
  -7536322.900 6  -5875235.025 6  27053005.224       -1813.878
  -4297627.487 7  -3354044.944 8  25232236.926        1827.781
   4794515.606 7  -3710831.520 9  24677696.276        1172.736
  18696539.422 6  14364832.447 5  26686311.070        3893.992
   8400120.002 6   7356751.702 7  25878374.964        3100.589
 92 10 20 21 42  0.0130000  0  5 11 28 21 17 23                      0.013829030
  -7590561.043 6  -5917498.440 6  27042684.500       -1801.927
  -4242455.152 7  -3311053.517 8  25242735.609        1850.188
   4829844.427 7  -3683302.563 9  24684419.232        1182.470
  18813496.049 6  14455967.417 5  26708567.182        3903.052
   8493209.215 7   7429288.724 7  25896089.360        3105.296
 92 10 20 21 42 30.0130000  0  5 11 28 21 17 23                      0.013855180
  -7644452.242 6  -5959491.531 6  27032429.316       -1790.746
  -4186646.723 7  -3267566.453 8  25253355.525        1870.196
   4865451.263 7  -3655556.975 9  24691195.223        1191.370
  18930715.852 6  14547307.473 5  26730873.090        3911.657
   8586421.719 7   7501921.821 7  25913827.351        3108.943
 92 10 20 21 43  0.0130000  0  5 11 28 21 17 23                      0.013881320
  -7697991.554 6  -6001210.414 6  27022241.303       -1778.837
  -4130238.099 7  -3223611.716 8  25264089.733        1890.139
   4901341.367 7  -3627590.667 9  24698024.864        1201.043
  19048200.306 6  14638853.690 5  26753229.814        3920.302
   8679758.991 6   7574652.125 7  25931588.644        3113.342
 92 10 20 21 43 30.0130000  0  5 11 28 21 17 23                      0.013907420
  -7751181.673 6  -6042657.209 6  27012119.487       -1767.398
  -4073238.627 7  -3179196.566 8  25274936.603        1909.455
   4937509.443 7  -3599407.751 9  24704907.110        1209.863
  19165941.467 6  14730599.972 5  26775635.374        3928.811
   8773224.616 7   7647482.458 7  25949374.421        3117.493
 92 10 20 21 44  0.0130000  0  5 11 28 21 17 23                      0.013933490
  -7804039.773 6  -6083845.288 6  27002060.951       -1756.581
  -4015668.156 7  -3134336.478 8  25285891.793        1928.439
   4973927.431 7  -3571030.084 9  24711836.932        1217.691
  19283929.181 6  14822538.387 5  26798087.988        3937.072
   8866802.433 7   7720400.222 7  25967181.763        3120.768
 92 10 20 21 44 30.0130000  0  5 11 28 21 17 23                      0.013959560
  -7856568.045 6  -6124776.337 6  26992065.104       -1745.473
  -3957522.854 7  -3089028.454 8  25296956.621        1947.917
   5010571.092 7  -3542476.575 9  24718810.065        1224.931
  19402180.044 6  14914681.853 5  26820590.103        3946.046
   8960476.815 7   7793393.214 7  25985007.463        3123.999
 92 10 20 21 45  0.0130000  0  5 11 28 21 17 23                      0.013985650
  -7908758.287 6  -6165444.016 6  26982133.379       -1734.033
  -3898774.635 7  -3043250.660 8  25308135.883        1968.676
   5047422.720 7  -3513761.005 9  24725822.680        1231.707
  19520691.470 6  15007028.314 5  26843142.098        3954.533
   9054246.269 7   7866460.291 7  26002851.449        3127.109
 92 10 20 21 45 30.0140000  0  5 11 28 21 17 23                      0.014011760
  -7960601.852 6  -6205841.539 6  26972267.518       -1722.122
  -3839388.445 7  -2996975.730 8  25319436.938        1990.154
   5084481.991 7  -3484883.640 9  24732874.987        1238.783
  19639471.525 6  15099584.114 5  26865745.391        3963.792
   9148119.205 7   7939607.996 7  26020714.985        3130.686
 92 10 20 21 46  0.0140000  0  5 11 28 21 17 23                      0.014037930
  -8012085.902 6  -6245958.946 6  26962469.971       -1710.217
  -3779364.209 7  -2950203.623 8  25330859.590        2011.521
   5121750.894 7  -3455842.947 9  24739966.997        1245.717
  19758519.126 6  15192348.411 5  26888399.427        3972.539
   9242084.377 7   8012827.585 7  26038596.063        3133.590
 92 10 20 21 46 30.0140000  0  5 11 28 21 17 23                      0.014064110
  -8063214.782 6  -6285799.566 6  26952740.797       -1698.438
  -3718697.107 7  -2902930.551 8  25342403.966        2032.867
   5159229.327 7  -3426638.948 9  24747099.040        1252.917
  19877817.956 6  15285308.440 5  26911101.143        3980.381
   9336139.545 7   8086117.303 7  26056494.366        3136.714
 92 10 20 21 47  0.0140000  0  6 11 12 28 21 17 23                   0.014090420
  -8113989.969 6  -6325364.603 6  26943078.735       -1686.341
    -40469.79115    -35446.56211  28560257.144        -468.098
  -3657393.059 7  -2855161.194 8  25354069.646        2054.127
   5196934.135 7  -3397258.571 9  24754273.893        1261.021
  19997343.376 6  15378445.041 5  26933845.916        3988.394
   9430288.250 7   8159479.873 7  26074410.122        3140.021
 92 10 20 21 47 30.0140000  0  6 11 12 28 21 17 23                   0.014116610
  -8164394.139 6  -6364640.531 6  26933487.174       -1674.054
    -54293.200 5    -46218.315 1  28557626.922        -453.803
  -3595459.042 7  -2806900.959 8  25365855.145        2074.409
   5234896.823 7  -3367677.253 9  24761497.954        1269.603
  20117132.930 6  15471787.433 5  26956641.177        3997.486
   9524543.079 7   8232925.173 7  26092346.425        3143.413
 92 10 20 21 48  0.0140000  0  6 11 12 28 21 17 23                   0.014142810
  -8214427.863 6  -6403627.798 6  26923966.307       -1661.686
    -67682.337 5    -56651.052 1  28555078.888        -439.253
  -3532922.388 7  -2758171.118 8  25377755.415        2094.650
   5273108.161 7  -3337902.162 9  24768769.427        1277.718
  20237197.768 6  15565344.369 5  26979489.137        4006.678
   9618901.136 7   8306450.913 7  26110302.083        3147.062
 92 10 20 21 48 30.0140000  0  6 11 12 28 21 17 23                   0.014168980
  -8264098.912 6  -6442332.456 6  26914513.990       -1649.425
    -80645.107 5    -66751.777 2  28552611.689        -424.915
  -3469789.600 7  -2708976.763 8  25389769.228        2114.222
   5311553.781 7  -3307944.533 9  24776085.433        1285.621
  20357528.712 6  15659108.658 5  27002387.596        4015.770
   9713367.105 7   8380060.728 7  26128278.198        3150.859
 92 10 20 21 49  0.0140000  0  6 11 12 28 21 17 23                   0.014195140
  -8313408.524 6  -6480755.479 6  26905130.655       -1637.418
    -93183.027 5    -76521.549 2  28550225.511        -410.788
  -3406083.906 7  -2659335.996 8  25401891.945        2133.309
   5350226.831 7  -3277809.688 9  24783444.660        1292.898
  20478130.778 6  15753084.171 5  27025337.590        4024.895
   9807931.363 6   8453747.145 7  26146273.132        3153.877
 92 10 20 21 49 30.0140000  0  6 11 12 28 21 17 23                   0.014221300
  -8362350.316 6  -6518891.887 6  26895817.132       -1624.951
   -105290.129 5    -85955.617 2  28547921.642        -396.178
  -3341795.195 7  -2609240.911 8  25414125.876        2153.144
   5389120.886 7  -3247502.618 9  24790845.694        1300.289
  20599011.179 6  15847276.628 5  27048340.415        4033.942
   9902597.769 6   8527513.147 7  26164287.582        3157.729
 92 10 20 21 50  0.0140000  0  6 11 12 28 21 17 23                   0.014247450
  -8410920.821 6  -6556738.958 6  26886574.623       -1612.619
   -116962.741 5    -95051.097 2  28545700.813        -381.596
  -3276898.632 7  -2558672.195 8  25426475.219        2173.885
   5428230.940 7  -3217027.234 9  24798288.043        1307.593
  20720143.106 6  15941665.049 5  27071391.097        4041.860
   9997379.687 6   8601369.176 7  26182324.094        3161.634
 92 10 20 21 50 30.0140000  0  6 11 12 28 21 17 23                   0.014273590
  -8459112.596 6  -6594290.939 6  26877403.800       -1600.282
   -128194.133 5   -103802.716 3  28543563.225        -367.271
  -3211372.480 7  -2507612.862 8  25438944.637        2194.245
   5467572.929 7  -3186371.143 9  24805774.559        1315.160
  20841512.277 6  16036238.323 5  27094487.306        4049.269
  10092282.620 6   8675319.480 7  26200383.502        3165.079
 92 10 20 21 51  0.0140000  0  6 11 12 28 21 17 23                   0.014299710
  -8506929.106 6  -6631550.487 6  26868304.390       -1587.448
   -138987.660 5   -112213.166 3  28541508.825        -352.480
  -3145232.112 7  -2456074.962 8  25451530.621        2215.229
   5507152.144 7  -3155530.180 9  24813306.385        1323.366
  20963114.295 6  16130993.071 5  27117627.388        4057.477
  10187286.132 6   8749348.176 7  26218462.229        3168.594
 92 10 20 21 51 30.0140000  0  6 11 12 28 21 17 23                   0.014325840
  -8554363.259 6  -6668512.104 6  26859277.908       -1574.677
   -149336.579 5   -120277.215 4  28539539.464        -337.512
  -3078463.665 7  -2404047.613 8  25464236.166        2235.928
   5546971.573 7  -3124502.052 9  24820883.639        1331.390
  21084956.214 6  16225934.719 5  27140812.846        4065.322
  10282395.652 6   8823459.469 7  26236560.717        3172.017
 92 10 20 21 52  0.0140000  0  6 11 12 28 21 17 23                   0.014351950
  -8601419.986 6  -6705179.610 6  26850323.260       -1561.972
   -159246.281 5   -127998.894 3  28537653.996        -322.772
  -3011090.064 7  -2351548.739 8  25477056.661        2255.847
   5587026.878 7  -3093290.119 9  24828505.843        1339.250
  21207026.865 6  16321054.624 5  27164042.302        4073.160
  10377588.607 6   8897635.796 7  26254675.077        3174.481
 92 10 20 21 52 30.0140000  0  6 11 12 28 21 17 23                   0.014378040
  -8648084.899 6  -6741541.796 6  26841443.356       -1548.894
   -168702.498 5   -135367.356 3  28535854.613        -307.690
  -2943127.541 7  -2298590.950 8  25489989.686        2274.959
   5627327.124 7  -3061887.323 9  24836174.594        1347.375
  21329344.242 5  16416366.749 5  27187318.532        4081.356
  10472860.397 6   8971873.546 7  26272804.985        3176.974
 92 10 20 21 53  0.0140000  0  6 11 12 28 21 17 23                   0.014404130
  -8694353.920 6  -6777595.521 6  26832638.783       -1535.605
   -177701.468 5   -142379.452 3  28534142.046        -292.335
  -2874592.139 7  -2245186.773 8  25503031.798        2294.139
   5667867.020 7  -3030297.782 9  24843889.134        1355.089
  21451910.172 6  16511872.558 5  27210642.024        4089.649
  10568208.191 6   9046170.506 7  26290949.326        3179.691
 92 10 20 21 53 30.0140000  0  6 11 12 28 21 17 23                   0.014430230
  -8740214.606 6  -6813331.048 6  26823911.845       -1521.941
   -186231.082 5   -149025.739 4  28532518.789        -276.584
  -2805479.008 7  -2191332.402 8  25516183.882        2313.103
   5708635.763 7  -2998529.930 9  24851647.111        1362.666
  21574721.707 5  16607569.787 5  27234012.248        4097.525
  10663652.167 6   9120542.423 7  26309111.640        3182.894
 92 10 20 21 54  0.0140000  0  6 11 12 28 21 17 23                   0.014456320
  -8785660.913 6  -6848743.726 6  26815263.721       -1508.145
   -194285.584 5   -155301.858 4  28530985.182        -260.911
  -2735796.174 7  -2137034.110 8  25529444.033        2332.122
   5749634.670 7  -2966582.724 9  24859449.152        1370.208
  21697771.216 5  16703452.406 5  27257427.757        4105.451
  10759192.839 6   9194989.682 7  26327292.695        3186.324
 92 10 20 21 54 30.0140000  0  6 11 12 28 21 17 23                   0.014482400
  -8830701.848 6  -6883840.503 6  26806692.714       -1494.550
   -201874.402 5   -161215.026 4  28529540.496        -245.243
  -2665550.691 7  -2082297.418 8  25542811.061        2351.009
   5790853.184 7  -2934464.407 9  24867292.862        1377.699
  21821049.846 5  16799513.578 5  27280886.917        4113.290
  10854837.716 6   9269518.120 7  26345493.235        3189.957
 92 10 20 21 55  0.0140000  0  6 11 12 28 21 17 23                   0.014508470
  -8875335.800 6  -6918620.152 6  26798198.801       -1481.026
   -208996.361 5   -166764.492 4  28528185.141        -229.713
  -2594734.175 7  -2027115.741 8  25556286.990        2370.138
   5832292.135 7  -2902174.291 9  24875178.422        1384.845
  21944569.970 5  16895762.916 5  27304392.451        4121.483
  10950588.150 6   9344128.837 7  26363713.830        3193.422
 92 10 20 21 55 30.0140000  0  6 11 12 28 21 17 23                   0.014534540
  -8919556.722 6  -6953077.973 6  26789783.968       -1466.803
   -215645.693 5   -171945.628 5  28526919.930        -213.572
  -2523332.284 7  -1971477.940 8  25569874.395        2390.271
   5873952.943 7  -2869711.320 9  24883106.262        1392.851
  22068341.567 5  16992208.219 5  27327945.328        4130.267
  11046449.238 6   9418825.766 7  26381955.712        3197.359
 92 10 20 21 56  0.0140000  0  6 11 12 28 21 17 23                   0.014560610
  -8963354.534 6  -6987206.082 6  26781449.239       -1453.172
   -221812.755 5   -176750.949 5  28525745.850        -197.917
  -2451324.996 7  -1915368.409 8  25583576.909        2410.107
   5915852.907 7  -2837061.983 9  24891079.475        1400.235
  22192375.980 5  17088858.322 5  27351548.058        4138.625
  11142419.031 6   9493607.401 7  26400218.010        3200.578
 92 10 20 21 56 30.0140000  0  6 11 12 28 21 17 23                   0.014586670
  -9006748.911 6  -7021019.829 6  26773191.358       -1439.498
   -227517.571 5   -181196.106 5  28524660.236        -182.403
  -2378728.837 7  -1858799.993 8  25597391.397        2429.864
   5957957.876 7  -2804252.906 9  24899091.458        1406.878
  22316652.661 5  17185697.204 5  27375197.557        4146.765
  11238478.043 6   9568458.577 7  26418497.466        3203.346
 92 10 20 21 57  0.0140000  0  6 11 12 28 21 17 23                   0.014612740
  -9049728.835 6  -7054510.655 6  26765012.417       -1425.626
   -232749.716 5   -185272.967 5  28523663.962        -166.391
  -2305539.013 7  -1801769.008 8  25611319.162        2449.624
   6000256.817 7  -2771292.675 9  24907140.755        1413.223
  22441170.355 5  17282723.870 5  27398892.551        4154.466
  11334615.796 6   9643371.070 6  26436791.419        3206.084
 92 10 20 21 57 30.0140000  0  5 11 28 21 17 23                      0.014638880
  -9092275.511 6  -7087663.868 6  26756916.102       -1410.874
  -2231738.010 7  -1744261.763 8  25625363.470        2470.354
   6042763.609 7  -2738170.486 9  24915229.485        1420.495
  22565924.211 5  17379934.559 5  27422632.308        4162.280
  11430851.950 6   9718360.271 6  26455104.670        3209.515
 92 10 20 21 58  0.0140000  0  5 11 28 21 17 23                      0.014665040
  -9134377.261 6  -7120470.381 6  26748904.477       -1395.959
  -2157322.802 7  -1686275.933 8  25639524.106        2490.535
   6085488.355 7  -2704878.476 9  24923359.677        1427.771
  22690912.232 5  17477327.730 5  27446417.079        4170.139
  11527188.099 6   9793427.368 6  26473436.901        3212.986
